<?xml version="1.0" encoding="UTF-8"?>
<gpx version="1.1" creator="2bulu-scraper" xmlns="http://www.topografix.com/GPX/1/1">
  <metadata><name>峨眉山-报国寺-金顶</name><desc>source: 2bulu.com trackId=78239836; exported 2026-09-01T16:03:58.751Z</desc>
    <bounds minlat="29.522685" minlon="103.3268375" maxlat="29.5742315" maxlon="103.4414734"/>
    <link href="https://www.2bulu.com/track/t-fQjtSLRAMVrp%252FR2KBg5Tzw%253D%253D.htm"><text>2bulu 源页面</text></link>
  </metadata>
  <wpt lat="29.5708773" lon="103.4414683"><ele>488</ele><name>
        </name></wpt>
  <wpt lat="29.5653533" lon="103.4212333"><ele>789</ele><name>
        </name></wpt>
  <wpt lat="29.5666325" lon="103.4079583"><ele>769</ele><name>
        </name></wpt>
  <wpt lat="29.574096" lon="103.3920545"><ele>655</ele><name>
        </name></wpt>
  <wpt lat="29.5688137" lon="103.3911897"><ele>664</ele><name>
        </name></wpt>
  <wpt lat="29.5684297" lon="103.3906567"><ele>673</ele><name>
        </name></wpt>
  <wpt lat="29.5660313" lon="103.389688"><ele>693</ele><name>
        </name></wpt>
  <wpt lat="29.5503649" lon="103.3569808"><ele>1695</ele><name>
        </name></wpt>
  <wpt lat="29.5518367" lon="103.3529996"><ele>1623</ele><name>
        </name></wpt>
  <wpt lat="29.5588814" lon="103.3442842"><ele>2013</ele><name>
        </name></wpt>
  <wpt lat="29.5583091" lon="103.3441406"><ele>2038</ele><name>
        </name></wpt>
  <wpt lat="29.5466418" lon="103.3391098"><ele>2374</ele><name>
        </name></wpt>
  <wpt lat="29.5463812" lon="103.3387875"><ele>2389</ele><name>
        </name></wpt>
  <wpt lat="29.544077" lon="103.3340889"><ele>2395</ele><name>
        </name></wpt>
  <wpt lat="29.539915" lon="103.331425"><ele>2387</ele><name>
        </name></wpt>
  <wpt lat="29.5350698" lon="103.3328458"><ele>2492</ele><name>
        </name></wpt>
  <wpt lat="29.5326285" lon="103.3319907"><ele>2583</ele><name>
        </name></wpt>
  <wpt lat="29.5232208" lon="103.3348216"><ele>2995</ele><name>
        </name></wpt>
  <wpt lat="29.522685" lon="103.3348507"><ele>3002</ele><name>
        </name></wpt>
  <trk><name>峨眉山-报国寺-金顶</name>
      <trkseg>
        <trkpt lat="29.5711517" lon="103.4414333"><ele>481</ele><time>2026-01-21T15:41:34.000Z</time></trkpt>
        <trkpt lat="29.571065" lon="103.4414412"><ele>481</ele><time>2026-01-21T15:41:42.000Z</time></trkpt>
        <trkpt lat="29.5709706" lon="103.4414734"><ele>482.03</ele><time>2026-01-21T15:41:50.000Z</time></trkpt>
        <trkpt lat="29.5708773" lon="103.4414683"><ele>483.48</ele><time>2026-01-21T15:41:58.000Z</time></trkpt>
        <trkpt lat="29.5707788" lon="103.4414447"><ele>485.34</ele><time>2026-01-21T15:42:14.000Z</time></trkpt>
        <trkpt lat="29.5706829" lon="103.4414435"><ele>486.53</ele><time>2026-01-21T15:42:24.000Z</time></trkpt>
        <trkpt lat="29.5705847" lon="103.4414693"><ele>487.2</ele><time>2026-01-21T15:42:34.000Z</time></trkpt>
        <trkpt lat="29.5704934" lon="103.4414608"><ele>487.37</ele><time>2026-01-21T15:42:42.000Z</time></trkpt>
        <trkpt lat="29.5704087" lon="103.4414002"><ele>487.77</ele><time>2026-01-21T15:42:50.000Z</time></trkpt>
        <trkpt lat="29.5703248" lon="103.4413405"><ele>488.99</ele><time>2026-01-21T15:42:58.000Z</time></trkpt>
        <trkpt lat="29.5702508" lon="103.4412656"><ele>490.54</ele><time>2026-01-21T15:43:10.000Z</time></trkpt>
        <trkpt lat="29.5702508" lon="103.4412656"><ele>490.54</ele><time>2026-01-21T15:43:17.000Z</time></trkpt>
        <trkpt lat="29.5701675" lon="103.4412157"><ele>491.21</ele><time>2026-01-21T15:43:29.000Z</time></trkpt>
        <trkpt lat="29.5701675" lon="103.4412157"><ele>491.21</ele><time>2026-01-21T15:43:38.000Z</time></trkpt>
        <trkpt lat="29.5700764" lon="103.4411817"><ele>490.6</ele><time>2026-01-21T15:43:48.000Z</time></trkpt>
        <trkpt lat="29.5699963" lon="103.4411067"><ele>490.09</ele><time>2026-01-21T15:43:56.000Z</time></trkpt>
        <trkpt lat="29.5698982" lon="103.4410482"><ele>490.14</ele><time>2026-01-21T15:44:06.000Z</time></trkpt>
        <trkpt lat="29.5697982" lon="103.4410137"><ele>490.85</ele><time>2026-01-21T15:44:14.000Z</time></trkpt>
        <trkpt lat="29.5697008" lon="103.4410167"><ele>491.39</ele><time>2026-01-21T15:44:22.000Z</time></trkpt>
        <trkpt lat="29.5696162" lon="103.440987"><ele>491.91</ele><time>2026-01-21T15:44:30.000Z</time></trkpt>
        <trkpt lat="29.5695264" lon="103.4409626"><ele>491.17</ele><time>2026-01-21T15:44:56.000Z</time></trkpt>
        <trkpt lat="29.5694253" lon="103.4409631"><ele>489.64</ele><time>2026-01-21T15:45:04.000Z</time></trkpt>
        <trkpt lat="29.5693212" lon="103.44097"><ele>489.06</ele><time>2026-01-21T15:45:12.000Z</time></trkpt>
        <trkpt lat="29.5692154" lon="103.440964"><ele>487.62</ele><time>2026-01-21T15:45:20.000Z</time></trkpt>
        <trkpt lat="29.569112" lon="103.440941"><ele>486.02</ele><time>2026-01-21T15:45:30.000Z</time></trkpt>
        <trkpt lat="29.5690561" lon="103.440863"><ele>484.07</ele><time>2026-01-21T15:45:36.000Z</time></trkpt>
        <trkpt lat="29.5690314" lon="103.4407497"><ele>482.67</ele><time>2026-01-21T15:45:42.000Z</time></trkpt>
        <trkpt lat="29.5690105" lon="103.4406295"><ele>481.61</ele><time>2026-01-21T15:45:54.000Z</time></trkpt>
        <trkpt lat="29.5690005" lon="103.4405068"><ele>482.76</ele><time>2026-01-21T15:46:04.000Z</time></trkpt>
        <trkpt lat="29.5689951" lon="103.4403782"><ele>483.3</ele><time>2026-01-21T15:46:14.000Z</time></trkpt>
        <trkpt lat="29.5689798" lon="103.4402662"><ele>483.43</ele><time>2026-01-21T15:46:22.000Z</time></trkpt>
        <trkpt lat="29.568936" lon="103.440169"><ele>484.1</ele><time>2026-01-21T15:46:30.000Z</time></trkpt>
        <trkpt lat="29.5688767" lon="103.4400606"><ele>485.99</ele><time>2026-01-21T15:46:38.000Z</time></trkpt>
        <trkpt lat="29.5688134" lon="103.4399583"><ele>488.84</ele><time>2026-01-21T15:46:48.000Z</time></trkpt>
        <trkpt lat="29.5687464" lon="103.4398746"><ele>491.1</ele><time>2026-01-21T15:46:56.000Z</time></trkpt>
        <trkpt lat="29.568688" lon="103.4397836"><ele>492.61</ele><time>2026-01-21T15:47:04.000Z</time></trkpt>
        <trkpt lat="29.5686122" lon="103.4397039"><ele>494.37</ele><time>2026-01-21T15:47:12.000Z</time></trkpt>
        <trkpt lat="29.5685251" lon="103.4396193"><ele>496.14</ele><time>2026-01-21T15:47:20.000Z</time></trkpt>
        <trkpt lat="29.5684547" lon="103.4395221"><ele>498.32</ele><time>2026-01-21T15:47:30.000Z</time></trkpt>
        <trkpt lat="29.5683865" lon="103.439424"><ele>500.07</ele><time>2026-01-21T15:47:40.000Z</time></trkpt>
        <trkpt lat="29.5683214" lon="103.4393211"><ele>500.47</ele><time>2026-01-21T15:47:50.000Z</time></trkpt>
        <trkpt lat="29.5682282" lon="103.4392457"><ele>500.14</ele><time>2026-01-21T15:48:00.000Z</time></trkpt>
        <trkpt lat="29.5681408" lon="103.4391746"><ele>500.34</ele><time>2026-01-21T15:48:10.000Z</time></trkpt>
        <trkpt lat="29.5680644" lon="103.4391112"><ele>499.07</ele><time>2026-01-21T15:48:18.000Z</time></trkpt>
        <trkpt lat="29.5679873" lon="103.439056"><ele>497.79</ele><time>2026-01-21T15:48:28.000Z</time></trkpt>
        <trkpt lat="29.5679247" lon="103.4389692"><ele>496.64</ele><time>2026-01-21T15:48:38.000Z</time></trkpt>
        <trkpt lat="29.5678709" lon="103.438866"><ele>495.46</ele><time>2026-01-21T15:48:44.000Z</time></trkpt>
        <trkpt lat="29.5677932" lon="103.4387745"><ele>494.49</ele><time>2026-01-21T15:48:54.000Z</time></trkpt>
        <trkpt lat="29.5677246" lon="103.4386887"><ele>493.72</ele><time>2026-01-21T15:49:00.000Z</time></trkpt>
        <trkpt lat="29.5676613" lon="103.4385964"><ele>493.5</ele><time>2026-01-21T15:49:10.000Z</time></trkpt>
        <trkpt lat="29.5676062" lon="103.4384991"><ele>493.84</ele><time>2026-01-21T15:49:20.000Z</time></trkpt>
        <trkpt lat="29.5675463" lon="103.4384127"><ele>493.65</ele><time>2026-01-21T15:49:30.000Z</time></trkpt>
        <trkpt lat="29.5674752" lon="103.4383407"><ele>493.33</ele><time>2026-01-21T15:49:40.000Z</time></trkpt>
        <trkpt lat="29.5674299" lon="103.4382472"><ele>492.71</ele><time>2026-01-21T15:49:48.000Z</time></trkpt>
        <trkpt lat="29.5673848" lon="103.4381262"><ele>491.98</ele><time>2026-01-21T15:49:54.000Z</time></trkpt>
        <trkpt lat="29.5673335" lon="103.4380095"><ele>491.17</ele><time>2026-01-21T15:50:00.000Z</time></trkpt>
        <trkpt lat="29.5672693" lon="103.4378925"><ele>491.14</ele><time>2026-01-21T15:50:08.000Z</time></trkpt>
        <trkpt lat="29.567203" lon="103.4378024"><ele>491.81</ele><time>2026-01-21T15:50:14.000Z</time></trkpt>
        <trkpt lat="29.5671579" lon="103.4377038"><ele>493.05</ele><time>2026-01-21T15:50:24.000Z</time></trkpt>
        <trkpt lat="29.567106" lon="103.4375996"><ele>494.23</ele><time>2026-01-21T15:50:32.000Z</time></trkpt>
        <trkpt lat="29.5670445" lon="103.4375169"><ele>495.3</ele><time>2026-01-21T15:50:38.000Z</time></trkpt>
        <trkpt lat="29.5669769" lon="103.4374247"><ele>496.72</ele><time>2026-01-21T15:50:46.000Z</time></trkpt>
        <trkpt lat="29.5669025" lon="103.4373343"><ele>498.95</ele><time>2026-01-21T15:50:54.000Z</time></trkpt>
        <trkpt lat="29.5668349" lon="103.4372482"><ele>501.46</ele><time>2026-01-21T15:51:02.000Z</time></trkpt>
        <trkpt lat="29.5667756" lon="103.4371573"><ele>503.76</ele><time>2026-01-21T15:51:10.000Z</time></trkpt>
        <trkpt lat="29.5667155" lon="103.4370656"><ele>505.93</ele><time>2026-01-21T15:51:18.000Z</time></trkpt>
        <trkpt lat="29.5666621" lon="103.4369687"><ele>508.2</ele><time>2026-01-21T15:51:26.000Z</time></trkpt>
        <trkpt lat="29.5666123" lon="103.43687"><ele>510</ele><time>2026-01-21T15:51:34.000Z</time></trkpt>
        <trkpt lat="29.566552" lon="103.4367672"><ele>511.21</ele><time>2026-01-21T15:51:44.000Z</time></trkpt>
        <trkpt lat="29.5664925" lon="103.4366595"><ele>512.41</ele><time>2026-01-21T15:51:52.000Z</time></trkpt>
        <trkpt lat="29.5664373" lon="103.4365603"><ele>513.82</ele><time>2026-01-21T15:52:00.000Z</time></trkpt>
        <trkpt lat="29.5663864" lon="103.4364573"><ele>514.98</ele><time>2026-01-21T15:52:08.000Z</time></trkpt>
        <trkpt lat="29.5663444" lon="103.43636"><ele>515.46</ele><time>2026-01-21T15:52:16.000Z</time></trkpt>
        <trkpt lat="29.5663115" lon="103.4362575"><ele>515.39</ele><time>2026-01-21T15:52:24.000Z</time></trkpt>
        <trkpt lat="29.5662876" lon="103.4361453"><ele>515.18</ele><time>2026-01-21T15:52:32.000Z</time></trkpt>
        <trkpt lat="29.5662524" lon="103.4360398"><ele>515.06</ele><time>2026-01-21T15:52:40.000Z</time></trkpt>
        <trkpt lat="29.5662246" lon="103.4359372"><ele>514.73</ele><time>2026-01-21T15:52:46.000Z</time></trkpt>
        <trkpt lat="29.5661808" lon="103.4358307"><ele>514.33</ele><time>2026-01-21T15:52:56.000Z</time></trkpt>
        <trkpt lat="29.5661409" lon="103.4357138"><ele>514.4</ele><time>2026-01-21T15:53:06.000Z</time></trkpt>
        <trkpt lat="29.5660969" lon="103.4356008"><ele>514.92</ele><time>2026-01-21T15:53:14.000Z</time></trkpt>
        <trkpt lat="29.5660702" lon="103.4354835"><ele>515.34</ele><time>2026-01-21T15:53:24.000Z</time></trkpt>
        <trkpt lat="29.5660415" lon="103.435371"><ele>515.71</ele><time>2026-01-21T15:53:32.000Z</time></trkpt>
        <trkpt lat="29.5660415" lon="103.435371"><ele>515.71</ele><time>2026-01-21T15:53:41.000Z</time></trkpt>
        <trkpt lat="29.5659646" lon="103.4351437"><ele>516.61</ele><time>2026-01-21T15:53:49.000Z</time></trkpt>
        <trkpt lat="29.5659646" lon="103.4351437"><ele>516.61</ele><time>2026-01-21T15:53:52.000Z</time></trkpt>
        <trkpt lat="29.5659103" lon="103.435045"><ele>518.41</ele><time>2026-01-21T15:54:00.000Z</time></trkpt>
        <trkpt lat="29.5658562" lon="103.4349559"><ele>520.47</ele><time>2026-01-21T15:54:10.000Z</time></trkpt>
        <trkpt lat="29.5657778" lon="103.4348769"><ele>522.51</ele><time>2026-01-21T15:54:20.000Z</time></trkpt>
        <trkpt lat="29.5656899" lon="103.4348119"><ele>524.35</ele><time>2026-01-21T15:54:30.000Z</time></trkpt>
        <trkpt lat="29.5656025" lon="103.4347398"><ele>526.18</ele><time>2026-01-21T15:54:40.000Z</time></trkpt>
        <trkpt lat="29.5655505" lon="103.4346386"><ele>528</ele><time>2026-01-21T15:54:50.000Z</time></trkpt>
        <trkpt lat="29.565556" lon="103.4345328"><ele>529.55</ele><time>2026-01-21T15:54:58.000Z</time></trkpt>
        <trkpt lat="29.5656009" lon="103.4344304"><ele>530.3</ele><time>2026-01-21T15:55:08.000Z</time></trkpt>
        <trkpt lat="29.5656837" lon="103.4343617"><ele>530.73</ele><time>2026-01-21T15:55:22.000Z</time></trkpt>
        <trkpt lat="29.5657424" lon="103.4342755"><ele>531.32</ele><time>2026-01-21T15:55:30.000Z</time></trkpt>
        <trkpt lat="29.5657653" lon="103.4341562"><ele>531.96</ele><time>2026-01-21T15:55:42.000Z</time></trkpt>
        <trkpt lat="29.5657642" lon="103.4340287"><ele>533.22</ele><time>2026-01-21T15:55:50.000Z</time></trkpt>
        <trkpt lat="29.565747" lon="103.4339163"><ele>534.63</ele><time>2026-01-21T15:56:02.000Z</time></trkpt>
        <trkpt lat="29.5657372" lon="103.4338083"><ele>535.87</ele><time>2026-01-21T15:56:10.000Z</time></trkpt>
        <trkpt lat="29.5657447" lon="103.4336982"><ele>536.96</ele><time>2026-01-21T15:56:18.000Z</time></trkpt>
        <trkpt lat="29.5657253" lon="103.433597"><ele>539</ele><time>2026-01-21T15:56:30.000Z</time></trkpt>
        <trkpt lat="29.5657105" lon="103.4334789"><ele>541.23</ele><time>2026-01-21T15:56:38.000Z</time></trkpt>
        <trkpt lat="29.5656935" lon="103.4333618"><ele>542.94</ele><time>2026-01-21T15:56:48.000Z</time></trkpt>
        <trkpt lat="29.5656987" lon="103.4332444"><ele>544.69</ele><time>2026-01-21T15:56:56.000Z</time></trkpt>
        <trkpt lat="29.5657222" lon="103.4331259"><ele>546.07</ele><time>2026-01-21T15:57:04.000Z</time></trkpt>
        <trkpt lat="29.5657164" lon="103.4330072"><ele>546.77</ele><time>2026-01-21T15:57:14.000Z</time></trkpt>
        <trkpt lat="29.5656506" lon="103.4329224"><ele>546.05</ele><time>2026-01-21T15:57:22.000Z</time></trkpt>
        <trkpt lat="29.5655901" lon="103.4328225"><ele>544.09</ele><time>2026-01-21T15:57:30.000Z</time></trkpt>
        <trkpt lat="29.5655602" lon="103.4327141"><ele>543.32</ele><time>2026-01-21T15:57:38.000Z</time></trkpt>
        <trkpt lat="29.5655319" lon="103.4326061"><ele>542.67</ele><time>2026-01-21T15:57:48.000Z</time></trkpt>
        <trkpt lat="29.5655247" lon="103.4324862"><ele>541.48</ele><time>2026-01-21T15:57:56.000Z</time></trkpt>
        <trkpt lat="29.5654884" lon="103.4323772"><ele>540.71</ele><time>2026-01-21T15:58:08.000Z</time></trkpt>
        <trkpt lat="29.5654438" lon="103.4322728"><ele>540.23</ele><time>2026-01-21T15:58:16.000Z</time></trkpt>
        <trkpt lat="29.5653969" lon="103.4321775"><ele>540.65</ele><time>2026-01-21T15:58:24.000Z</time></trkpt>
        <trkpt lat="29.5653427" lon="103.4320839"><ele>542.31</ele><time>2026-01-21T15:58:34.000Z</time></trkpt>
        <trkpt lat="29.5652939" lon="103.4319915"><ele>545.44</ele><time>2026-01-21T15:58:44.000Z</time></trkpt>
        <trkpt lat="29.5653028" lon="103.4318865"><ele>548.87</ele><time>2026-01-21T15:58:54.000Z</time></trkpt>
        <trkpt lat="29.5653455" lon="103.4317816"><ele>551.89</ele><time>2026-01-21T15:59:04.000Z</time></trkpt>
        <trkpt lat="29.5653874" lon="103.4316774"><ele>554.52</ele><time>2026-01-21T15:59:14.000Z</time></trkpt>
        <trkpt lat="29.5653874" lon="103.4316774"><ele>554.52</ele><time>2026-01-21T15:59:19.000Z</time></trkpt>
        <trkpt lat="29.5654117" lon="103.4315685"><ele>556.45</ele><time>2026-01-21T15:59:25.000Z</time></trkpt>
        <trkpt lat="29.5654117" lon="103.4315685"><ele>556.45</ele><time>2026-01-21T15:59:26.000Z</time></trkpt>
        <trkpt lat="29.5654465" lon="103.4314632"><ele>557.72</ele><time>2026-01-21T15:59:38.000Z</time></trkpt>
        <trkpt lat="29.5654789" lon="103.4313581"><ele>558.7</ele><time>2026-01-21T15:59:48.000Z</time></trkpt>
        <trkpt lat="29.5655137" lon="103.4312519"><ele>559.22</ele><time>2026-01-21T15:59:56.000Z</time></trkpt>
        <trkpt lat="29.5655353" lon="103.4311365"><ele>559.47</ele><time>2026-01-21T16:00:10.000Z</time></trkpt>
        <trkpt lat="29.5655306" lon="103.4310291"><ele>560.9</ele><time>2026-01-21T16:00:20.000Z</time></trkpt>
        <trkpt lat="29.5654731" lon="103.4309363"><ele>562.79</ele><time>2026-01-21T16:00:28.000Z</time></trkpt>
        <trkpt lat="29.5653931" lon="103.4308588"><ele>564.95</ele><time>2026-01-21T16:00:36.000Z</time></trkpt>
        <trkpt lat="29.5653387" lon="103.4307646"><ele>567.29</ele><time>2026-01-21T16:00:46.000Z</time></trkpt>
        <trkpt lat="29.5653182" lon="103.4306556"><ele>569.4</ele><time>2026-01-21T16:00:56.000Z</time></trkpt>
        <trkpt lat="29.5652941" lon="103.4305439"><ele>571.6</ele><time>2026-01-21T16:01:06.000Z</time></trkpt>
        <trkpt lat="29.5652758" lon="103.4304283"><ele>573.32</ele><time>2026-01-21T16:01:16.000Z</time></trkpt>
        <trkpt lat="29.5652728" lon="103.430302"><ele>574.34</ele><time>2026-01-21T16:01:26.000Z</time></trkpt>
        <trkpt lat="29.5652808" lon="103.4301798"><ele>574.41</ele><time>2026-01-21T16:01:38.000Z</time></trkpt>
        <trkpt lat="29.5652729" lon="103.4300688"><ele>574.53</ele><time>2026-01-21T16:01:48.000Z</time></trkpt>
        <trkpt lat="29.565248" lon="103.4299495"><ele>574.48</ele><time>2026-01-21T16:01:58.000Z</time></trkpt>
        <trkpt lat="29.5651957" lon="103.4298393"><ele>573.97</ele><time>2026-01-21T16:02:08.000Z</time></trkpt>
        <trkpt lat="29.5651683" lon="103.4297201"><ele>573.08</ele><time>2026-01-21T16:02:18.000Z</time></trkpt>
        <trkpt lat="29.5651195" lon="103.4296072"><ele>572.06</ele><time>2026-01-21T16:02:28.000Z</time></trkpt>
        <trkpt lat="29.5650614" lon="103.4295069"><ele>571.17</ele><time>2026-01-21T16:02:38.000Z</time></trkpt>
        <trkpt lat="29.5649921" lon="103.4294147"><ele>570.75</ele><time>2026-01-21T16:02:48.000Z</time></trkpt>
        <trkpt lat="29.5649461" lon="103.429306"><ele>570.6</ele><time>2026-01-21T16:02:58.000Z</time></trkpt>
        <trkpt lat="29.5649348" lon="103.4291816"><ele>570.77</ele><time>2026-01-21T16:03:08.000Z</time></trkpt>
        <trkpt lat="29.5649079" lon="103.4290632"><ele>570.74</ele><time>2026-01-21T16:03:18.000Z</time></trkpt>
        <trkpt lat="29.564892" lon="103.4289481"><ele>570.77</ele><time>2026-01-21T16:03:26.000Z</time></trkpt>
        <trkpt lat="29.5648784" lon="103.4288319"><ele>571.04</ele><time>2026-01-21T16:03:36.000Z</time></trkpt>
        <trkpt lat="29.5648549" lon="103.428729"><ele>571.8</ele><time>2026-01-21T16:03:44.000Z</time></trkpt>
        <trkpt lat="29.5648549" lon="103.428729"><ele>571.8</ele><time>2026-01-21T16:03:45.000Z</time></trkpt>
        <trkpt lat="29.564856" lon="103.4286211"><ele>572.92</ele><time>2026-01-21T16:03:47.000Z</time></trkpt>
        <trkpt lat="29.564856" lon="103.4286211"><ele>572.92</ele><time>2026-01-21T16:03:58.000Z</time></trkpt>
        <trkpt lat="29.5648438" lon="103.4285093"><ele>574.89</ele><time>2026-01-21T16:04:08.000Z</time></trkpt>
        <trkpt lat="29.5648982" lon="103.4284273"><ele>577.82</ele><time>2026-01-21T16:04:18.000Z</time></trkpt>
        <trkpt lat="29.5649821" lon="103.4283501"><ele>582.16</ele><time>2026-01-21T16:04:26.000Z</time></trkpt>
        <trkpt lat="29.5650743" lon="103.4282894"><ele>585.74</ele><time>2026-01-21T16:04:36.000Z</time></trkpt>
        <trkpt lat="29.565166" lon="103.4282299"><ele>589.64</ele><time>2026-01-21T16:04:46.000Z</time></trkpt>
        <trkpt lat="29.565249" lon="103.4281743"><ele>594.01</ele><time>2026-01-21T16:04:54.000Z</time></trkpt>
        <trkpt lat="29.5653251" lon="103.4280993"><ele>597.96</ele><time>2026-01-21T16:05:04.000Z</time></trkpt>
        <trkpt lat="29.5653935" lon="103.4280015"><ele>601.51</ele><time>2026-01-21T16:05:14.000Z</time></trkpt>
        <trkpt lat="29.5654431" lon="103.4278998"><ele>604.47</ele><time>2026-01-21T16:05:26.000Z</time></trkpt>
        <trkpt lat="29.5654413" lon="103.4277934"><ele>606.42</ele><time>2026-01-21T16:05:36.000Z</time></trkpt>
        <trkpt lat="29.5654146" lon="103.42769"><ele>606.07</ele><time>2026-01-21T16:05:46.000Z</time></trkpt>
        <trkpt lat="29.5653897" lon="103.4275836"><ele>605.22</ele><time>2026-01-21T16:05:54.000Z</time></trkpt>
        <trkpt lat="29.5653563" lon="103.4274688"><ele>604.01</ele><time>2026-01-21T16:06:02.000Z</time></trkpt>
        <trkpt lat="29.5653152" lon="103.4273575"><ele>602.67</ele><time>2026-01-21T16:06:12.000Z</time></trkpt>
        <trkpt lat="29.5652675" lon="103.4272557"><ele>601.78</ele><time>2026-01-21T16:06:22.000Z</time></trkpt>
        <trkpt lat="29.5652285" lon="103.4271461"><ele>601.79</ele><time>2026-01-21T16:06:36.000Z</time></trkpt>
        <trkpt lat="29.5651561" lon="103.4270596"><ele>602.52</ele><time>2026-01-21T16:06:46.000Z</time></trkpt>
        <trkpt lat="29.5650741" lon="103.4269993"><ele>603.98</ele><time>2026-01-21T16:06:54.000Z</time></trkpt>
        <trkpt lat="29.5649942" lon="103.4269436"><ele>605.32</ele><time>2026-01-21T16:07:04.000Z</time></trkpt>
        <trkpt lat="29.5649277" lon="103.4268674"><ele>605.87</ele><time>2026-01-21T16:07:14.000Z</time></trkpt>
        <trkpt lat="29.5649183" lon="103.4267525"><ele>605.63</ele><time>2026-01-21T16:07:24.000Z</time></trkpt>
        <trkpt lat="29.5649731" lon="103.4266651"><ele>604.8</ele><time>2026-01-21T16:07:36.000Z</time></trkpt>
        <trkpt lat="29.5650706" lon="103.4266414"><ele>603.94</ele><time>2026-01-21T16:08:00.000Z</time></trkpt>
        <trkpt lat="29.5651384" lon="103.4265706"><ele>604.57</ele><time>2026-01-21T16:08:08.000Z</time></trkpt>
        <trkpt lat="29.5651212" lon="103.4264715"><ele>604.54</ele><time>2026-01-21T16:08:18.000Z</time></trkpt>
        <trkpt lat="29.5650394" lon="103.4264102"><ele>603.58</ele><time>2026-01-21T16:08:26.000Z</time></trkpt>
        <trkpt lat="29.5650796" lon="103.4264273"><ele>602.9</ele><time>2026-01-21T16:08:32.000Z</time></trkpt>
        <trkpt lat="29.5652583" lon="103.4263283"><ele>602.12</ele><time>2026-01-21T16:09:35.000Z</time></trkpt>
        <trkpt lat="29.5651667" lon="103.4264133"><ele>620.65</ele><time>2026-01-21T16:09:45.000Z</time></trkpt>
        <trkpt lat="29.5652541" lon="103.4264504"><ele>637.19</ele><time>2026-01-21T16:10:11.000Z</time></trkpt>
        <trkpt lat="29.5652137" lon="103.4264223"><ele>630.1</ele><time>2026-01-21T16:10:29.000Z</time></trkpt>
        <trkpt lat="29.5652137" lon="103.4264223"><ele>630.1</ele><time>2026-01-21T16:10:45.000Z</time></trkpt>
        <trkpt lat="29.5651293" lon="103.4264013"><ele>625.58</ele><time>2026-01-21T16:10:47.000Z</time></trkpt>
        <trkpt lat="29.5651293" lon="103.4264013"><ele>625.58</ele><time>2026-01-21T16:10:47.000Z</time></trkpt>
        <trkpt lat="29.5651467" lon="103.4264516"><ele>620.51</ele><time>2026-01-21T16:11:37.000Z</time></trkpt>
        <trkpt lat="29.5652413" lon="103.4264776"><ele>618.83</ele><time>2026-01-21T16:12:01.000Z</time></trkpt>
        <trkpt lat="29.5652003" lon="103.4265732"><ele>617.53</ele><time>2026-01-21T16:12:17.000Z</time></trkpt>
        <trkpt lat="29.5651386" lon="103.4266754"><ele>615.97</ele><time>2026-01-21T16:12:23.000Z</time></trkpt>
        <trkpt lat="29.5650422" lon="103.4266959"><ele>614.22</ele><time>2026-01-21T16:12:35.000Z</time></trkpt>
        <trkpt lat="29.5649916" lon="103.4266141"><ele>610.81</ele><time>2026-01-21T16:13:09.000Z</time></trkpt>
        <trkpt lat="29.5650141" lon="103.4265031"><ele>609.73</ele><time>2026-01-21T16:13:27.000Z</time></trkpt>
        <trkpt lat="29.5650288" lon="103.4263824"><ele>610.79</ele><time>2026-01-21T16:13:47.000Z</time></trkpt>
        <trkpt lat="29.5650552" lon="103.42627"><ele>611.91</ele><time>2026-01-21T16:14:05.000Z</time></trkpt>
        <trkpt lat="29.5650953" lon="103.4261639"><ele>615.82</ele><time>2026-01-21T16:14:25.000Z</time></trkpt>
        <trkpt lat="29.5651274" lon="103.4260604"><ele>620.76</ele><time>2026-01-21T16:14:49.000Z</time></trkpt>
        <trkpt lat="29.5651576" lon="103.4259519"><ele>627.92</ele><time>2026-01-21T16:15:13.000Z</time></trkpt>
        <trkpt lat="29.5651679" lon="103.4258466"><ele>632.08</ele><time>2026-01-21T16:15:32.000Z</time></trkpt>
        <trkpt lat="29.565152" lon="103.425739"><ele>636.22</ele><time>2026-01-21T16:16:08.000Z</time></trkpt>
        <trkpt lat="29.5651187" lon="103.4256181"><ele>640.38</ele><time>2026-01-21T16:16:16.000Z</time></trkpt>
        <trkpt lat="29.5650536" lon="103.4255238"><ele>643.57</ele><time>2026-01-21T16:16:26.000Z</time></trkpt>
        <trkpt lat="29.5649901" lon="103.4254261"><ele>646.73</ele><time>2026-01-21T16:16:34.000Z</time></trkpt>
        <trkpt lat="29.5649363" lon="103.4253362"><ele>649.77</ele><time>2026-01-21T16:16:42.000Z</time></trkpt>
        <trkpt lat="29.5648598" lon="103.4252551"><ele>652.75</ele><time>2026-01-21T16:16:52.000Z</time></trkpt>
        <trkpt lat="29.5647841" lon="103.4251615"><ele>654.92</ele><time>2026-01-21T16:17:02.000Z</time></trkpt>
        <trkpt lat="29.5647338" lon="103.4250626"><ele>655.9</ele><time>2026-01-21T16:17:16.000Z</time></trkpt>
        <trkpt lat="29.5647447" lon="103.4249594"><ele>655.73</ele><time>2026-01-21T16:17:32.000Z</time></trkpt>
        <trkpt lat="29.5647345" lon="103.4248552"><ele>654.3</ele><time>2026-01-21T16:17:42.000Z</time></trkpt>
        <trkpt lat="29.5646863" lon="103.4247622"><ele>652.88</ele><time>2026-01-21T16:17:54.000Z</time></trkpt>
        <trkpt lat="29.5646863" lon="103.4247622"><ele>652.88</ele><time>2026-01-21T16:18:15.000Z</time></trkpt>
        <trkpt lat="29.5646609" lon="103.4246549"><ele>652.2</ele><time>2026-01-21T16:18:21.000Z</time></trkpt>
        <trkpt lat="29.5646609" lon="103.4246549"><ele>652.2</ele><time>2026-01-21T16:18:24.000Z</time></trkpt>
        <trkpt lat="29.5646755" lon="103.424552"><ele>651.94</ele><time>2026-01-21T16:18:38.000Z</time></trkpt>
        <trkpt lat="29.5646629" lon="103.4244424"><ele>652.1</ele><time>2026-01-21T16:18:50.000Z</time></trkpt>
        <trkpt lat="29.5646544" lon="103.4243341"><ele>652.61</ele><time>2026-01-21T16:19:02.000Z</time></trkpt>
        <trkpt lat="29.5645948" lon="103.4242431"><ele>654.11</ele><time>2026-01-21T16:19:24.000Z</time></trkpt>
        <trkpt lat="29.5645492" lon="103.4241484"><ele>657.12</ele><time>2026-01-21T16:19:40.000Z</time></trkpt>
        <trkpt lat="29.564495" lon="103.4240641"><ele>659.86</ele><time>2026-01-21T16:19:58.000Z</time></trkpt>
        <trkpt lat="29.5644297" lon="103.423992"><ele>661.99</ele><time>2026-01-21T16:20:10.000Z</time></trkpt>
        <trkpt lat="29.5643711" lon="103.4239137"><ele>664.19</ele><time>2026-01-21T16:20:26.000Z</time></trkpt>
        <trkpt lat="29.5643386" lon="103.4238196"><ele>667.68</ele><time>2026-01-21T16:20:36.000Z</time></trkpt>
        <trkpt lat="29.5643184" lon="103.4237156"><ele>671.69</ele><time>2026-01-21T16:20:52.000Z</time></trkpt>
        <trkpt lat="29.56433" lon="103.4236002"><ele>676.34</ele><time>2026-01-21T16:21:04.000Z</time></trkpt>
        <trkpt lat="29.5643933" lon="103.4235089"><ele>680.28</ele><time>2026-01-21T16:21:14.000Z</time></trkpt>
        <trkpt lat="29.5644429" lon="103.4234102"><ele>683.34</ele><time>2026-01-21T16:21:24.000Z</time></trkpt>
        <trkpt lat="29.5644734" lon="103.4232929"><ele>685.69</ele><time>2026-01-21T16:21:44.000Z</time></trkpt>
        <trkpt lat="29.5645066" lon="103.4231751"><ele>688.83</ele><time>2026-01-21T16:21:58.000Z</time></trkpt>
        <trkpt lat="29.5645112" lon="103.4230657"><ele>691.62</ele><time>2026-01-21T16:22:12.000Z</time></trkpt>
        <trkpt lat="29.5645039" lon="103.42296"><ele>694.58</ele><time>2026-01-21T16:22:30.000Z</time></trkpt>
        <trkpt lat="29.5645253" lon="103.4228504"><ele>698.72</ele><time>2026-01-21T16:22:44.000Z</time></trkpt>
        <trkpt lat="29.5645172" lon="103.4227466"><ele>701.89</ele><time>2026-01-21T16:23:00.000Z</time></trkpt>
        <trkpt lat="29.5644513" lon="103.4226663"><ele>704.13</ele><time>2026-01-21T16:23:10.000Z</time></trkpt>
        <trkpt lat="29.564403" lon="103.422573"><ele>705.54</ele><time>2026-01-21T16:23:26.000Z</time></trkpt>
        <trkpt lat="29.564395" lon="103.4224698"><ele>707.2</ele><time>2026-01-21T16:23:46.000Z</time></trkpt>
        <trkpt lat="29.5643891" lon="103.4223604"><ele>708.96</ele><time>2026-01-21T16:24:04.000Z</time></trkpt>
        <trkpt lat="29.5643959" lon="103.4222429"><ele>709.67</ele><time>2026-01-21T16:24:28.000Z</time></trkpt>
        <trkpt lat="29.5643952" lon="103.4221295"><ele>712.13</ele><time>2026-01-21T16:24:44.000Z</time></trkpt>
        <trkpt lat="29.564358" lon="103.4220245"><ele>715.6</ele><time>2026-01-21T16:25:00.000Z</time></trkpt>
        <trkpt lat="29.5643297" lon="103.4219227"><ele>719</ele><time>2026-01-21T16:25:20.000Z</time></trkpt>
        <trkpt lat="29.5643297" lon="103.4219227"><ele>719</ele><time>2026-01-21T16:25:53.000Z</time></trkpt>
        <trkpt lat="29.5643297" lon="103.4219227"><ele>719</ele><time>2026-01-21T16:26:23.000Z</time></trkpt>
        <trkpt lat="29.5643297" lon="103.4219227"><ele>719</ele><time>2026-01-21T16:26:45.000Z</time></trkpt>
        <trkpt lat="29.5643297" lon="103.4219227"><ele>719</ele><time>2026-01-21T16:26:49.000Z</time></trkpt>
        <trkpt lat="29.5643297" lon="103.4219227"><ele>719</ele><time>2026-01-21T16:27:03.000Z</time></trkpt>
        <trkpt lat="29.5643297" lon="103.4219227"><ele>719</ele><time>2026-01-21T16:27:09.000Z</time></trkpt>
        <trkpt lat="29.5643297" lon="103.4219227"><ele>719</ele><time>2026-01-21T16:27:27.000Z</time></trkpt>
        <trkpt lat="29.5643297" lon="103.4219227"><ele>719</ele><time>2026-01-21T16:27:33.000Z</time></trkpt>
        <trkpt lat="29.5643297" lon="103.4219227"><ele>719</ele><time>2026-01-21T16:27:49.000Z</time></trkpt>
        <trkpt lat="29.5643297" lon="103.4219227"><ele>719</ele><time>2026-01-21T16:28:17.000Z</time></trkpt>
        <trkpt lat="29.5643297" lon="103.4219227"><ele>719</ele><time>2026-01-21T16:28:33.000Z</time></trkpt>
        <trkpt lat="29.5643297" lon="103.4219227"><ele>719</ele><time>2026-01-21T16:28:57.000Z</time></trkpt>
        <trkpt lat="29.5643297" lon="103.4219227"><ele>719</ele><time>2026-01-21T16:29:23.000Z</time></trkpt>
        <trkpt lat="29.5643583" lon="103.4218117"><ele>721.8</ele><time>2026-01-21T16:30:03.000Z</time></trkpt>
        <trkpt lat="29.5643583" lon="103.4218117"><ele>721.8</ele><time>2026-01-21T16:30:32.000Z</time></trkpt>
        <trkpt lat="29.5643817" lon="103.4216617"><ele>727.43</ele><time>2026-01-21T16:31:02.000Z</time></trkpt>
        <trkpt lat="29.5643768" lon="103.4215413"><ele>732.49</ele><time>2026-01-21T16:31:18.000Z</time></trkpt>
        <trkpt lat="29.5643283" lon="103.4214429"><ele>736.33</ele><time>2026-01-21T16:31:36.000Z</time></trkpt>
        <trkpt lat="29.5643514" lon="103.4213427"><ele>739.63</ele><time>2026-01-21T16:32:04.000Z</time></trkpt>
        <trkpt lat="29.5644356" lon="103.4212896"><ele>744.3</ele><time>2026-01-21T16:32:14.000Z</time></trkpt>
        <trkpt lat="29.5645277" lon="103.4212392"><ele>748.09</ele><time>2026-01-21T16:32:26.000Z</time></trkpt>
        <trkpt lat="29.5646168" lon="103.4211553"><ele>751.58</ele><time>2026-01-21T16:32:40.000Z</time></trkpt>
        <trkpt lat="29.5647095" lon="103.4211313"><ele>754.56</ele><time>2026-01-21T16:32:58.000Z</time></trkpt>
        <trkpt lat="29.5647833" lon="103.4211965"><ele>756.77</ele><time>2026-01-21T16:33:10.000Z</time></trkpt>
        <trkpt lat="29.5648631" lon="103.4212701"><ele>758.03</ele><time>2026-01-21T16:33:28.000Z</time></trkpt>
        <trkpt lat="29.5649444" lon="103.4213417"><ele>759.35</ele><time>2026-01-21T16:33:50.000Z</time></trkpt>
        <trkpt lat="29.5650337" lon="103.4213623"><ele>762.21</ele><time>2026-01-21T16:34:18.000Z</time></trkpt>
        <trkpt lat="29.5651258" lon="103.4213374"><ele>766.38</ele><time>2026-01-21T16:34:32.000Z</time></trkpt>
        <trkpt lat="29.5652147" lon="103.4213026"><ele>769.36</ele><time>2026-01-21T16:34:54.000Z</time></trkpt>
        <trkpt lat="29.5653309" lon="103.4212551"><ele>772.56</ele><time>2026-01-21T16:35:24.000Z</time></trkpt>
        <trkpt lat="29.5653309" lon="103.4212551"><ele>772.56</ele><time>2026-01-21T16:36:35.000Z</time></trkpt>
        <trkpt lat="29.5653309" lon="103.4212551"><ele>772.56</ele><time>2026-01-21T16:36:39.000Z</time></trkpt>
        <trkpt lat="29.5653309" lon="103.4212551"><ele>772.56</ele><time>2026-01-21T16:37:05.000Z</time></trkpt>
        <trkpt lat="29.5654217" lon="103.4211683"><ele>776.28</ele><time>2026-01-21T16:38:05.000Z</time></trkpt>
        <trkpt lat="29.5654217" lon="103.4211683"><ele>776.28</ele><time>2026-01-21T16:38:52.000Z</time></trkpt>
        <trkpt lat="29.5655133" lon="103.4211333"><ele>779.94</ele><time>2026-01-21T16:39:00.000Z</time></trkpt>
        <trkpt lat="29.5656078" lon="103.4211096"><ele>782.68</ele><time>2026-01-21T16:39:10.000Z</time></trkpt>
        <trkpt lat="29.5657092" lon="103.421102"><ele>785.18</ele><time>2026-01-21T16:39:20.000Z</time></trkpt>
        <trkpt lat="29.5658116" lon="103.4211059"><ele>787.51</ele><time>2026-01-21T16:39:28.000Z</time></trkpt>
        <trkpt lat="29.5659065" lon="103.4210881"><ele>788.54</ele><time>2026-01-21T16:39:38.000Z</time></trkpt>
        <trkpt lat="29.565996" lon="103.4211001"><ele>788.87</ele><time>2026-01-21T16:39:48.000Z</time></trkpt>
        <trkpt lat="29.5660786" lon="103.4211498"><ele>789.44</ele><time>2026-01-21T16:40:10.000Z</time></trkpt>
        <trkpt lat="29.5661655" lon="103.4211443"><ele>792</ele><time>2026-01-21T16:40:20.000Z</time></trkpt>
        <trkpt lat="29.5662233" lon="103.4210733"><ele>794.11</ele><time>2026-01-21T16:40:30.000Z</time></trkpt>
        <trkpt lat="29.5662704" lon="103.4209761"><ele>795.4</ele><time>2026-01-21T16:40:40.000Z</time></trkpt>
        <trkpt lat="29.5662828" lon="103.4208588"><ele>796.17</ele><time>2026-01-21T16:40:52.000Z</time></trkpt>
        <trkpt lat="29.566329" lon="103.4207554"><ele>797.22</ele><time>2026-01-21T16:41:44.000Z</time></trkpt>
        <trkpt lat="29.5663477" lon="103.4206363"><ele>798.89</ele><time>2026-01-21T16:41:52.000Z</time></trkpt>
        <trkpt lat="29.5663584" lon="103.4205238"><ele>798.63</ele><time>2026-01-21T16:42:00.000Z</time></trkpt>
        <trkpt lat="29.566405" lon="103.4204249"><ele>797.89</ele><time>2026-01-21T16:42:12.000Z</time></trkpt>
        <trkpt lat="29.5664696" lon="103.4203227"><ele>796.9</ele><time>2026-01-21T16:42:22.000Z</time></trkpt>
        <trkpt lat="29.5665319" lon="103.4202336"><ele>796.3</ele><time>2026-01-21T16:42:28.000Z</time></trkpt>
        <trkpt lat="29.5665967" lon="103.4201455"><ele>796.08</ele><time>2026-01-21T16:42:38.000Z</time></trkpt>
        <trkpt lat="29.5666415" lon="103.4200369"><ele>796.18</ele><time>2026-01-21T16:42:48.000Z</time></trkpt>
        <trkpt lat="29.5666685" lon="103.4199304"><ele>796.96</ele><time>2026-01-21T16:42:56.000Z</time></trkpt>
        <trkpt lat="29.5667073" lon="103.4198481"><ele>797.67</ele><time>2026-01-21T16:43:12.000Z</time></trkpt>
        <trkpt lat="29.5667831" lon="103.4198526"><ele>798.2</ele><time>2026-01-21T16:43:30.000Z</time></trkpt>
        <trkpt lat="29.5668712" lon="103.4198952"><ele>798.89</ele><time>2026-01-21T16:43:46.000Z</time></trkpt>
        <trkpt lat="29.5669357" lon="103.4199889"><ele>799.8</ele><time>2026-01-21T16:44:02.000Z</time></trkpt>
        <trkpt lat="29.5670022" lon="103.4200751"><ele>801.48</ele><time>2026-01-21T16:44:24.000Z</time></trkpt>
        <trkpt lat="29.567001" lon="103.4201957"><ele>803.89</ele><time>2026-01-21T16:44:58.000Z</time></trkpt>
        <trkpt lat="29.5670165" lon="103.4203051"><ele>809.58</ele><time>2026-01-21T16:45:18.000Z</time></trkpt>
        <trkpt lat="29.5670582" lon="103.4203998"><ele>811.56</ele><time>2026-01-21T16:45:34.000Z</time></trkpt>
        <trkpt lat="29.5671304" lon="103.4204629"><ele>813.09</ele><time>2026-01-21T16:45:50.000Z</time></trkpt>
        <trkpt lat="29.5672256" lon="103.4204784"><ele>814.12</ele><time>2026-01-21T16:46:06.000Z</time></trkpt>
        <trkpt lat="29.5673232" lon="103.4204796"><ele>815.32</ele><time>2026-01-21T16:46:20.000Z</time></trkpt>
        <trkpt lat="29.5674156" lon="103.4205055"><ele>816.9</ele><time>2026-01-21T16:46:44.000Z</time></trkpt>
        <trkpt lat="29.5674796" lon="103.4204441"><ele>819.27</ele><time>2026-01-21T16:47:04.000Z</time></trkpt>
        <trkpt lat="29.5675591" lon="103.4203885"><ele>822.25</ele><time>2026-01-21T16:47:20.000Z</time></trkpt>
        <trkpt lat="29.567643" lon="103.4203411"><ele>825.45</ele><time>2026-01-21T16:47:34.000Z</time></trkpt>
        <trkpt lat="29.5677322" lon="103.4202877"><ele>829.13</ele><time>2026-01-21T16:47:50.000Z</time></trkpt>
        <trkpt lat="29.5678042" lon="103.4202165"><ele>832.95</ele><time>2026-01-21T16:48:04.000Z</time></trkpt>
        <trkpt lat="29.5678895" lon="103.4201659"><ele>836.84</ele><time>2026-01-21T16:48:20.000Z</time></trkpt>
        <trkpt lat="29.5679766" lon="103.4201304"><ele>840.61</ele><time>2026-01-21T16:48:34.000Z</time></trkpt>
        <trkpt lat="29.5680715" lon="103.4200987"><ele>844.3</ele><time>2026-01-21T16:48:56.000Z</time></trkpt>
        <trkpt lat="29.5681639" lon="103.4200887"><ele>848.17</ele><time>2026-01-21T16:49:14.000Z</time></trkpt>
        <trkpt lat="29.5682587" lon="103.4200696"><ele>851.58</ele><time>2026-01-21T16:49:32.000Z</time></trkpt>
        <trkpt lat="29.5683528" lon="103.4200706"><ele>855.12</ele><time>2026-01-21T16:49:50.000Z</time></trkpt>
        <trkpt lat="29.5684453" lon="103.4200698"><ele>858.94</ele><time>2026-01-21T16:50:10.000Z</time></trkpt>
        <trkpt lat="29.5685383" lon="103.4200633"><ele>863.22</ele><time>2026-01-21T16:50:28.000Z</time></trkpt>
        <trkpt lat="29.5686328" lon="103.420063"><ele>867.6</ele><time>2026-01-21T16:50:46.000Z</time></trkpt>
        <trkpt lat="29.5687229" lon="103.4200248"><ele>872.89</ele><time>2026-01-21T16:51:02.000Z</time></trkpt>
        <trkpt lat="29.5688125" lon="103.4199837"><ele>877.02</ele><time>2026-01-21T16:51:54.000Z</time></trkpt>
        <trkpt lat="29.5689033" lon="103.4199384"><ele>880.11</ele><time>2026-01-21T16:52:12.000Z</time></trkpt>
        <trkpt lat="29.5689873" lon="103.4198715"><ele>881.53</ele><time>2026-01-21T16:52:22.000Z</time></trkpt>
        <trkpt lat="29.56907" lon="103.4198189"><ele>883.28</ele><time>2026-01-21T16:52:30.000Z</time></trkpt>
        <trkpt lat="29.5691601" lon="103.4197805"><ele>884.92</ele><time>2026-01-21T16:52:38.000Z</time></trkpt>
        <trkpt lat="29.5692469" lon="103.4197363"><ele>886.63</ele><time>2026-01-21T16:52:48.000Z</time></trkpt>
        <trkpt lat="29.569331" lon="103.4196703"><ele>887.48</ele><time>2026-01-21T16:53:00.000Z</time></trkpt>
        <trkpt lat="29.5694217" lon="103.4196189"><ele>887.57</ele><time>2026-01-21T16:53:08.000Z</time></trkpt>
        <trkpt lat="29.5694987" lon="103.4195464"><ele>886.6</ele><time>2026-01-21T16:53:16.000Z</time></trkpt>
        <trkpt lat="29.5695741" lon="103.4194535"><ele>884.88</ele><time>2026-01-21T16:53:26.000Z</time></trkpt>
        <trkpt lat="29.5696521" lon="103.4193792"><ele>882.61</ele><time>2026-01-21T16:53:34.000Z</time></trkpt>
        <trkpt lat="29.5697164" lon="103.4192771"><ele>881.27</ele><time>2026-01-21T16:53:44.000Z</time></trkpt>
        <trkpt lat="29.5697646" lon="103.4191773"><ele>879.82</ele><time>2026-01-21T16:53:52.000Z</time></trkpt>
        <trkpt lat="29.5697637" lon="103.4190559"><ele>878.61</ele><time>2026-01-21T16:54:00.000Z</time></trkpt>
        <trkpt lat="29.5697626" lon="103.418936"><ele>878.35</ele><time>2026-01-21T16:54:08.000Z</time></trkpt>
        <trkpt lat="29.569771" lon="103.4188108"><ele>879.06</ele><time>2026-01-21T16:54:18.000Z</time></trkpt>
        <trkpt lat="29.5697809" lon="103.4186905"><ele>880.15</ele><time>2026-01-21T16:54:26.000Z</time></trkpt>
        <trkpt lat="29.5698081" lon="103.4185778"><ele>880.39</ele><time>2026-01-21T16:54:34.000Z</time></trkpt>
        <trkpt lat="29.569838" lon="103.4184691"><ele>880.56</ele><time>2026-01-21T16:54:42.000Z</time></trkpt>
        <trkpt lat="29.5698329" lon="103.4183641"><ele>880.75</ele><time>2026-01-21T16:54:50.000Z</time></trkpt>
        <trkpt lat="29.5698233" lon="103.4182513"><ele>880.08</ele><time>2026-01-21T16:55:00.000Z</time></trkpt>
        <trkpt lat="29.5698386" lon="103.4181351"><ele>879.1</ele><time>2026-01-21T16:55:10.000Z</time></trkpt>
        <trkpt lat="29.5698829" lon="103.4180392"><ele>878.58</ele><time>2026-01-21T16:55:18.000Z</time></trkpt>
        <trkpt lat="29.569932" lon="103.4179448"><ele>878.2</ele><time>2026-01-21T16:55:26.000Z</time></trkpt>
        <trkpt lat="29.5699858" lon="103.4178424"><ele>877.9</ele><time>2026-01-21T16:55:34.000Z</time></trkpt>
        <trkpt lat="29.5700301" lon="103.4177303"><ele>877.43</ele><time>2026-01-21T16:55:42.000Z</time></trkpt>
        <trkpt lat="29.5700436" lon="103.4176235"><ele>876.99</ele><time>2026-01-21T16:55:50.000Z</time></trkpt>
        <trkpt lat="29.5700233" lon="103.417518"><ele>875.96</ele><time>2026-01-21T16:55:58.000Z</time></trkpt>
        <trkpt lat="29.5700136" lon="103.417413"><ele>875.2</ele><time>2026-01-21T16:56:04.000Z</time></trkpt>
        <trkpt lat="29.5700119" lon="103.4172981"><ele>874.69</ele><time>2026-01-21T16:56:12.000Z</time></trkpt>
        <trkpt lat="29.5700377" lon="103.417187"><ele>874.69</ele><time>2026-01-21T16:56:20.000Z</time></trkpt>
        <trkpt lat="29.5700948" lon="103.4170817"><ele>874.78</ele><time>2026-01-21T16:56:28.000Z</time></trkpt>
        <trkpt lat="29.5701895" lon="103.417036"><ele>873.93</ele><time>2026-01-21T16:56:36.000Z</time></trkpt>
        <trkpt lat="29.5703029" lon="103.4170257"><ele>872.88</ele><time>2026-01-21T16:56:46.000Z</time></trkpt>
        <trkpt lat="29.5703697" lon="103.4169522"><ele>871.77</ele><time>2026-01-21T16:56:54.000Z</time></trkpt>
        <trkpt lat="29.570374" lon="103.4168469"><ele>871.31</ele><time>2026-01-21T16:57:04.000Z</time></trkpt>
        <trkpt lat="29.5703679" lon="103.4167252"><ele>870.32</ele><time>2026-01-21T16:57:12.000Z</time></trkpt>
        <trkpt lat="29.5703707" lon="103.416595"><ele>870.18</ele><time>2026-01-21T16:57:22.000Z</time></trkpt>
        <trkpt lat="29.5703706" lon="103.4164764"><ele>870.1</ele><time>2026-01-21T16:57:30.000Z</time></trkpt>
        <trkpt lat="29.5703767" lon="103.4163601"><ele>869.8</ele><time>2026-01-21T16:57:38.000Z</time></trkpt>
        <trkpt lat="29.5703857" lon="103.4162384"><ele>869.97</ele><time>2026-01-21T16:57:48.000Z</time></trkpt>
        <trkpt lat="29.5704559" lon="103.4161537"><ele>869.86</ele><time>2026-01-21T16:58:00.000Z</time></trkpt>
        <trkpt lat="29.5705483" lon="103.4161053"><ele>868.84</ele><time>2026-01-21T16:58:08.000Z</time></trkpt>
        <trkpt lat="29.5706441" lon="103.4160759"><ele>869.08</ele><time>2026-01-21T16:58:22.000Z</time></trkpt>
        <trkpt lat="29.5707219" lon="103.416014"><ele>870.9</ele><time>2026-01-21T16:58:42.000Z</time></trkpt>
        <trkpt lat="29.5707136" lon="103.4159227"><ele>873.74</ele><time>2026-01-21T16:58:56.000Z</time></trkpt>
        <trkpt lat="29.5706438" lon="103.4158284"><ele>877.12</ele><time>2026-01-21T16:59:06.000Z</time></trkpt>
        <trkpt lat="29.5705413" lon="103.4157713"><ele>878.7</ele><time>2026-01-21T16:59:14.000Z</time></trkpt>
        <trkpt lat="29.5704591" lon="103.415685"><ele>879.52</ele><time>2026-01-21T16:59:26.000Z</time></trkpt>
        <trkpt lat="29.5703841" lon="103.4155917"><ele>880.54</ele><time>2026-01-21T16:59:36.000Z</time></trkpt>
        <trkpt lat="29.5702982" lon="103.4155304"><ele>882.03</ele><time>2026-01-21T16:59:44.000Z</time></trkpt>
        <trkpt lat="29.5702088" lon="103.4155029"><ele>883.26</ele><time>2026-01-21T16:59:56.000Z</time></trkpt>
        <trkpt lat="29.5701101" lon="103.4154915"><ele>883.88</ele><time>2026-01-21T17:00:10.000Z</time></trkpt>
        <trkpt lat="29.5700149" lon="103.4154446"><ele>884.62</ele><time>2026-01-21T17:00:20.000Z</time></trkpt>
        <trkpt lat="29.5699393" lon="103.4153612"><ele>885.43</ele><time>2026-01-21T17:00:30.000Z</time></trkpt>
        <trkpt lat="29.5698887" lon="103.4152452"><ele>885.89</ele><time>2026-01-21T17:00:38.000Z</time></trkpt>
        <trkpt lat="29.5698613" lon="103.4151146"><ele>885.46</ele><time>2026-01-21T17:00:48.000Z</time></trkpt>
        <trkpt lat="29.5698518" lon="103.4149931"><ele>884.1</ele><time>2026-01-21T17:00:56.000Z</time></trkpt>
        <trkpt lat="29.5698115" lon="103.4148861"><ele>882.08</ele><time>2026-01-21T17:01:04.000Z</time></trkpt>
        <trkpt lat="29.569744" lon="103.4148001"><ele>881.23</ele><time>2026-01-21T17:01:12.000Z</time></trkpt>
        <trkpt lat="29.5696709" lon="103.4147316"><ele>881.22</ele><time>2026-01-21T17:01:20.000Z</time></trkpt>
        <trkpt lat="29.5695686" lon="103.4147231"><ele>881.55</ele><time>2026-01-21T17:01:30.000Z</time></trkpt>
        <trkpt lat="29.5694683" lon="103.4147574"><ele>881.06</ele><time>2026-01-21T17:01:38.000Z</time></trkpt>
        <trkpt lat="29.5693709" lon="103.4147995"><ele>879.91</ele><time>2026-01-21T17:01:46.000Z</time></trkpt>
        <trkpt lat="29.5692694" lon="103.4148373"><ele>879.13</ele><time>2026-01-21T17:01:58.000Z</time></trkpt>
        <trkpt lat="29.5691693" lon="103.4148494"><ele>878.3</ele><time>2026-01-21T17:02:14.000Z</time></trkpt>
        <trkpt lat="29.569089" lon="103.4149185"><ele>877.53</ele><time>2026-01-21T17:02:30.000Z</time></trkpt>
        <trkpt lat="29.5690824" lon="103.4148451"><ele>878.16</ele><time>2026-01-21T17:02:56.000Z</time></trkpt>
        <trkpt lat="29.569118" lon="103.4147406"><ele>878.91</ele><time>2026-01-21T17:03:04.000Z</time></trkpt>
        <trkpt lat="29.5691032" lon="103.4146362"><ele>879.51</ele><time>2026-01-21T17:03:10.000Z</time></trkpt>
        <trkpt lat="29.5690614" lon="103.4145382"><ele>880.11</ele><time>2026-01-21T17:03:18.000Z</time></trkpt>
        <trkpt lat="29.5690501" lon="103.4144176"><ele>882.77</ele><time>2026-01-21T17:03:24.000Z</time></trkpt>
        <trkpt lat="29.5690953" lon="103.4143149"><ele>886.87</ele><time>2026-01-21T17:03:32.000Z</time></trkpt>
        <trkpt lat="29.5691304" lon="103.4142042"><ele>888.73</ele><time>2026-01-21T17:03:42.000Z</time></trkpt>
        <trkpt lat="29.5691306" lon="103.4140969"><ele>886.27</ele><time>2026-01-21T17:03:50.000Z</time></trkpt>
        <trkpt lat="29.5691344" lon="103.4139875"><ele>882.84</ele><time>2026-01-21T17:03:58.000Z</time></trkpt>
        <trkpt lat="29.5691657" lon="103.4138861"><ele>878.78</ele><time>2026-01-21T17:04:06.000Z</time></trkpt>
        <trkpt lat="29.5691411" lon="103.413784"><ele>875.91</ele><time>2026-01-21T17:04:14.000Z</time></trkpt>
        <trkpt lat="29.5690973" lon="103.4136876"><ele>874.66</ele><time>2026-01-21T17:04:20.000Z</time></trkpt>
        <trkpt lat="29.5690465" lon="103.4135781"><ele>874.8</ele><time>2026-01-21T17:04:30.000Z</time></trkpt>
        <trkpt lat="29.5690103" lon="103.4134659"><ele>874.93</ele><time>2026-01-21T17:04:42.000Z</time></trkpt>
        <trkpt lat="29.5690075" lon="103.4133544"><ele>874.7</ele><time>2026-01-21T17:04:52.000Z</time></trkpt>
        <trkpt lat="29.5689943" lon="103.4132449"><ele>873.76</ele><time>2026-01-21T17:05:02.000Z</time></trkpt>
        <trkpt lat="29.5690019" lon="103.4131351"><ele>872.96</ele><time>2026-01-21T17:05:10.000Z</time></trkpt>
        <trkpt lat="29.5690517" lon="103.4130451"><ele>872.03</ele><time>2026-01-21T17:05:18.000Z</time></trkpt>
        <trkpt lat="29.5691081" lon="103.4129549"><ele>870.73</ele><time>2026-01-21T17:05:26.000Z</time></trkpt>
        <trkpt lat="29.5691827" lon="103.4128673"><ele>869.12</ele><time>2026-01-21T17:05:34.000Z</time></trkpt>
        <trkpt lat="29.5692682" lon="103.4127851"><ele>867.13</ele><time>2026-01-21T17:05:44.000Z</time></trkpt>
        <trkpt lat="29.5693631" lon="103.412722"><ele>865.66</ele><time>2026-01-21T17:05:52.000Z</time></trkpt>
        <trkpt lat="29.569411" lon="103.4126327"><ele>864.94</ele><time>2026-01-21T17:06:00.000Z</time></trkpt>
        <trkpt lat="29.5693827" lon="103.4125364"><ele>864.88</ele><time>2026-01-21T17:06:08.000Z</time></trkpt>
        <trkpt lat="29.569381" lon="103.4124318"><ele>865.92</ele><time>2026-01-21T17:06:20.000Z</time></trkpt>
        <trkpt lat="29.5693541" lon="103.4123226"><ele>867.16</ele><time>2026-01-21T17:06:32.000Z</time></trkpt>
        <trkpt lat="29.5693618" lon="103.4122188"><ele>867.52</ele><time>2026-01-21T17:06:44.000Z</time></trkpt>
        <trkpt lat="29.5693003" lon="103.4121603"><ele>865.96</ele><time>2026-01-21T17:06:58.000Z</time></trkpt>
        <trkpt lat="29.5691977" lon="103.4121434"><ele>864.09</ele><time>2026-01-21T17:07:10.000Z</time></trkpt>
        <trkpt lat="29.5690935" lon="103.4121293"><ele>862.72</ele><time>2026-01-21T17:07:22.000Z</time></trkpt>
        <trkpt lat="29.5690002" lon="103.4120763"><ele>860.77</ele><time>2026-01-21T17:07:36.000Z</time></trkpt>
        <trkpt lat="29.5689394" lon="103.411982"><ele>858.2</ele><time>2026-01-21T17:07:46.000Z</time></trkpt>
        <trkpt lat="29.5688836" lon="103.4118849"><ele>856.22</ele><time>2026-01-21T17:07:54.000Z</time></trkpt>
        <trkpt lat="29.5687931" lon="103.4118473"><ele>854.71</ele><time>2026-01-21T17:08:02.000Z</time></trkpt>
        <trkpt lat="29.5686989" lon="103.4118192"><ele>853.07</ele><time>2026-01-21T17:08:12.000Z</time></trkpt>
        <trkpt lat="29.5686021" lon="103.4117997"><ele>850.93</ele><time>2026-01-21T17:08:26.000Z</time></trkpt>
        <trkpt lat="29.5685191" lon="103.4117403"><ele>848.17</ele><time>2026-01-21T17:08:38.000Z</time></trkpt>
        <trkpt lat="29.5684505" lon="103.4116687"><ele>845.99</ele><time>2026-01-21T17:08:44.000Z</time></trkpt>
        <trkpt lat="29.568378" lon="103.4115927"><ele>843.76</ele><time>2026-01-21T17:08:52.000Z</time></trkpt>
        <trkpt lat="29.5683532" lon="103.4114752"><ele>840.72</ele><time>2026-01-21T17:09:02.000Z</time></trkpt>
        <trkpt lat="29.5683755" lon="103.4113549"><ele>836.8</ele><time>2026-01-21T17:09:10.000Z</time></trkpt>
        <trkpt lat="29.5684222" lon="103.4112464"><ele>832.93</ele><time>2026-01-21T17:09:18.000Z</time></trkpt>
        <trkpt lat="29.5684538" lon="103.4111375"><ele>829.56</ele><time>2026-01-21T17:09:26.000Z</time></trkpt>
        <trkpt lat="29.5684701" lon="103.4110212"><ele>826.57</ele><time>2026-01-21T17:09:34.000Z</time></trkpt>
        <trkpt lat="29.5684873" lon="103.4109124"><ele>824.34</ele><time>2026-01-21T17:09:42.000Z</time></trkpt>
        <trkpt lat="29.5685189" lon="103.4108105"><ele>822.78</ele><time>2026-01-21T17:09:52.000Z</time></trkpt>
        <trkpt lat="29.5685546" lon="103.4107111"><ele>822.06</ele><time>2026-01-21T17:10:00.000Z</time></trkpt>
        <trkpt lat="29.5685874" lon="103.410597"><ele>821.56</ele><time>2026-01-21T17:10:10.000Z</time></trkpt>
        <trkpt lat="29.5686234" lon="103.4104709"><ele>821.32</ele><time>2026-01-21T17:10:18.000Z</time></trkpt>
        <trkpt lat="29.5686342" lon="103.4103385"><ele>821.83</ele><time>2026-01-21T17:10:26.000Z</time></trkpt>
        <trkpt lat="29.5686417" lon="103.4102186"><ele>822.25</ele><time>2026-01-21T17:10:34.000Z</time></trkpt>
        <trkpt lat="29.5686431" lon="103.4101067"><ele>822.61</ele><time>2026-01-21T17:10:44.000Z</time></trkpt>
        <trkpt lat="29.5685866" lon="103.4100549"><ele>823.21</ele><time>2026-01-21T17:10:58.000Z</time></trkpt>
        <trkpt lat="29.5684999" lon="103.4100172"><ele>823.21</ele><time>2026-01-21T17:11:06.000Z</time></trkpt>
        <trkpt lat="29.5684181" lon="103.4099609"><ele>824.02</ele><time>2026-01-21T17:11:12.000Z</time></trkpt>
        <trkpt lat="29.5683517" lon="103.4098801"><ele>824.79</ele><time>2026-01-21T17:11:20.000Z</time></trkpt>
        <trkpt lat="29.5682889" lon="103.4097813"><ele>824.75</ele><time>2026-01-21T17:11:30.000Z</time></trkpt>
        <trkpt lat="29.5682536" lon="103.4096744"><ele>823.87</ele><time>2026-01-21T17:11:40.000Z</time></trkpt>
        <trkpt lat="29.5682307" lon="103.4095662"><ele>821.04</ele><time>2026-01-21T17:11:54.000Z</time></trkpt>
        <trkpt lat="29.5682045" lon="103.4094526"><ele>817.37</ele><time>2026-01-21T17:12:08.000Z</time></trkpt>
        <trkpt lat="29.5681605" lon="103.4093477"><ele>813.34</ele><time>2026-01-21T17:12:20.000Z</time></trkpt>
        <trkpt lat="29.5681194" lon="103.4092367"><ele>809.11</ele><time>2026-01-21T17:12:32.000Z</time></trkpt>
        <trkpt lat="29.5680713" lon="103.4091396"><ele>805.02</ele><time>2026-01-21T17:12:40.000Z</time></trkpt>
        <trkpt lat="29.5680094" lon="103.4090442"><ele>801.91</ele><time>2026-01-21T17:12:52.000Z</time></trkpt>
        <trkpt lat="29.5679556" lon="103.4089549"><ele>798.55</ele><time>2026-01-21T17:13:06.000Z</time></trkpt>
        <trkpt lat="29.5679107" lon="103.4088563"><ele>794.74</ele><time>2026-01-21T17:13:18.000Z</time></trkpt>
        <trkpt lat="29.5678842" lon="103.4087524"><ele>791.24</ele><time>2026-01-21T17:13:28.000Z</time></trkpt>
        <trkpt lat="29.5678614" lon="103.4086431"><ele>787.95</ele><time>2026-01-21T17:13:38.000Z</time></trkpt>
        <trkpt lat="29.56781" lon="103.4085572"><ele>785.22</ele><time>2026-01-21T17:13:48.000Z</time></trkpt>
        <trkpt lat="29.5677411" lon="103.4084792"><ele>782.59</ele><time>2026-01-21T17:14:00.000Z</time></trkpt>
        <trkpt lat="29.5676592" lon="103.4084155"><ele>780.44</ele><time>2026-01-21T17:14:14.000Z</time></trkpt>
        <trkpt lat="29.5675981" lon="103.4084938"><ele>777.89</ele><time>2026-01-21T17:14:24.000Z</time></trkpt>
        <trkpt lat="29.5675397" lon="103.4086065"><ele>775.4</ele><time>2026-01-21T17:14:32.000Z</time></trkpt>
        <trkpt lat="29.5674545" lon="103.4086343"><ele>774.02</ele><time>2026-01-21T17:14:40.000Z</time></trkpt>
        <trkpt lat="29.5673629" lon="103.4086022"><ele>772.94</ele><time>2026-01-21T17:14:50.000Z</time></trkpt>
        <trkpt lat="29.5672879" lon="103.4085232"><ele>770.56</ele><time>2026-01-21T17:14:56.000Z</time></trkpt>
        <trkpt lat="29.5672023" lon="103.4084761"><ele>769.41</ele><time>2026-01-21T17:15:02.000Z</time></trkpt>
        <trkpt lat="29.5671126" lon="103.408439"><ele>766.96</ele><time>2026-01-21T17:15:14.000Z</time></trkpt>
        <trkpt lat="29.5670155" lon="103.4084489"><ele>763.32</ele><time>2026-01-21T17:15:22.000Z</time></trkpt>
        <trkpt lat="29.5669099" lon="103.4084646"><ele>760.94</ele><time>2026-01-21T17:15:32.000Z</time></trkpt>
        <trkpt lat="29.5668042" lon="103.4084571"><ele>761.18</ele><time>2026-01-21T17:15:40.000Z</time></trkpt>
        <trkpt lat="29.5667032" lon="103.4084182"><ele>762.7</ele><time>2026-01-21T17:15:48.000Z</time></trkpt>
        <trkpt lat="29.5666606" lon="103.4083118"><ele>764.46</ele><time>2026-01-21T17:15:58.000Z</time></trkpt>
        <trkpt lat="29.5666894" lon="103.4082014"><ele>765.21</ele><time>2026-01-21T17:16:06.000Z</time></trkpt>
        <trkpt lat="29.5667123" lon="103.4080755"><ele>766.45</ele><time>2026-01-21T17:16:16.000Z</time></trkpt>
        <trkpt lat="29.566671" lon="103.407968"><ele>766.95</ele><time>2026-01-21T17:16:24.000Z</time></trkpt>
        <trkpt lat="29.5666325" lon="103.4079583"><ele>767.01</ele><time>2026-01-21T17:16:38.000Z</time></trkpt>
        <trkpt lat="29.5665432" lon="103.4079245"><ele>767.7</ele><time>2026-01-21T17:16:54.000Z</time></trkpt>
        <trkpt lat="29.5664389" lon="103.4079455"><ele>768.17</ele><time>2026-01-21T17:17:06.000Z</time></trkpt>
        <trkpt lat="29.5663699" lon="103.4080264"><ele>768.96</ele><time>2026-01-21T17:17:14.000Z</time></trkpt>
        <trkpt lat="29.5664228" lon="103.4080778"><ele>769.79</ele><time>2026-01-21T17:17:22.000Z</time></trkpt>
        <trkpt lat="29.5665197" lon="103.4080844"><ele>770.61</ele><time>2026-01-21T17:17:34.000Z</time></trkpt>
        <trkpt lat="29.5664892" lon="103.4080508"><ele>770.95</ele><time>2026-01-21T17:18:08.000Z</time></trkpt>
        <trkpt lat="29.5664562" lon="103.4079556"><ele>771.62</ele><time>2026-01-21T17:18:16.000Z</time></trkpt>
        <trkpt lat="29.5665035" lon="103.407851"><ele>771.95</ele><time>2026-01-21T17:18:28.000Z</time></trkpt>
        <trkpt lat="29.5665573" lon="103.4077468"><ele>771.41</ele><time>2026-01-21T17:18:36.000Z</time></trkpt>
        <trkpt lat="29.5666052" lon="103.4076459"><ele>770.76</ele><time>2026-01-21T17:18:44.000Z</time></trkpt>
        <trkpt lat="29.5666113" lon="103.4075405"><ele>769.7</ele><time>2026-01-21T17:18:54.000Z</time></trkpt>
        <trkpt lat="29.5665675" lon="103.4074503"><ele>769.31</ele><time>2026-01-21T17:19:04.000Z</time></trkpt>
        <trkpt lat="29.5664848" lon="103.4074026"><ele>769.39</ele><time>2026-01-21T17:19:20.000Z</time></trkpt>
        <trkpt lat="29.5664718" lon="103.4073037"><ele>770.52</ele><time>2026-01-21T17:19:28.000Z</time></trkpt>
        <trkpt lat="29.566462" lon="103.4071933"><ele>769.86</ele><time>2026-01-21T17:19:40.000Z</time></trkpt>
        <trkpt lat="29.5664543" lon="103.4070853"><ele>766.05</ele><time>2026-01-21T17:19:46.000Z</time></trkpt>
        <trkpt lat="29.5664363" lon="103.4069595"><ele>762.33</ele><time>2026-01-21T17:19:54.000Z</time></trkpt>
        <trkpt lat="29.5664626" lon="103.4068503"><ele>761.24</ele><time>2026-01-21T17:20:00.000Z</time></trkpt>
        <trkpt lat="29.5665343" lon="103.4067711"><ele>761.74</ele><time>2026-01-21T17:20:08.000Z</time></trkpt>
        <trkpt lat="29.56658" lon="103.4067801"><ele>763.87</ele><time>2026-01-21T17:20:30.000Z</time></trkpt>
        <trkpt lat="29.5665963" lon="103.406717"><ele>765.22</ele><time>2026-01-21T17:20:44.000Z</time></trkpt>
        <trkpt lat="29.5666439" lon="103.4066318"><ele>765.34</ele><time>2026-01-21T17:20:52.000Z</time></trkpt>
        <trkpt lat="29.5667155" lon="103.4065507"><ele>765.32</ele><time>2026-01-21T17:21:00.000Z</time></trkpt>
        <trkpt lat="29.5668061" lon="103.4064928"><ele>764.93</ele><time>2026-01-21T17:21:10.000Z</time></trkpt>
        <trkpt lat="29.566868" lon="103.406409"><ele>766.33</ele><time>2026-01-21T17:21:18.000Z</time></trkpt>
        <trkpt lat="29.5669187" lon="103.4063148"><ele>767.31</ele><time>2026-01-21T17:21:26.000Z</time></trkpt>
        <trkpt lat="29.5669732" lon="103.4062214"><ele>767.22</ele><time>2026-01-21T17:21:34.000Z</time></trkpt>
        <trkpt lat="29.5670263" lon="103.4061245"><ele>766.95</ele><time>2026-01-21T17:21:42.000Z</time></trkpt>
        <trkpt lat="29.5670866" lon="103.4060255"><ele>766.89</ele><time>2026-01-21T17:21:50.000Z</time></trkpt>
        <trkpt lat="29.5671498" lon="103.405935"><ele>765.95</ele><time>2026-01-21T17:22:00.000Z</time></trkpt>
        <trkpt lat="29.5671674" lon="103.4058292"><ele>764.55</ele><time>2026-01-21T17:22:06.000Z</time></trkpt>
        <trkpt lat="29.5671481" lon="103.4057137"><ele>763.07</ele><time>2026-01-21T17:22:14.000Z</time></trkpt>
        <trkpt lat="29.5670774" lon="103.4056355"><ele>763.17</ele><time>2026-01-21T17:22:24.000Z</time></trkpt>
        <trkpt lat="29.5669938" lon="103.4055368"><ele>763.57</ele><time>2026-01-21T17:22:32.000Z</time></trkpt>
        <trkpt lat="29.5669088" lon="103.4054578"><ele>763.45</ele><time>2026-01-21T17:22:38.000Z</time></trkpt>
        <trkpt lat="29.5668389" lon="103.4053737"><ele>763.56</ele><time>2026-01-21T17:22:46.000Z</time></trkpt>
        <trkpt lat="29.5667775" lon="103.4052906"><ele>763.75</ele><time>2026-01-21T17:22:54.000Z</time></trkpt>
        <trkpt lat="29.5667543" lon="103.4051664"><ele>762.91</ele><time>2026-01-21T17:23:02.000Z</time></trkpt>
        <trkpt lat="29.5668274" lon="103.4051159"><ele>761.62</ele><time>2026-01-21T17:23:14.000Z</time></trkpt>
        <trkpt lat="29.5669283" lon="103.405112"><ele>759.89</ele><time>2026-01-21T17:23:22.000Z</time></trkpt>
        <trkpt lat="29.5670404" lon="103.4050997"><ele>757.79</ele><time>2026-01-21T17:23:30.000Z</time></trkpt>
        <trkpt lat="29.5671578" lon="103.405069"><ele>755.43</ele><time>2026-01-21T17:23:38.000Z</time></trkpt>
        <trkpt lat="29.5672727" lon="103.4050548"><ele>753.18</ele><time>2026-01-21T17:23:44.000Z</time></trkpt>
        <trkpt lat="29.5673796" lon="103.4050394"><ele>751.6</ele><time>2026-01-21T17:23:52.000Z</time></trkpt>
        <trkpt lat="29.5674802" lon="103.4050401"><ele>750.22</ele><time>2026-01-21T17:24:00.000Z</time></trkpt>
        <trkpt lat="29.5675797" lon="103.4050651"><ele>749.39</ele><time>2026-01-21T17:24:06.000Z</time></trkpt>
        <trkpt lat="29.5676879" lon="103.4050842"><ele>749.05</ele><time>2026-01-21T17:24:14.000Z</time></trkpt>
        <trkpt lat="29.5677969" lon="103.4050691"><ele>749.63</ele><time>2026-01-21T17:24:22.000Z</time></trkpt>
        <trkpt lat="29.5678921" lon="103.4050396"><ele>750.44</ele><time>2026-01-21T17:24:28.000Z</time></trkpt>
        <trkpt lat="29.5679808" lon="103.4049763"><ele>750.29</ele><time>2026-01-21T17:24:36.000Z</time></trkpt>
        <trkpt lat="29.5680803" lon="103.4049122"><ele>750.51</ele><time>2026-01-21T17:24:44.000Z</time></trkpt>
        <trkpt lat="29.5681819" lon="103.4048593"><ele>750.46</ele><time>2026-01-21T17:24:52.000Z</time></trkpt>
        <trkpt lat="29.568264" lon="103.4047845"><ele>750.31</ele><time>2026-01-21T17:25:00.000Z</time></trkpt>
        <trkpt lat="29.5683463" lon="103.4047018"><ele>750.56</ele><time>2026-01-21T17:25:08.000Z</time></trkpt>
        <trkpt lat="29.5684008" lon="103.4045924"><ele>750.79</ele><time>2026-01-21T17:25:16.000Z</time></trkpt>
        <trkpt lat="29.5684543" lon="103.4044932"><ele>750.15</ele><time>2026-01-21T17:25:22.000Z</time></trkpt>
        <trkpt lat="29.5685119" lon="103.4043923"><ele>749.14</ele><time>2026-01-21T17:25:30.000Z</time></trkpt>
        <trkpt lat="29.5685506" lon="103.4042887"><ele>747.75</ele><time>2026-01-21T17:25:38.000Z</time></trkpt>
        <trkpt lat="29.568609" lon="103.4041884"><ele>747.08</ele><time>2026-01-21T17:25:46.000Z</time></trkpt>
        <trkpt lat="29.568672" lon="103.4041046"><ele>745.71</ele><time>2026-01-21T17:25:52.000Z</time></trkpt>
        <trkpt lat="29.5687376" lon="103.4040105"><ele>744.46</ele><time>2026-01-21T17:26:00.000Z</time></trkpt>
        <trkpt lat="29.5688061" lon="103.4039356"><ele>743.27</ele><time>2026-01-21T17:26:08.000Z</time></trkpt>
        <trkpt lat="29.5689078" lon="103.4039116"><ele>742.12</ele><time>2026-01-21T17:26:16.000Z</time></trkpt>
        <trkpt lat="29.569005" lon="103.4039465"><ele>741.38</ele><time>2026-01-21T17:26:22.000Z</time></trkpt>
        <trkpt lat="29.5691073" lon="103.4039696"><ele>741</ele><time>2026-01-21T17:26:30.000Z</time></trkpt>
        <trkpt lat="29.5692007" lon="103.4039583"><ele>740.4</ele><time>2026-01-21T17:26:36.000Z</time></trkpt>
        <trkpt lat="29.569285" lon="103.4039112"><ele>739.97</ele><time>2026-01-21T17:26:44.000Z</time></trkpt>
        <trkpt lat="29.5693712" lon="103.4038555"><ele>739.21</ele><time>2026-01-21T17:26:52.000Z</time></trkpt>
        <trkpt lat="29.569456" lon="103.4037779"><ele>738.26</ele><time>2026-01-21T17:27:00.000Z</time></trkpt>
        <trkpt lat="29.5695419" lon="103.4037089"><ele>737.89</ele><time>2026-01-21T17:27:08.000Z</time></trkpt>
        <trkpt lat="29.5696195" lon="103.4036291"><ele>737.72</ele><time>2026-01-21T17:27:16.000Z</time></trkpt>
        <trkpt lat="29.5696866" lon="103.4035333"><ele>736.85</ele><time>2026-01-21T17:27:24.000Z</time></trkpt>
        <trkpt lat="29.569768" lon="103.4034439"><ele>735.93</ele><time>2026-01-21T17:27:32.000Z</time></trkpt>
        <trkpt lat="29.5698427" lon="103.4033495"><ele>735.05</ele><time>2026-01-21T17:27:40.000Z</time></trkpt>
        <trkpt lat="29.5699148" lon="103.4032587"><ele>734.34</ele><time>2026-01-21T17:27:48.000Z</time></trkpt>
        <trkpt lat="29.5699698" lon="103.4031709"><ele>733.25</ele><time>2026-01-21T17:27:54.000Z</time></trkpt>
        <trkpt lat="29.5700162" lon="103.4030604"><ele>732.07</ele><time>2026-01-21T17:28:02.000Z</time></trkpt>
        <trkpt lat="29.5700569" lon="103.4029453"><ele>731.95</ele><time>2026-01-21T17:28:10.000Z</time></trkpt>
        <trkpt lat="29.5701278" lon="103.4028597"><ele>732.06</ele><time>2026-01-21T17:28:18.000Z</time></trkpt>
        <trkpt lat="29.5702218" lon="103.4028021"><ele>731.17</ele><time>2026-01-21T17:28:26.000Z</time></trkpt>
        <trkpt lat="29.5703194" lon="103.402786"><ele>730.45</ele><time>2026-01-21T17:28:32.000Z</time></trkpt>
        <trkpt lat="29.5704289" lon="103.4027768"><ele>729.83</ele><time>2026-01-21T17:28:40.000Z</time></trkpt>
        <trkpt lat="29.570544" lon="103.4027691"><ele>728.87</ele><time>2026-01-21T17:28:48.000Z</time></trkpt>
        <trkpt lat="29.5706549" lon="103.4027561"><ele>728.37</ele><time>2026-01-21T17:28:56.000Z</time></trkpt>
        <trkpt lat="29.570767" lon="103.4027224"><ele>727.35</ele><time>2026-01-21T17:29:04.000Z</time></trkpt>
        <trkpt lat="29.5708755" lon="103.4026719"><ele>725.78</ele><time>2026-01-21T17:29:12.000Z</time></trkpt>
        <trkpt lat="29.5709762" lon="103.4026263"><ele>723.9</ele><time>2026-01-21T17:29:20.000Z</time></trkpt>
        <trkpt lat="29.5710578" lon="103.40255"><ele>721.83</ele><time>2026-01-21T17:29:28.000Z</time></trkpt>
        <trkpt lat="29.5711292" lon="103.4024781"><ele>719.84</ele><time>2026-01-21T17:29:36.000Z</time></trkpt>
        <trkpt lat="29.5711969" lon="103.4023822"><ele>718.1</ele><time>2026-01-21T17:29:44.000Z</time></trkpt>
        <trkpt lat="29.5712532" lon="103.4022782"><ele>717.11</ele><time>2026-01-21T17:29:52.000Z</time></trkpt>
        <trkpt lat="29.5713225" lon="103.4021718"><ele>717.15</ele><time>2026-01-21T17:30:00.000Z</time></trkpt>
        <trkpt lat="29.5713951" lon="103.4020759"><ele>717.52</ele><time>2026-01-21T17:30:08.000Z</time></trkpt>
        <trkpt lat="29.5714663" lon="103.4020035"><ele>718.24</ele><time>2026-01-21T17:30:14.000Z</time></trkpt>
        <trkpt lat="29.5715355" lon="103.401937"><ele>718.95</ele><time>2026-01-21T17:30:20.000Z</time></trkpt>
        <trkpt lat="29.5716151" lon="103.4018739"><ele>720.01</ele><time>2026-01-21T17:30:30.000Z</time></trkpt>
        <trkpt lat="29.5717225" lon="103.4018485"><ele>722.15</ele><time>2026-01-21T17:30:40.000Z</time></trkpt>
        <trkpt lat="29.5718269" lon="103.4018487"><ele>724.67</ele><time>2026-01-21T17:30:48.000Z</time></trkpt>
        <trkpt lat="29.5719184" lon="103.4018119"><ele>726.32</ele><time>2026-01-21T17:30:54.000Z</time></trkpt>
        <trkpt lat="29.5720094" lon="103.4017376"><ele>726.27</ele><time>2026-01-21T17:31:04.000Z</time></trkpt>
        <trkpt lat="29.572103" lon="103.4016766"><ele>725.85</ele><time>2026-01-21T17:31:10.000Z</time></trkpt>
        <trkpt lat="29.572189" lon="103.4016001"><ele>724.54</ele><time>2026-01-21T17:31:18.000Z</time></trkpt>
        <trkpt lat="29.5722133" lon="103.401565"><ele>721.77</ele><time>2026-01-21T17:31:28.000Z</time></trkpt>
        <trkpt lat="29.5721391" lon="103.4015635"><ele>719.93</ele><time>2026-01-21T17:31:36.000Z</time></trkpt>
        <trkpt lat="29.5720713" lon="103.4014963"><ele>717.85</ele><time>2026-01-21T17:31:58.000Z</time></trkpt>
        <trkpt lat="29.5720018" lon="103.4014012"><ele>715.68</ele><time>2026-01-21T17:32:16.000Z</time></trkpt>
        <trkpt lat="29.5719754" lon="103.4012942"><ele>717.11</ele><time>2026-01-21T17:32:24.000Z</time></trkpt>
        <trkpt lat="29.5719691" lon="103.4011805"><ele>720.2</ele><time>2026-01-21T17:32:38.000Z</time></trkpt>
        <trkpt lat="29.5719501" lon="103.4010615"><ele>724.16</ele><time>2026-01-21T17:32:58.000Z</time></trkpt>
        <trkpt lat="29.5719472" lon="103.4009407"><ele>727.32</ele><time>2026-01-21T17:33:14.000Z</time></trkpt>
        <trkpt lat="29.5719273" lon="103.4008303"><ele>728.51</ele><time>2026-01-21T17:33:28.000Z</time></trkpt>
        <trkpt lat="29.5719141" lon="103.4007232"><ele>728.9</ele><time>2026-01-21T17:33:44.000Z</time></trkpt>
        <trkpt lat="29.5719048" lon="103.4006183"><ele>729.97</ele><time>2026-01-21T17:34:04.000Z</time></trkpt>
        <trkpt lat="29.5719019" lon="103.4005114"><ele>733.08</ele><time>2026-01-21T17:34:22.000Z</time></trkpt>
        <trkpt lat="29.5718785" lon="103.4004023"><ele>737.74</ele><time>2026-01-21T17:34:44.000Z</time></trkpt>
        <trkpt lat="29.5718746" lon="103.4002873"><ele>744.73</ele><time>2026-01-21T17:35:04.000Z</time></trkpt>
        <trkpt lat="29.5718549" lon="103.4001765"><ele>751.3</ele><time>2026-01-21T17:35:24.000Z</time></trkpt>
        <trkpt lat="29.5718476" lon="103.4000676"><ele>756.98</ele><time>2026-01-21T17:35:40.000Z</time></trkpt>
        <trkpt lat="29.5718429" lon="103.3999594"><ele>762.06</ele><time>2026-01-21T17:36:02.000Z</time></trkpt>
        <trkpt lat="29.5718475" lon="103.3998526"><ele>767.15</ele><time>2026-01-21T17:36:24.000Z</time></trkpt>
        <trkpt lat="29.5718589" lon="103.3997486"><ele>772.42</ele><time>2026-01-21T17:36:34.000Z</time></trkpt>
        <trkpt lat="29.5718532" lon="103.3996394"><ele>776.11</ele><time>2026-01-21T17:36:50.000Z</time></trkpt>
        <trkpt lat="29.5718407" lon="103.3995342"><ele>780.02</ele><time>2026-01-21T17:37:04.000Z</time></trkpt>
        <trkpt lat="29.5718149" lon="103.3994257"><ele>783.84</ele><time>2026-01-21T17:37:14.000Z</time></trkpt>
        <trkpt lat="29.5718086" lon="103.3993208"><ele>786.28</ele><time>2026-01-21T17:37:24.000Z</time></trkpt>
        <trkpt lat="29.5717593" lon="103.3992237"><ele>787.88</ele><time>2026-01-21T17:37:42.000Z</time></trkpt>
        <trkpt lat="29.5716963" lon="103.3991354"><ele>791.41</ele><time>2026-01-21T17:37:56.000Z</time></trkpt>
        <trkpt lat="29.5716653" lon="103.3990362"><ele>795.19</ele><time>2026-01-21T17:38:08.000Z</time></trkpt>
        <trkpt lat="29.5716305" lon="103.3989247"><ele>797.56</ele><time>2026-01-21T17:38:22.000Z</time></trkpt>
        <trkpt lat="29.5716147" lon="103.3988052"><ele>799.9</ele><time>2026-01-21T17:38:32.000Z</time></trkpt>
        <trkpt lat="29.5715957" lon="103.3986922"><ele>802.4</ele><time>2026-01-21T17:38:46.000Z</time></trkpt>
        <trkpt lat="29.5715982" lon="103.3985825"><ele>803.73</ele><time>2026-01-21T17:38:56.000Z</time></trkpt>
        <trkpt lat="29.5715868" lon="103.3984704"><ele>805.01</ele><time>2026-01-21T17:39:08.000Z</time></trkpt>
        <trkpt lat="29.5715751" lon="103.398351"><ele>805.52</ele><time>2026-01-21T17:39:22.000Z</time></trkpt>
        <trkpt lat="29.5715709" lon="103.3982364"><ele>803.96</ele><time>2026-01-21T17:39:34.000Z</time></trkpt>
        <trkpt lat="29.571572" lon="103.3981279"><ele>800.54</ele><time>2026-01-21T17:39:44.000Z</time></trkpt>
        <trkpt lat="29.5715783" lon="103.3980228"><ele>796.18</ele><time>2026-01-21T17:39:54.000Z</time></trkpt>
        <trkpt lat="29.5715498" lon="103.3979173"><ele>792.36</ele><time>2026-01-21T17:40:06.000Z</time></trkpt>
        <trkpt lat="29.5715054" lon="103.3978125"><ele>788.59</ele><time>2026-01-21T17:40:18.000Z</time></trkpt>
        <trkpt lat="29.5714732" lon="103.3977104"><ele>784.42</ele><time>2026-01-21T17:40:28.000Z</time></trkpt>
        <trkpt lat="29.5714371" lon="103.3976078"><ele>780.41</ele><time>2026-01-21T17:40:38.000Z</time></trkpt>
        <trkpt lat="29.5714411" lon="103.3974973"><ele>777.18</ele><time>2026-01-21T17:40:48.000Z</time></trkpt>
        <trkpt lat="29.5714565" lon="103.3973864"><ele>774.31</ele><time>2026-01-21T17:40:58.000Z</time></trkpt>
        <trkpt lat="29.5714902" lon="103.3972819"><ele>771.25</ele><time>2026-01-21T17:41:06.000Z</time></trkpt>
        <trkpt lat="29.5715352" lon="103.3971763"><ele>768.99</ele><time>2026-01-21T17:41:16.000Z</time></trkpt>
        <trkpt lat="29.5715936" lon="103.3970876"><ele>768.01</ele><time>2026-01-21T17:41:26.000Z</time></trkpt>
        <trkpt lat="29.5716554" lon="103.3970074"><ele>766.54</ele><time>2026-01-21T17:41:36.000Z</time></trkpt>
        <trkpt lat="29.5717081" lon="103.3969232"><ele>764.46</ele><time>2026-01-21T17:41:46.000Z</time></trkpt>
        <trkpt lat="29.5717601" lon="103.396839"><ele>761.9</ele><time>2026-01-21T17:41:56.000Z</time></trkpt>
        <trkpt lat="29.5718418" lon="103.3967809"><ele>758.97</ele><time>2026-01-21T17:42:08.000Z</time></trkpt>
        <trkpt lat="29.571937" lon="103.3967559"><ele>755.2</ele><time>2026-01-21T17:42:18.000Z</time></trkpt>
        <trkpt lat="29.5720417" lon="103.3967389"><ele>751.33</ele><time>2026-01-21T17:42:30.000Z</time></trkpt>
        <trkpt lat="29.5721358" lon="103.3967161"><ele>747.75</ele><time>2026-01-21T17:42:42.000Z</time></trkpt>
        <trkpt lat="29.5722284" lon="103.3967068"><ele>744.24</ele><time>2026-01-21T17:42:52.000Z</time></trkpt>
        <trkpt lat="29.5723102" lon="103.3966604"><ele>740.95</ele><time>2026-01-21T17:43:04.000Z</time></trkpt>
        <trkpt lat="29.5723631" lon="103.3965669"><ele>737.19</ele><time>2026-01-21T17:43:14.000Z</time></trkpt>
        <trkpt lat="29.5723597" lon="103.3964526"><ele>734.35</ele><time>2026-01-21T17:43:24.000Z</time></trkpt>
        <trkpt lat="29.5723614" lon="103.3963366"><ele>732.78</ele><time>2026-01-21T17:43:32.000Z</time></trkpt>
        <trkpt lat="29.5723791" lon="103.3962304"><ele>731.28</ele><time>2026-01-21T17:43:42.000Z</time></trkpt>
        <trkpt lat="29.5724045" lon="103.3961106"><ele>729.14</ele><time>2026-01-21T17:43:54.000Z</time></trkpt>
        <trkpt lat="29.5724604" lon="103.3960074"><ele>727.19</ele><time>2026-01-21T17:44:06.000Z</time></trkpt>
        <trkpt lat="29.5725422" lon="103.3959526"><ele>725.6</ele><time>2026-01-21T17:44:16.000Z</time></trkpt>
        <trkpt lat="29.5726164" lon="103.3958863"><ele>723.75</ele><time>2026-01-21T17:44:26.000Z</time></trkpt>
        <trkpt lat="29.5727044" lon="103.3958279"><ele>721.79</ele><time>2026-01-21T17:44:36.000Z</time></trkpt>
        <trkpt lat="29.5727739" lon="103.3957351"><ele>719.65</ele><time>2026-01-21T17:44:46.000Z</time></trkpt>
        <trkpt lat="29.572833" lon="103.3956327"><ele>716.74</ele><time>2026-01-21T17:44:54.000Z</time></trkpt>
        <trkpt lat="29.5728811" lon="103.3955281"><ele>714.36</ele><time>2026-01-21T17:45:02.000Z</time></trkpt>
        <trkpt lat="29.5729247" lon="103.3954165"><ele>712.14</ele><time>2026-01-21T17:45:10.000Z</time></trkpt>
        <trkpt lat="29.572974" lon="103.3953107"><ele>710.49</ele><time>2026-01-21T17:45:18.000Z</time></trkpt>
        <trkpt lat="29.572986" lon="103.3952052"><ele>709.42</ele><time>2026-01-21T17:45:30.000Z</time></trkpt>
        <trkpt lat="29.5729369" lon="103.3951076"><ele>708.68</ele><time>2026-01-21T17:45:40.000Z</time></trkpt>
        <trkpt lat="29.572919" lon="103.3950027"><ele>707.44</ele><time>2026-01-21T17:45:50.000Z</time></trkpt>
        <trkpt lat="29.5729319" lon="103.3948886"><ele>706.26</ele><time>2026-01-21T17:46:00.000Z</time></trkpt>
        <trkpt lat="29.5728954" lon="103.3947826"><ele>704.77</ele><time>2026-01-21T17:46:12.000Z</time></trkpt>
        <trkpt lat="29.5728357" lon="103.3946989"><ele>703.02</ele><time>2026-01-21T17:46:22.000Z</time></trkpt>
        <trkpt lat="29.5727621" lon="103.3946332"><ele>700.86</ele><time>2026-01-21T17:46:32.000Z</time></trkpt>
        <trkpt lat="29.5727395" lon="103.3945391"><ele>698.64</ele><time>2026-01-21T17:46:46.000Z</time></trkpt>
        <trkpt lat="29.5727589" lon="103.3944278"><ele>695.35</ele><time>2026-01-21T17:47:02.000Z</time></trkpt>
        <trkpt lat="29.5727893" lon="103.3943185"><ele>691.24</ele><time>2026-01-21T17:47:12.000Z</time></trkpt>
        <trkpt lat="29.5728457" lon="103.3942237"><ele>687.53</ele><time>2026-01-21T17:47:22.000Z</time></trkpt>
        <trkpt lat="29.5728866" lon="103.3941148"><ele>684.63</ele><time>2026-01-21T17:47:30.000Z</time></trkpt>
        <trkpt lat="29.572933" lon="103.394014"><ele>682.81</ele><time>2026-01-21T17:47:38.000Z</time></trkpt>
        <trkpt lat="29.5729847" lon="103.3939079"><ele>682.76</ele><time>2026-01-21T17:47:46.000Z</time></trkpt>
        <trkpt lat="29.5730151" lon="103.3937972"><ele>683.25</ele><time>2026-01-21T17:47:54.000Z</time></trkpt>
        <trkpt lat="29.5730847" lon="103.3937225"><ele>683.92</ele><time>2026-01-21T17:48:04.000Z</time></trkpt>
        <trkpt lat="29.5731858" lon="103.3936903"><ele>685.42</ele><time>2026-01-21T17:48:16.000Z</time></trkpt>
        <trkpt lat="29.5732854" lon="103.393708"><ele>686.91</ele><time>2026-01-21T17:48:26.000Z</time></trkpt>
        <trkpt lat="29.5733756" lon="103.3936568"><ele>685.7</ele><time>2026-01-21T17:48:36.000Z</time></trkpt>
        <trkpt lat="29.5734535" lon="103.3935847"><ele>683.04</ele><time>2026-01-21T17:48:44.000Z</time></trkpt>
        <trkpt lat="29.5735418" lon="103.393544"><ele>681</ele><time>2026-01-21T17:48:52.000Z</time></trkpt>
        <trkpt lat="29.5736269" lon="103.3934953"><ele>679.67</ele><time>2026-01-21T17:49:00.000Z</time></trkpt>
        <trkpt lat="29.5737018" lon="103.3934318"><ele>680.2</ele><time>2026-01-21T17:49:06.000Z</time></trkpt>
        <trkpt lat="29.5737906" lon="103.3933841"><ele>680.24</ele><time>2026-01-21T17:49:16.000Z</time></trkpt>
        <trkpt lat="29.5738875" lon="103.3933281"><ele>680.4</ele><time>2026-01-21T17:49:26.000Z</time></trkpt>
        <trkpt lat="29.5739644" lon="103.3932523"><ele>680.57</ele><time>2026-01-21T17:49:38.000Z</time></trkpt>
        <trkpt lat="29.5740095" lon="103.393157"><ele>681.57</ele><time>2026-01-21T17:49:50.000Z</time></trkpt>
        <trkpt lat="29.5740388" lon="103.393047"><ele>680.85</ele><time>2026-01-21T17:50:04.000Z</time></trkpt>
        <trkpt lat="29.5740605" lon="103.3929259"><ele>678.72</ele><time>2026-01-21T17:50:20.000Z</time></trkpt>
        <trkpt lat="29.5740941" lon="103.3928073"><ele>675.62</ele><time>2026-01-21T17:50:32.000Z</time></trkpt>
        <trkpt lat="29.5741072" lon="103.3926988"><ele>673.24</ele><time>2026-01-21T17:50:44.000Z</time></trkpt>
        <trkpt lat="29.5740829" lon="103.3925896"><ele>669.44</ele><time>2026-01-21T17:50:56.000Z</time></trkpt>
        <trkpt lat="29.5740386" lon="103.3924887"><ele>665.77</ele><time>2026-01-21T17:51:06.000Z</time></trkpt>
        <trkpt lat="29.5740409" lon="103.3924121"><ele>661.18</ele><time>2026-01-21T17:51:22.000Z</time></trkpt>
        <trkpt lat="29.5741193" lon="103.3923864"><ele>657.01</ele><time>2026-01-21T17:51:38.000Z</time></trkpt>
        <trkpt lat="29.5741803" lon="103.3923189"><ele>654.47</ele><time>2026-01-21T17:51:48.000Z</time></trkpt>
        <trkpt lat="29.5742315" lon="103.3922287"><ele>653.02</ele><time>2026-01-21T17:52:04.000Z</time></trkpt>
        <trkpt lat="29.5742123" lon="103.3921293"><ele>651.25</ele><time>2026-01-21T17:52:26.000Z</time></trkpt>
        <trkpt lat="29.5741258" lon="103.3920506"><ele>650.07</ele><time>2026-01-21T17:52:40.000Z</time></trkpt>
        <trkpt lat="29.574096" lon="103.3920545"><ele>651.33</ele><time>2026-01-21T17:52:56.000Z</time></trkpt>
        <trkpt lat="29.5740087" lon="103.3920419"><ele>652.95</ele><time>2026-01-21T17:53:16.000Z</time></trkpt>
        <trkpt lat="29.5739103" lon="103.3920622"><ele>654.56</ele><time>2026-01-21T17:53:28.000Z</time></trkpt>
        <trkpt lat="29.5738008" lon="103.3920805"><ele>656.34</ele><time>2026-01-21T17:53:44.000Z</time></trkpt>
        <trkpt lat="29.5737022" lon="103.392049"><ele>656.63</ele><time>2026-01-21T17:53:52.000Z</time></trkpt>
        <trkpt lat="29.5736143" lon="103.3919917"><ele>656.44</ele><time>2026-01-21T17:54:00.000Z</time></trkpt>
        <trkpt lat="29.5735407" lon="103.3919083"><ele>654.7</ele><time>2026-01-21T17:54:12.000Z</time></trkpt>
        <trkpt lat="29.5734957" lon="103.3917953"><ele>652.04</ele><time>2026-01-21T17:54:22.000Z</time></trkpt>
        <trkpt lat="29.5734176" lon="103.3917469"><ele>650.94</ele><time>2026-01-21T17:54:36.000Z</time></trkpt>
        <trkpt lat="29.5733278" lon="103.3917526"><ele>652.6</ele><time>2026-01-21T17:54:46.000Z</time></trkpt>
        <trkpt lat="29.5732319" lon="103.3917663"><ele>655.74</ele><time>2026-01-21T17:54:56.000Z</time></trkpt>
        <trkpt lat="29.5731436" lon="103.3917401"><ele>659.38</ele><time>2026-01-21T17:55:14.000Z</time></trkpt>
        <trkpt lat="29.5730452" lon="103.3917167"><ele>663.69</ele><time>2026-01-21T17:55:22.000Z</time></trkpt>
        <trkpt lat="29.5729543" lon="103.3917416"><ele>666.92</ele><time>2026-01-21T17:55:30.000Z</time></trkpt>
        <trkpt lat="29.5728619" lon="103.3917869"><ele>669.58</ele><time>2026-01-21T17:55:38.000Z</time></trkpt>
        <trkpt lat="29.5727724" lon="103.3918347"><ele>671.91</ele><time>2026-01-21T17:55:48.000Z</time></trkpt>
        <trkpt lat="29.5726804" lon="103.3918671"><ele>674.57</ele><time>2026-01-21T17:55:56.000Z</time></trkpt>
        <trkpt lat="29.5725897" lon="103.3918513"><ele>676.22</ele><time>2026-01-21T17:56:06.000Z</time></trkpt>
        <trkpt lat="29.5724997" lon="103.3918491"><ele>676.99</ele><time>2026-01-21T17:56:16.000Z</time></trkpt>
        <trkpt lat="29.5724073" lon="103.3918283"><ele>678.11</ele><time>2026-01-21T17:56:26.000Z</time></trkpt>
        <trkpt lat="29.572324" lon="103.3917551"><ele>678.58</ele><time>2026-01-21T17:56:40.000Z</time></trkpt>
        <trkpt lat="29.5722241" lon="103.3917242"><ele>678.42</ele><time>2026-01-21T17:56:52.000Z</time></trkpt>
        <trkpt lat="29.5721252" lon="103.3916836"><ele>678.32</ele><time>2026-01-21T17:57:02.000Z</time></trkpt>
        <trkpt lat="29.5720248" lon="103.3916728"><ele>678.18</ele><time>2026-01-21T17:57:12.000Z</time></trkpt>
        <trkpt lat="29.5719179" lon="103.3916482"><ele>678.66</ele><time>2026-01-21T17:57:22.000Z</time></trkpt>
        <trkpt lat="29.5718152" lon="103.3916559"><ele>678.94</ele><time>2026-01-21T17:57:30.000Z</time></trkpt>
        <trkpt lat="29.5717169" lon="103.3916716"><ele>678.58</ele><time>2026-01-21T17:57:42.000Z</time></trkpt>
        <trkpt lat="29.5716104" lon="103.391681"><ele>678.29</ele><time>2026-01-21T17:57:52.000Z</time></trkpt>
        <trkpt lat="29.571508" lon="103.3916804"><ele>678.21</ele><time>2026-01-21T17:58:00.000Z</time></trkpt>
        <trkpt lat="29.5714075" lon="103.3916883"><ele>678.29</ele><time>2026-01-21T17:58:08.000Z</time></trkpt>
        <trkpt lat="29.571309" lon="103.3916721"><ele>677.91</ele><time>2026-01-21T17:58:16.000Z</time></trkpt>
        <trkpt lat="29.5712122" lon="103.3916693"><ele>677</ele><time>2026-01-21T17:58:24.000Z</time></trkpt>
        <trkpt lat="29.5711134" lon="103.3916901"><ele>676.48</ele><time>2026-01-21T17:58:34.000Z</time></trkpt>
        <trkpt lat="29.5710212" lon="103.3916807"><ele>676.28</ele><time>2026-01-21T17:58:44.000Z</time></trkpt>
        <trkpt lat="29.5709189" lon="103.3916563"><ele>675.94</ele><time>2026-01-21T17:58:54.000Z</time></trkpt>
        <trkpt lat="29.5708325" lon="103.3916073"><ele>674.5</ele><time>2026-01-21T17:59:02.000Z</time></trkpt>
        <trkpt lat="29.5707587" lon="103.3915332"><ele>672.22</ele><time>2026-01-21T17:59:14.000Z</time></trkpt>
        <trkpt lat="29.57069" lon="103.3914432"><ele>670.32</ele><time>2026-01-21T17:59:26.000Z</time></trkpt>
        <trkpt lat="29.5706108" lon="103.3913898"><ele>669.8</ele><time>2026-01-21T17:59:36.000Z</time></trkpt>
        <trkpt lat="29.5705357" lon="103.391322"><ele>670.18</ele><time>2026-01-21T17:59:48.000Z</time></trkpt>
        <trkpt lat="29.5704761" lon="103.3912231"><ele>670.92</ele><time>2026-01-21T17:59:56.000Z</time></trkpt>
        <trkpt lat="29.5704244" lon="103.3911105"><ele>671.56</ele><time>2026-01-21T18:00:10.000Z</time></trkpt>
        <trkpt lat="29.5703459" lon="103.3910726"><ele>671.88</ele><time>2026-01-21T18:00:26.000Z</time></trkpt>
        <trkpt lat="29.5702554" lon="103.3910361"><ele>672.62</ele><time>2026-01-21T18:00:46.000Z</time></trkpt>
        <trkpt lat="29.5701565" lon="103.391027"><ele>674.68</ele><time>2026-01-21T18:00:58.000Z</time></trkpt>
        <trkpt lat="29.5700933" lon="103.3909522"><ele>677.05</ele><time>2026-01-21T18:01:12.000Z</time></trkpt>
        <trkpt lat="29.5700067" lon="103.3909175"><ele>679.27</ele><time>2026-01-21T18:01:22.000Z</time></trkpt>
        <trkpt lat="29.5699051" lon="103.3909097"><ele>682.08</ele><time>2026-01-21T18:01:36.000Z</time></trkpt>
        <trkpt lat="29.569801" lon="103.3909232"><ele>686.52</ele><time>2026-01-21T18:01:48.000Z</time></trkpt>
        <trkpt lat="29.5696997" lon="103.3909401"><ele>689.82</ele><time>2026-01-21T18:01:58.000Z</time></trkpt>
        <trkpt lat="29.5695977" lon="103.3909547"><ele>691.71</ele><time>2026-01-21T18:02:10.000Z</time></trkpt>
        <trkpt lat="29.5695031" lon="103.3909659"><ele>692.05</ele><time>2026-01-21T18:02:20.000Z</time></trkpt>
        <trkpt lat="29.5694126" lon="103.3909639"><ele>690.87</ele><time>2026-01-21T18:02:30.000Z</time></trkpt>
        <trkpt lat="29.5693133" lon="103.3909232"><ele>688.34</ele><time>2026-01-21T18:02:40.000Z</time></trkpt>
        <trkpt lat="29.5692129" lon="103.3908778"><ele>684.58</ele><time>2026-01-21T18:02:56.000Z</time></trkpt>
        <trkpt lat="29.5691086" lon="103.3908594"><ele>679.47</ele><time>2026-01-21T18:03:02.000Z</time></trkpt>
        <trkpt lat="29.5690181" lon="103.390885"><ele>675.83</ele><time>2026-01-21T18:03:10.000Z</time></trkpt>
        <trkpt lat="29.5689192" lon="103.3909686"><ele>672.37</ele><time>2026-01-21T18:03:22.000Z</time></trkpt>
        <trkpt lat="29.5688593" lon="103.3910669"><ele>669.46</ele><time>2026-01-21T18:03:28.000Z</time></trkpt>
        <trkpt lat="29.5688137" lon="103.3911897"><ele>667.41</ele><time>2026-01-21T18:03:40.000Z</time></trkpt>
        <trkpt lat="29.56879" lon="103.3913032"><ele>665.73</ele><time>2026-01-21T18:04:14.000Z</time></trkpt>
        <trkpt lat="29.56879" lon="103.3913032"><ele>665.73</ele><time>2026-01-21T18:04:19.000Z</time></trkpt>
        <trkpt lat="29.5687225" lon="103.3912712"><ele>667.14</ele><time>2026-01-21T18:04:29.000Z</time></trkpt>
        <trkpt lat="29.5687225" lon="103.3912712"><ele>667.14</ele><time>2026-01-21T18:04:42.000Z</time></trkpt>
        <trkpt lat="29.5686191" lon="103.3912638"><ele>668.76</ele><time>2026-01-21T18:04:50.000Z</time></trkpt>
        <trkpt lat="29.5685102" lon="103.391259"><ele>669.89</ele><time>2026-01-21T18:04:58.000Z</time></trkpt>
        <trkpt lat="29.5684457" lon="103.3911651"><ele>670.67</ele><time>2026-01-21T18:05:04.000Z</time></trkpt>
        <trkpt lat="29.568453" lon="103.3910473"><ele>671.11</ele><time>2026-01-21T18:05:08.000Z</time></trkpt>
        <trkpt lat="29.5684687" lon="103.3909714"><ele>671.24</ele><time>2026-01-21T18:05:10.000Z</time></trkpt>
        <trkpt lat="29.5684789" lon="103.3908224"><ele>671.31</ele><time>2026-01-21T18:05:14.000Z</time></trkpt>
        <trkpt lat="29.5685005" lon="103.3907117"><ele>671.26</ele><time>2026-01-21T18:05:18.000Z</time></trkpt>
        <trkpt lat="29.5684297" lon="103.3906567"><ele>671.36</ele><time>2026-01-21T18:05:28.000Z</time></trkpt>
        <trkpt lat="29.5683652" lon="103.390717"><ele>672.15</ele><time>2026-01-21T18:05:38.000Z</time></trkpt>
        <trkpt lat="29.5683652" lon="103.390717"><ele>672.15</ele><time>2026-01-21T18:05:47.000Z</time></trkpt>
        <trkpt lat="29.5683463" lon="103.3908304"><ele>675.1</ele><time>2026-01-21T18:05:49.000Z</time></trkpt>
        <trkpt lat="29.5683463" lon="103.3908304"><ele>675.1</ele><time>2026-01-21T18:06:02.000Z</time></trkpt>
        <trkpt lat="29.5683759" lon="103.3909576"><ele>678.41</ele><time>2026-01-21T18:06:32.000Z</time></trkpt>
        <trkpt lat="29.5683105" lon="103.3909789"><ele>677.89</ele><time>2026-01-21T18:06:48.000Z</time></trkpt>
        <trkpt lat="29.5682482" lon="103.3910408"><ele>675.7</ele><time>2026-01-21T18:06:52.000Z</time></trkpt>
        <trkpt lat="29.5681916" lon="103.3909894"><ele>674.45</ele><time>2026-01-21T18:07:12.000Z</time></trkpt>
        <trkpt lat="29.5681163" lon="103.3909239"><ele>672.28</ele><time>2026-01-21T18:07:26.000Z</time></trkpt>
        <trkpt lat="29.5680196" lon="103.3908704"><ele>669.54</ele><time>2026-01-21T18:07:40.000Z</time></trkpt>
        <trkpt lat="29.567929" lon="103.3908064"><ele>667.67</ele><time>2026-01-21T18:07:50.000Z</time></trkpt>
        <trkpt lat="29.5678349" lon="103.3908027"><ele>666.44</ele><time>2026-01-21T18:07:56.000Z</time></trkpt>
        <trkpt lat="29.5677691" lon="103.3907296"><ele>666.12</ele><time>2026-01-21T18:08:10.000Z</time></trkpt>
        <trkpt lat="29.5676852" lon="103.3906913"><ele>666.37</ele><time>2026-01-21T18:08:18.000Z</time></trkpt>
        <trkpt lat="29.5675861" lon="103.3906292"><ele>666.25</ele><time>2026-01-21T18:08:26.000Z</time></trkpt>
        <trkpt lat="29.5674967" lon="103.3905704"><ele>665.76</ele><time>2026-01-21T18:08:36.000Z</time></trkpt>
        <trkpt lat="29.5674782" lon="103.3904561"><ele>665.13</ele><time>2026-01-21T18:08:42.000Z</time></trkpt>
        <trkpt lat="29.5674806" lon="103.390397"><ele>664.56</ele><time>2026-01-21T18:08:44.000Z</time></trkpt>
        <trkpt lat="29.5674229" lon="103.3903576"><ele>664.36</ele><time>2026-01-21T18:08:54.000Z</time></trkpt>
        <trkpt lat="29.5673251" lon="103.3903328"><ele>664.81</ele><time>2026-01-21T18:09:02.000Z</time></trkpt>
        <trkpt lat="29.5672191" lon="103.3903091"><ele>666.01</ele><time>2026-01-21T18:09:10.000Z</time></trkpt>
        <trkpt lat="29.567107" lon="103.3903015"><ele>668.37</ele><time>2026-01-21T18:09:18.000Z</time></trkpt>
        <trkpt lat="29.5670022" lon="103.3903164"><ele>671.78</ele><time>2026-01-21T18:09:26.000Z</time></trkpt>
        <trkpt lat="29.566904" lon="103.3902968"><ele>673.64</ele><time>2026-01-21T18:09:36.000Z</time></trkpt>
        <trkpt lat="29.5668248" lon="103.3902124"><ele>674.18</ele><time>2026-01-21T18:09:44.000Z</time></trkpt>
        <trkpt lat="29.5667687" lon="103.3901091"><ele>675.48</ele><time>2026-01-21T18:09:50.000Z</time></trkpt>
        <trkpt lat="29.5667137" lon="103.3900015"><ele>676.56</ele><time>2026-01-21T18:09:58.000Z</time></trkpt>
        <trkpt lat="29.5666534" lon="103.3899056"><ele>677.18</ele><time>2026-01-21T18:10:06.000Z</time></trkpt>
        <trkpt lat="29.5665851" lon="103.3898158"><ele>677.4</ele><time>2026-01-21T18:10:14.000Z</time></trkpt>
        <trkpt lat="29.5664974" lon="103.3897587"><ele>676.93</ele><time>2026-01-21T18:10:22.000Z</time></trkpt>
        <trkpt lat="29.5664016" lon="103.3897661"><ele>678.04</ele><time>2026-01-21T18:10:30.000Z</time></trkpt>
        <trkpt lat="29.5663053" lon="103.3897762"><ele>680.08</ele><time>2026-01-21T18:10:40.000Z</time></trkpt>
        <trkpt lat="29.5662175" lon="103.3897316"><ele>682.16</ele><time>2026-01-21T18:10:52.000Z</time></trkpt>
        <trkpt lat="29.5661358" lon="103.3896807"><ele>684.2</ele><time>2026-01-21T18:10:58.000Z</time></trkpt>
        <trkpt lat="29.5660313" lon="103.389688"><ele>685.92</ele><time>2026-01-21T18:11:06.000Z</time></trkpt>
        <trkpt lat="29.5659292" lon="103.389714"><ele>688.79</ele><time>2026-01-21T18:11:28.000Z</time></trkpt>
        <trkpt lat="29.565814" lon="103.3897418"><ele>691.38</ele><time>2026-01-21T18:11:36.000Z</time></trkpt>
        <trkpt lat="29.5657157" lon="103.3897654"><ele>693.54</ele><time>2026-01-21T18:11:48.000Z</time></trkpt>
        <trkpt lat="29.5656597" lon="103.3897022"><ele>696.02</ele><time>2026-01-21T18:12:08.000Z</time></trkpt>
        <trkpt lat="29.5655935" lon="103.3896243"><ele>698.85</ele><time>2026-01-21T18:12:32.000Z</time></trkpt>
        <trkpt lat="29.5655149" lon="103.3895643"><ele>701.41</ele><time>2026-01-21T18:12:40.000Z</time></trkpt>
        <trkpt lat="29.5654147" lon="103.3895166"><ele>702.7</ele><time>2026-01-21T18:12:48.000Z</time></trkpt>
        <trkpt lat="29.5653055" lon="103.3894765"><ele>703.04</ele><time>2026-01-21T18:12:58.000Z</time></trkpt>
        <trkpt lat="29.5652145" lon="103.3894327"><ele>703.15</ele><time>2026-01-21T18:13:06.000Z</time></trkpt>
        <trkpt lat="29.5651601" lon="103.3893394"><ele>704.21</ele><time>2026-01-21T18:13:16.000Z</time></trkpt>
        <trkpt lat="29.5650886" lon="103.389268"><ele>705.32</ele><time>2026-01-21T18:13:26.000Z</time></trkpt>
        <trkpt lat="29.5649999" lon="103.3892022"><ele>705.23</ele><time>2026-01-21T18:13:34.000Z</time></trkpt>
        <trkpt lat="29.5649599" lon="103.3891036"><ele>704.35</ele><time>2026-01-21T18:13:42.000Z</time></trkpt>
        <trkpt lat="29.5649033" lon="103.3890103"><ele>702.87</ele><time>2026-01-21T18:13:52.000Z</time></trkpt>
        <trkpt lat="29.564821" lon="103.3889495"><ele>700.95</ele><time>2026-01-21T18:14:00.000Z</time></trkpt>
        <trkpt lat="29.5647177" lon="103.388925"><ele>700.02</ele><time>2026-01-21T18:14:10.000Z</time></trkpt>
        <trkpt lat="29.5646167" lon="103.3888935"><ele>699.67</ele><time>2026-01-21T18:14:20.000Z</time></trkpt>
        <trkpt lat="29.5645084" lon="103.3888604"><ele>698.26</ele><time>2026-01-21T18:14:28.000Z</time></trkpt>
        <trkpt lat="29.5644058" lon="103.3888156"><ele>697.46</ele><time>2026-01-21T18:14:36.000Z</time></trkpt>
        <trkpt lat="29.5643074" lon="103.3888024"><ele>697.91</ele><time>2026-01-21T18:14:52.000Z</time></trkpt>
        <trkpt lat="29.5642194" lon="103.388835"><ele>702.16</ele><time>2026-01-21T18:15:04.000Z</time></trkpt>
        <trkpt lat="29.5641238" lon="103.3888576"><ele>707.13</ele><time>2026-01-21T18:15:20.000Z</time></trkpt>
        <trkpt lat="29.564046" lon="103.3889372"><ele>713.09</ele><time>2026-01-21T18:15:29.000Z</time></trkpt>
        <trkpt lat="29.5639598" lon="103.3889601"><ele>718.13</ele><time>2026-01-21T18:15:39.000Z</time></trkpt>
        <trkpt lat="29.563862" lon="103.3889696"><ele>722.25</ele><time>2026-01-21T18:15:53.000Z</time></trkpt>
        <trkpt lat="29.563765" lon="103.3889617"><ele>726.61</ele><time>2026-01-21T18:16:01.000Z</time></trkpt>
        <trkpt lat="29.5636652" lon="103.3889186"><ele>729.4</ele><time>2026-01-21T18:16:13.000Z</time></trkpt>
        <trkpt lat="29.5635758" lon="103.3888619"><ele>730.61</ele><time>2026-01-21T18:16:23.000Z</time></trkpt>
        <trkpt lat="29.5634806" lon="103.3888492"><ele>731.38</ele><time>2026-01-21T18:16:39.000Z</time></trkpt>
        <trkpt lat="29.5633841" lon="103.3888788"><ele>731.9</ele><time>2026-01-21T18:16:55.000Z</time></trkpt>
        <trkpt lat="29.5633841" lon="103.3888788"><ele>731.9</ele><time>2026-01-21T18:17:27.000Z</time></trkpt>
        <trkpt lat="29.5632834" lon="103.3889012"><ele>732.89</ele><time>2026-01-21T18:17:29.000Z</time></trkpt>
        <trkpt lat="29.5632834" lon="103.3889012"><ele>732.89</ele><time>2026-01-21T18:17:53.000Z</time></trkpt>
        <trkpt lat="29.5632834" lon="103.3889012"><ele>732.89</ele><time>2026-01-21T18:18:19.000Z</time></trkpt>
        <trkpt lat="29.563091" lon="103.3889076"><ele>733.28</ele><time>2026-01-21T18:18:37.000Z</time></trkpt>
        <trkpt lat="29.563091" lon="103.3889076"><ele>733.28</ele><time>2026-01-21T18:18:51.000Z</time></trkpt>
        <trkpt lat="29.5630049" lon="103.3889538"><ele>734.49</ele><time>2026-01-21T18:19:09.000Z</time></trkpt>
        <trkpt lat="29.5630049" lon="103.3889538"><ele>734.49</ele><time>2026-01-21T18:19:27.000Z</time></trkpt>
        <trkpt lat="29.5630049" lon="103.3889538"><ele>734.49</ele><time>2026-01-21T18:19:29.000Z</time></trkpt>
        <trkpt lat="29.5630049" lon="103.3889538"><ele>734.49</ele><time>2026-01-21T18:19:51.000Z</time></trkpt>
        <trkpt lat="29.5629233" lon="103.3890517"><ele>734.32</ele><time>2026-01-21T18:19:53.000Z</time></trkpt>
        <trkpt lat="29.5629233" lon="103.3890517"><ele>734.32</ele><time>2026-01-21T18:20:17.000Z</time></trkpt>
        <trkpt lat="29.5628333" lon="103.389075"><ele>733.07</ele><time>2026-01-21T18:20:27.000Z</time></trkpt>
        <trkpt lat="29.5627335" lon="103.3890871"><ele>732.35</ele><time>2026-01-21T18:20:39.000Z</time></trkpt>
        <trkpt lat="29.562637" lon="103.3891035"><ele>732.24</ele><time>2026-01-21T18:20:51.000Z</time></trkpt>
        <trkpt lat="29.562544" lon="103.3891151"><ele>732.57</ele><time>2026-01-21T18:21:05.000Z</time></trkpt>
        <trkpt lat="29.5624436" lon="103.3890598"><ele>733.74</ele><time>2026-01-21T18:21:17.000Z</time></trkpt>
        <trkpt lat="29.5623416" lon="103.3890479"><ele>735.36</ele><time>2026-01-21T18:21:29.000Z</time></trkpt>
        <trkpt lat="29.5622443" lon="103.3890732"><ele>737.01</ele><time>2026-01-21T18:21:37.000Z</time></trkpt>
        <trkpt lat="29.562149" lon="103.3890455"><ele>738.64</ele><time>2026-01-21T18:21:49.000Z</time></trkpt>
        <trkpt lat="29.5620693" lon="103.3890787"><ele>740.82</ele><time>2026-01-21T18:21:59.000Z</time></trkpt>
        <trkpt lat="29.5619914" lon="103.389151"><ele>743.99</ele><time>2026-01-21T18:22:11.000Z</time></trkpt>
        <trkpt lat="29.5620159" lon="103.3892626"><ele>745.2</ele><time>2026-01-21T18:22:23.000Z</time></trkpt>
        <trkpt lat="29.5620621" lon="103.3893703"><ele>743.18</ele><time>2026-01-21T18:22:35.000Z</time></trkpt>
        <trkpt lat="29.5620703" lon="103.3894837"><ele>739.02</ele><time>2026-01-21T18:22:45.000Z</time></trkpt>
        <trkpt lat="29.5619977" lon="103.3895034"><ele>735.48</ele><time>2026-01-21T18:23:03.000Z</time></trkpt>
        <trkpt lat="29.5619041" lon="103.3894714"><ele>731.27</ele><time>2026-01-21T18:23:15.000Z</time></trkpt>
        <trkpt lat="29.5618059" lon="103.3894348"><ele>729.22</ele><time>2026-01-21T18:23:29.000Z</time></trkpt>
        <trkpt lat="29.5617207" lon="103.3893617"><ele>729.56</ele><time>2026-01-21T18:23:39.000Z</time></trkpt>
        <trkpt lat="29.5616148" lon="103.3893346"><ele>731.94</ele><time>2026-01-21T18:23:49.000Z</time></trkpt>
        <trkpt lat="29.5615079" lon="103.3893455"><ele>734.03</ele><time>2026-01-21T18:23:59.000Z</time></trkpt>
        <trkpt lat="29.5613984" lon="103.3893232"><ele>735.48</ele><time>2026-01-21T18:24:11.000Z</time></trkpt>
        <trkpt lat="29.5612873" lon="103.3892978"><ele>737.34</ele><time>2026-01-21T18:24:21.000Z</time></trkpt>
        <trkpt lat="29.56119" lon="103.3892842"><ele>739.09</ele><time>2026-01-21T18:24:29.000Z</time></trkpt>
        <trkpt lat="29.5611106" lon="103.3893343"><ele>741.54</ele><time>2026-01-21T18:24:43.000Z</time></trkpt>
        <trkpt lat="29.5610135" lon="103.3893784"><ele>744.67</ele><time>2026-01-21T18:24:51.000Z</time></trkpt>
        <trkpt lat="29.560921" lon="103.3894142"><ele>747.18</ele><time>2026-01-21T18:25:01.000Z</time></trkpt>
        <trkpt lat="29.5608307" lon="103.3894603"><ele>749.29</ele><time>2026-01-21T18:25:09.000Z</time></trkpt>
        <trkpt lat="29.5607271" lon="103.3894509"><ele>750.93</ele><time>2026-01-21T18:25:17.000Z</time></trkpt>
        <trkpt lat="29.5606212" lon="103.3894755"><ele>752.47</ele><time>2026-01-21T18:25:25.000Z</time></trkpt>
        <trkpt lat="29.5605237" lon="103.3895026"><ele>753.9</ele><time>2026-01-21T18:25:31.000Z</time></trkpt>
        <trkpt lat="29.5604273" lon="103.3894827"><ele>754.67</ele><time>2026-01-21T18:25:41.000Z</time></trkpt>
        <trkpt lat="29.560326" lon="103.3894464"><ele>754.38</ele><time>2026-01-21T18:25:49.000Z</time></trkpt>
        <trkpt lat="29.5602354" lon="103.3893839"><ele>753.23</ele><time>2026-01-21T18:26:03.000Z</time></trkpt>
        <trkpt lat="29.560254" lon="103.389284"><ele>750.42</ele><time>2026-01-21T18:26:13.000Z</time></trkpt>
        <trkpt lat="29.5602255" lon="103.3891892"><ele>747.74</ele><time>2026-01-21T18:26:43.000Z</time></trkpt>
        <trkpt lat="29.5601737" lon="103.3890961"><ele>746.91</ele><time>2026-01-21T18:26:53.000Z</time></trkpt>
        <trkpt lat="29.5601326" lon="103.3889849"><ele>746.99</ele><time>2026-01-21T18:27:03.000Z</time></trkpt>
        <trkpt lat="29.5601126" lon="103.3888767"><ele>747.68</ele><time>2026-01-21T18:27:17.000Z</time></trkpt>
        <trkpt lat="29.5601591" lon="103.388791"><ele>750.14</ele><time>2026-01-21T18:27:31.000Z</time></trkpt>
        <trkpt lat="29.5601272" lon="103.3887116"><ele>753.95</ele><time>2026-01-21T18:27:41.000Z</time></trkpt>
        <trkpt lat="29.5600461" lon="103.3886711"><ele>757.33</ele><time>2026-01-21T18:27:49.000Z</time></trkpt>
        <trkpt lat="29.5599553" lon="103.3886152"><ele>759.9</ele><time>2026-01-21T18:27:57.000Z</time></trkpt>
        <trkpt lat="29.5598722" lon="103.3885423"><ele>761.83</ele><time>2026-01-21T18:28:05.000Z</time></trkpt>
        <trkpt lat="29.5597882" lon="103.3884752"><ele>763.15</ele><time>2026-01-21T18:28:15.000Z</time></trkpt>
        <trkpt lat="29.5597086" lon="103.3883946"><ele>763.82</ele><time>2026-01-21T18:28:25.000Z</time></trkpt>
        <trkpt lat="29.5596737" lon="103.388294"><ele>765.14</ele><time>2026-01-21T18:28:33.000Z</time></trkpt>
        <trkpt lat="29.5596652" lon="103.3881869"><ele>766.11</ele><time>2026-01-21T18:28:41.000Z</time></trkpt>
        <trkpt lat="29.5596238" lon="103.3880777"><ele>766.62</ele><time>2026-01-21T18:28:49.000Z</time></trkpt>
        <trkpt lat="29.5595326" lon="103.388024"><ele>766.01</ele><time>2026-01-21T18:28:59.000Z</time></trkpt>
        <trkpt lat="29.5594399" lon="103.3879749"><ele>763.73</ele><time>2026-01-21T18:29:07.000Z</time></trkpt>
        <trkpt lat="29.5593707" lon="103.3878887"><ele>761.18</ele><time>2026-01-21T18:29:17.000Z</time></trkpt>
        <trkpt lat="29.5592781" lon="103.3878284"><ele>758.74</ele><time>2026-01-21T18:29:27.000Z</time></trkpt>
        <trkpt lat="29.5591964" lon="103.3877501"><ele>757.09</ele><time>2026-01-21T18:29:39.000Z</time></trkpt>
        <trkpt lat="29.5591036" lon="103.3877306"><ele>755.03</ele><time>2026-01-21T18:29:49.000Z</time></trkpt>
        <trkpt lat="29.5590028" lon="103.3877158"><ele>751.1</ele><time>2026-01-21T18:29:57.000Z</time></trkpt>
        <trkpt lat="29.5589098" lon="103.3877334"><ele>747.23</ele><time>2026-01-21T18:30:05.000Z</time></trkpt>
        <trkpt lat="29.5588141" lon="103.3877612"><ele>746.61</ele><time>2026-01-21T18:30:13.000Z</time></trkpt>
        <trkpt lat="29.5587049" lon="103.3877774"><ele>748.5</ele><time>2026-01-21T18:30:21.000Z</time></trkpt>
        <trkpt lat="29.5586247" lon="103.3877185"><ele>751.47</ele><time>2026-01-21T18:30:31.000Z</time></trkpt>
        <trkpt lat="29.5585283" lon="103.3876843"><ele>755.48</ele><time>2026-01-21T18:30:41.000Z</time></trkpt>
        <trkpt lat="29.5584474" lon="103.3876217"><ele>760.26</ele><time>2026-01-21T18:30:51.000Z</time></trkpt>
        <trkpt lat="29.5583737" lon="103.3875494"><ele>765.7</ele><time>2026-01-21T18:30:59.000Z</time></trkpt>
        <trkpt lat="29.5582831" lon="103.3874968"><ele>769.57</ele><time>2026-01-21T18:31:09.000Z</time></trkpt>
        <trkpt lat="29.5582082" lon="103.3874091"><ele>772.34</ele><time>2026-01-21T18:31:21.000Z</time></trkpt>
        <trkpt lat="29.5581482" lon="103.3873222"><ele>773.48</ele><time>2026-01-21T18:31:31.000Z</time></trkpt>
        <trkpt lat="29.5580956" lon="103.3872235"><ele>773.66</ele><time>2026-01-21T18:31:45.000Z</time></trkpt>
        <trkpt lat="29.5580221" lon="103.3871377"><ele>773.76</ele><time>2026-01-21T18:31:55.000Z</time></trkpt>
        <trkpt lat="29.5579373" lon="103.3870677"><ele>774.04</ele><time>2026-01-21T18:32:03.000Z</time></trkpt>
        <trkpt lat="29.5578366" lon="103.387031"><ele>774.49</ele><time>2026-01-21T18:32:13.000Z</time></trkpt>
        <trkpt lat="29.5577398" lon="103.3870118"><ele>775.27</ele><time>2026-01-21T18:32:23.000Z</time></trkpt>
        <trkpt lat="29.5577084" lon="103.386929"><ele>777</ele><time>2026-01-21T18:32:41.000Z</time></trkpt>
        <trkpt lat="29.5576825" lon="103.3868271"><ele>780.31</ele><time>2026-01-21T18:32:53.000Z</time></trkpt>
        <trkpt lat="29.5576079" lon="103.3867518"><ele>782.72</ele><time>2026-01-21T18:33:03.000Z</time></trkpt>
        <trkpt lat="29.5575246" lon="103.3866723"><ele>784</ele><time>2026-01-21T18:33:13.000Z</time></trkpt>
        <trkpt lat="29.5574485" lon="103.3865784"><ele>784.73</ele><time>2026-01-21T18:33:27.000Z</time></trkpt>
        <trkpt lat="29.5573613" lon="103.3864932"><ele>783.81</ele><time>2026-01-21T18:33:37.000Z</time></trkpt>
        <trkpt lat="29.5572804" lon="103.3864207"><ele>782.3</ele><time>2026-01-21T18:33:49.000Z</time></trkpt>
        <trkpt lat="29.557185" lon="103.3863553"><ele>780.71</ele><time>2026-01-21T18:33:59.000Z</time></trkpt>
        <trkpt lat="29.5570894" lon="103.3863796"><ele>780.23</ele><time>2026-01-21T18:34:09.000Z</time></trkpt>
        <trkpt lat="29.5570146" lon="103.3863255"><ele>781.12</ele><time>2026-01-21T18:34:23.000Z</time></trkpt>
        <trkpt lat="29.5569866" lon="103.3862175"><ele>784.12</ele><time>2026-01-21T18:34:33.000Z</time></trkpt>
        <trkpt lat="29.5569235" lon="103.3861264"><ele>787.51</ele><time>2026-01-21T18:34:43.000Z</time></trkpt>
        <trkpt lat="29.5568558" lon="103.3860489"><ele>789.61</ele><time>2026-01-21T18:34:51.000Z</time></trkpt>
        <trkpt lat="29.5567668" lon="103.3860125"><ele>791.29</ele><time>2026-01-21T18:35:03.000Z</time></trkpt>
        <trkpt lat="29.5566677" lon="103.3860235"><ele>792.24</ele><time>2026-01-21T18:35:13.000Z</time></trkpt>
        <trkpt lat="29.5565778" lon="103.386082"><ele>792.44</ele><time>2026-01-21T18:35:27.000Z</time></trkpt>
        <trkpt lat="29.5564849" lon="103.3860976"><ele>792.12</ele><time>2026-01-21T18:35:51.000Z</time></trkpt>
        <trkpt lat="29.55645" lon="103.3860179"><ele>791.94</ele><time>2026-01-21T18:36:09.000Z</time></trkpt>
        <trkpt lat="29.5564415" lon="103.3859094"><ele>793.08</ele><time>2026-01-21T18:36:27.000Z</time></trkpt>
        <trkpt lat="29.5563821" lon="103.3858995"><ele>795.63</ele><time>2026-01-21T18:36:45.000Z</time></trkpt>
        <trkpt lat="29.5563159" lon="103.3859638"><ele>799.14</ele><time>2026-01-21T18:37:01.000Z</time></trkpt>
        <trkpt lat="29.5562461" lon="103.3860558"><ele>802.57</ele><time>2026-01-21T18:37:23.000Z</time></trkpt>
        <trkpt lat="29.5561558" lon="103.3860934"><ele>808.13</ele><time>2026-01-21T18:37:45.000Z</time></trkpt>
        <trkpt lat="29.5560612" lon="103.3860878"><ele>814.83</ele><time>2026-01-21T18:38:05.000Z</time></trkpt>
        <trkpt lat="29.5559804" lon="103.3860319"><ele>821.61</ele><time>2026-01-21T18:38:31.000Z</time></trkpt>
        <trkpt lat="29.5559044" lon="103.385964"><ele>827.76</ele><time>2026-01-21T18:38:47.000Z</time></trkpt>
        <trkpt lat="29.5559589" lon="103.3859548"><ele>832.51</ele><time>2026-01-21T18:39:03.000Z</time></trkpt>
        <trkpt lat="29.556057" lon="103.3859185"><ele>836.55</ele><time>2026-01-21T18:39:15.000Z</time></trkpt>
        <trkpt lat="29.556057" lon="103.3859185"><ele>836.55</ele><time>2026-01-21T18:39:37.000Z</time></trkpt>
        <trkpt lat="29.556057" lon="103.3859185"><ele>836.55</ele><time>2026-01-21T18:39:47.000Z</time></trkpt>
        <trkpt lat="29.556057" lon="103.3859185"><ele>836.55</ele><time>2026-01-21T18:40:01.000Z</time></trkpt>
        <trkpt lat="29.5560117" lon="103.3858467"><ele>838.89</ele><time>2026-01-21T18:40:31.000Z</time></trkpt>
        <trkpt lat="29.5560117" lon="103.3858467"><ele>838.89</ele><time>2026-01-21T18:40:49.000Z</time></trkpt>
        <trkpt lat="29.556075" lon="103.385765"><ele>840.01</ele><time>2026-01-21T18:41:13.000Z</time></trkpt>
        <trkpt lat="29.5561087" lon="103.3856565"><ele>841.81</ele><time>2026-01-21T18:41:25.000Z</time></trkpt>
        <trkpt lat="29.5560909" lon="103.3855485"><ele>843.19</ele><time>2026-01-21T18:41:39.000Z</time></trkpt>
        <trkpt lat="29.5561032" lon="103.3854366"><ele>844.4</ele><time>2026-01-21T18:41:55.000Z</time></trkpt>
        <trkpt lat="29.5560432" lon="103.3854514"><ele>846.85</ele><time>2026-01-21T18:42:13.000Z</time></trkpt>
        <trkpt lat="29.5559732" lon="103.3855281"><ele>849.8</ele><time>2026-01-21T18:42:27.000Z</time></trkpt>
        <trkpt lat="29.5559036" lon="103.3855043"><ele>852.59</ele><time>2026-01-21T18:43:03.000Z</time></trkpt>
        <trkpt lat="29.5558182" lon="103.3855384"><ele>856.94</ele><time>2026-01-21T18:43:21.000Z</time></trkpt>
        <trkpt lat="29.5557321" lon="103.3855165"><ele>860.92</ele><time>2026-01-21T18:43:45.000Z</time></trkpt>
        <trkpt lat="29.5556887" lon="103.3854318"><ele>865.99</ele><time>2026-01-21T18:44:19.000Z</time></trkpt>
        <trkpt lat="29.5556594" lon="103.3853262"><ele>870.77</ele><time>2026-01-21T18:44:51.000Z</time></trkpt>
        <trkpt lat="29.5556817" lon="103.3852017"><ele>875.86</ele><time>2026-01-21T18:45:53.000Z</time></trkpt>
        <trkpt lat="29.5557" lon="103.3850917"><ele>882.07</ele><time>2026-01-21T18:46:11.000Z</time></trkpt>
        <trkpt lat="29.5556281" lon="103.3850479"><ele>886.38</ele><time>2026-01-21T18:46:31.000Z</time></trkpt>
        <trkpt lat="29.5555312" lon="103.3850263"><ele>890.82</ele><time>2026-01-21T18:46:55.000Z</time></trkpt>
        <trkpt lat="29.5555312" lon="103.3850263"><ele>890.82</ele><time>2026-01-21T18:47:11.000Z</time></trkpt>
        <trkpt lat="29.55541" lon="103.38502"><ele>894.64</ele><time>2026-01-21T18:48:59.000Z</time></trkpt>
        <trkpt lat="29.55541" lon="103.38502"><ele>894.64</ele><time>2026-01-21T18:49:41.000Z</time></trkpt>
        <trkpt lat="29.5553183" lon="103.3849867"><ele>893.5</ele><time>2026-01-21T18:50:05.000Z</time></trkpt>
        <trkpt lat="29.5552253" lon="103.3849576"><ele>896</ele><time>2026-01-21T18:50:21.000Z</time></trkpt>
        <trkpt lat="29.5551319" lon="103.3849537"><ele>899.31</ele><time>2026-01-21T18:50:37.000Z</time></trkpt>
        <trkpt lat="29.5550398" lon="103.3849326"><ele>903.35</ele><time>2026-01-21T18:50:51.000Z</time></trkpt>
        <trkpt lat="29.5549506" lon="103.384892"><ele>907.67</ele><time>2026-01-21T18:51:07.000Z</time></trkpt>
        <trkpt lat="29.5548637" lon="103.3848456"><ele>912.76</ele><time>2026-01-21T18:51:21.000Z</time></trkpt>
        <trkpt lat="29.5547949" lon="103.3847707"><ele>917.64</ele><time>2026-01-21T18:51:35.000Z</time></trkpt>
        <trkpt lat="29.5547276" lon="103.3846876"><ele>922.01</ele><time>2026-01-21T18:51:47.000Z</time></trkpt>
        <trkpt lat="29.5546622" lon="103.3846048"><ele>924.89</ele><time>2026-01-21T18:52:03.000Z</time></trkpt>
        <trkpt lat="29.5546019" lon="103.3845224"><ele>927.34</ele><time>2026-01-21T18:52:19.000Z</time></trkpt>
        <trkpt lat="29.5546581" lon="103.3844948"><ele>929.91</ele><time>2026-01-21T18:52:39.000Z</time></trkpt>
        <trkpt lat="29.5547514" lon="103.3844576"><ele>932.66</ele><time>2026-01-21T18:53:01.000Z</time></trkpt>
        <trkpt lat="29.5548478" lon="103.3844178"><ele>936.76</ele><time>2026-01-21T18:53:23.000Z</time></trkpt>
        <trkpt lat="29.554931" lon="103.3843511"><ele>940.52</ele><time>2026-01-21T18:53:43.000Z</time></trkpt>
        <trkpt lat="29.5550226" lon="103.3843004"><ele>944.3</ele><time>2026-01-21T18:53:59.000Z</time></trkpt>
        <trkpt lat="29.5550862" lon="103.3842244"><ele>947.57</ele><time>2026-01-21T18:54:21.000Z</time></trkpt>
        <trkpt lat="29.555061" lon="103.3841364"><ele>951.8</ele><time>2026-01-21T18:54:33.000Z</time></trkpt>
        <trkpt lat="29.5550107" lon="103.3840403"><ele>954.85</ele><time>2026-01-21T18:54:43.000Z</time></trkpt>
        <trkpt lat="29.5549603" lon="103.3839388"><ele>957.41</ele><time>2026-01-21T18:54:55.000Z</time></trkpt>
        <trkpt lat="29.5549603" lon="103.3839388"><ele>957.41</ele><time>2026-01-21T18:55:25.000Z</time></trkpt>
        <trkpt lat="29.5549603" lon="103.3839388"><ele>957.41</ele><time>2026-01-21T18:55:27.000Z</time></trkpt>
        <trkpt lat="29.5549603" lon="103.3839388"><ele>957.41</ele><time>2026-01-21T18:55:43.000Z</time></trkpt>
        <trkpt lat="29.5549603" lon="103.3839388"><ele>957.41</ele><time>2026-01-21T18:55:53.000Z</time></trkpt>
        <trkpt lat="29.5549603" lon="103.3839388"><ele>957.41</ele><time>2026-01-21T18:56:09.000Z</time></trkpt>
        <trkpt lat="29.5549603" lon="103.3839388"><ele>957.41</ele><time>2026-01-21T18:56:27.000Z</time></trkpt>
        <trkpt lat="29.5549603" lon="103.3839388"><ele>957.41</ele><time>2026-01-21T18:56:49.000Z</time></trkpt>
        <trkpt lat="29.5549933" lon="103.3838433"><ele>959.34</ele><time>2026-01-21T18:57:09.000Z</time></trkpt>
        <trkpt lat="29.5549933" lon="103.3838433"><ele>959.34</ele><time>2026-01-21T18:57:21.000Z</time></trkpt>
        <trkpt lat="29.5549367" lon="103.3839483"><ele>964.79</ele><time>2026-01-21T18:57:29.000Z</time></trkpt>
        <trkpt lat="29.5549562" lon="103.3838644"><ele>966.21</ele><time>2026-01-21T18:57:51.000Z</time></trkpt>
        <trkpt lat="29.5550136" lon="103.3837572"><ele>965.52</ele><time>2026-01-21T18:58:03.000Z</time></trkpt>
        <trkpt lat="29.5550406" lon="103.3836306"><ele>964.09</ele><time>2026-01-21T18:58:13.000Z</time></trkpt>
        <trkpt lat="29.555027" lon="103.3835126"><ele>961.77</ele><time>2026-01-21T18:58:25.000Z</time></trkpt>
        <trkpt lat="29.5549618" lon="103.3834256"><ele>958.95</ele><time>2026-01-21T18:58:37.000Z</time></trkpt>
        <trkpt lat="29.5548659" lon="103.3833642"><ele>956.9</ele><time>2026-01-21T18:58:47.000Z</time></trkpt>
        <trkpt lat="29.5547815" lon="103.3832864"><ele>955.74</ele><time>2026-01-21T18:58:57.000Z</time></trkpt>
        <trkpt lat="29.5547051" lon="103.3832158"><ele>955.81</ele><time>2026-01-21T18:59:09.000Z</time></trkpt>
        <trkpt lat="29.5546253" lon="103.3831415"><ele>957.74</ele><time>2026-01-21T18:59:15.000Z</time></trkpt>
        <trkpt lat="29.5545347" lon="103.3830843"><ele>959.7</ele><time>2026-01-21T18:59:29.000Z</time></trkpt>
        <trkpt lat="29.5544566" lon="103.383017"><ele>963.74</ele><time>2026-01-21T18:59:39.000Z</time></trkpt>
        <trkpt lat="29.5543877" lon="103.3829375"><ele>967.94</ele><time>2026-01-21T18:59:59.000Z</time></trkpt>
        <trkpt lat="29.5543883" lon="103.3828349"><ele>972.1</ele><time>2026-01-21T19:00:21.000Z</time></trkpt>
        <trkpt lat="29.5543847" lon="103.3827282"><ele>973.26</ele><time>2026-01-21T19:00:44.000Z</time></trkpt>
        <trkpt lat="29.5543981" lon="103.3826205"><ele>973.71</ele><time>2026-01-21T19:01:02.000Z</time></trkpt>
        <trkpt lat="29.5543492" lon="103.3825398"><ele>975.25</ele><time>2026-01-21T19:01:14.000Z</time></trkpt>
        <trkpt lat="29.5542958" lon="103.3824432"><ele>977.55</ele><time>2026-01-21T19:01:34.000Z</time></trkpt>
        <trkpt lat="29.5542317" lon="103.3823598"><ele>980.15</ele><time>2026-01-21T19:01:44.000Z</time></trkpt>
        <trkpt lat="29.554209" lon="103.3822577"><ele>982.11</ele><time>2026-01-21T19:01:56.000Z</time></trkpt>
        <trkpt lat="29.5542104" lon="103.3821456"><ele>984.26</ele><time>2026-01-21T19:02:08.000Z</time></trkpt>
        <trkpt lat="29.5542103" lon="103.3820331"><ele>986.17</ele><time>2026-01-21T19:02:20.000Z</time></trkpt>
        <trkpt lat="29.5541938" lon="103.3819239"><ele>987.47</ele><time>2026-01-21T19:02:30.000Z</time></trkpt>
        <trkpt lat="29.5541538" lon="103.3818189"><ele>988.3</ele><time>2026-01-21T19:02:44.000Z</time></trkpt>
        <trkpt lat="29.5541433" lon="103.3817118"><ele>988.52</ele><time>2026-01-21T19:03:04.000Z</time></trkpt>
        <trkpt lat="29.5541024" lon="103.3816062"><ele>990.32</ele><time>2026-01-21T19:03:16.000Z</time></trkpt>
        <trkpt lat="29.5540646" lon="103.3814987"><ele>992.59</ele><time>2026-01-21T19:03:28.000Z</time></trkpt>
        <trkpt lat="29.5540454" lon="103.3813905"><ele>994.62</ele><time>2026-01-21T19:03:40.000Z</time></trkpt>
        <trkpt lat="29.5540335" lon="103.381277"><ele>996.54</ele><time>2026-01-21T19:03:52.000Z</time></trkpt>
        <trkpt lat="29.5540159" lon="103.3811604"><ele>997.99</ele><time>2026-01-21T19:04:02.000Z</time></trkpt>
        <trkpt lat="29.5539768" lon="103.3810593"><ele>998.55</ele><time>2026-01-21T19:04:12.000Z</time></trkpt>
        <trkpt lat="29.5539333" lon="103.380958"><ele>998.66</ele><time>2026-01-21T19:04:26.000Z</time></trkpt>
        <trkpt lat="29.5539634" lon="103.3808571"><ele>999.54</ele><time>2026-01-21T19:04:38.000Z</time></trkpt>
        <trkpt lat="29.5539972" lon="103.3807498"><ele>1000.64</ele><time>2026-01-21T19:04:50.000Z</time></trkpt>
        <trkpt lat="29.5540565" lon="103.38066"><ele>1001.96</ele><time>2026-01-21T19:05:00.000Z</time></trkpt>
        <trkpt lat="29.5540791" lon="103.3805605"><ele>1002.84</ele><time>2026-01-21T19:05:14.000Z</time></trkpt>
        <trkpt lat="29.554057" lon="103.380453"><ele>1003.29</ele><time>2026-01-21T19:05:26.000Z</time></trkpt>
        <trkpt lat="29.5540442" lon="103.3803463"><ele>1003.55</ele><time>2026-01-21T19:05:36.000Z</time></trkpt>
        <trkpt lat="29.554044" lon="103.3802342"><ele>1003.79</ele><time>2026-01-21T19:05:48.000Z</time></trkpt>
        <trkpt lat="29.5540418" lon="103.3801215"><ele>1003.84</ele><time>2026-01-21T19:06:00.000Z</time></trkpt>
        <trkpt lat="29.5540387" lon="103.3800116"><ele>1004.04</ele><time>2026-01-21T19:06:14.000Z</time></trkpt>
        <trkpt lat="29.5540178" lon="103.3799091"><ele>1005.35</ele><time>2026-01-21T19:06:30.000Z</time></trkpt>
        <trkpt lat="29.5539753" lon="103.3798157"><ele>1007.35</ele><time>2026-01-21T19:06:50.000Z</time></trkpt>
        <trkpt lat="29.5539599" lon="103.3797151"><ele>1010.3</ele><time>2026-01-21T19:07:14.000Z</time></trkpt>
        <trkpt lat="29.5539435" lon="103.3796099"><ele>1014.39</ele><time>2026-01-21T19:07:34.000Z</time></trkpt>
        <trkpt lat="29.5539061" lon="103.3795106"><ele>1017.27</ele><time>2026-01-21T19:07:54.000Z</time></trkpt>
        <trkpt lat="29.5538859" lon="103.3794011"><ele>1019.87</ele><time>2026-01-21T19:08:10.000Z</time></trkpt>
        <trkpt lat="29.5538504" lon="103.3793003"><ele>1022.38</ele><time>2026-01-21T19:08:28.000Z</time></trkpt>
        <trkpt lat="29.5538177" lon="103.3791893"><ele>1024.84</ele><time>2026-01-21T19:08:46.000Z</time></trkpt>
        <trkpt lat="29.553793" lon="103.3790794"><ele>1027.23</ele><time>2026-01-21T19:08:58.000Z</time></trkpt>
        <trkpt lat="29.5537888" lon="103.378964"><ele>1029.41</ele><time>2026-01-21T19:09:10.000Z</time></trkpt>
        <trkpt lat="29.5538181" lon="103.3788519"><ele>1031.08</ele><time>2026-01-21T19:09:22.000Z</time></trkpt>
        <trkpt lat="29.553857" lon="103.3787387"><ele>1032.55</ele><time>2026-01-21T19:09:34.000Z</time></trkpt>
        <trkpt lat="29.5538557" lon="103.3786253"><ele>1033.65</ele><time>2026-01-21T19:09:48.000Z</time></trkpt>
        <trkpt lat="29.5538427" lon="103.3785169"><ele>1034.66</ele><time>2026-01-21T19:10:04.000Z</time></trkpt>
        <trkpt lat="29.553808" lon="103.378419"><ele>1035.54</ele><time>2026-01-21T19:10:20.000Z</time></trkpt>
        <trkpt lat="29.5537716" lon="103.3783148"><ele>1037.2</ele><time>2026-01-21T19:10:40.000Z</time></trkpt>
        <trkpt lat="29.5537026" lon="103.3782301"><ele>1040.12</ele><time>2026-01-21T19:10:54.000Z</time></trkpt>
        <trkpt lat="29.5536516" lon="103.378135"><ele>1042.82</ele><time>2026-01-21T19:11:08.000Z</time></trkpt>
        <trkpt lat="29.5535983" lon="103.3780374"><ele>1044.71</ele><time>2026-01-21T19:11:24.000Z</time></trkpt>
        <trkpt lat="29.5535419" lon="103.3779466"><ele>1047.46</ele><time>2026-01-21T19:11:44.000Z</time></trkpt>
        <trkpt lat="29.5534871" lon="103.3778582"><ele>1050.57</ele><time>2026-01-21T19:12:06.000Z</time></trkpt>
        <trkpt lat="29.5534233" lon="103.3777818"><ele>1054.28</ele><time>2026-01-21T19:12:40.000Z</time></trkpt>
        <trkpt lat="29.5533574" lon="103.3777094"><ele>1059.32</ele><time>2026-01-21T19:13:06.000Z</time></trkpt>
        <trkpt lat="29.5532813" lon="103.3776477"><ele>1063.79</ele><time>2026-01-21T19:13:42.000Z</time></trkpt>
        <trkpt lat="29.5532069" lon="103.3775868"><ele>1069.86</ele><time>2026-01-21T19:14:02.000Z</time></trkpt>
        <trkpt lat="29.5531564" lon="103.3774976"><ele>1075.12</ele><time>2026-01-21T19:14:24.000Z</time></trkpt>
        <trkpt lat="29.5530862" lon="103.3774302"><ele>1079.63</ele><time>2026-01-21T19:14:48.000Z</time></trkpt>
        <trkpt lat="29.5530201" lon="103.3773582"><ele>1083.19</ele><time>2026-01-21T19:15:14.000Z</time></trkpt>
        <trkpt lat="29.5529511" lon="103.3772827"><ele>1087.75</ele><time>2026-01-21T19:15:40.000Z</time></trkpt>
        <trkpt lat="29.5528684" lon="103.3772085"><ele>1092.42</ele><time>2026-01-21T19:15:58.000Z</time></trkpt>
        <trkpt lat="29.5527759" lon="103.3771837"><ele>1096.63</ele><time>2026-01-21T19:16:22.000Z</time></trkpt>
        <trkpt lat="29.552702" lon="103.3771244"><ele>1101.05</ele><time>2026-01-21T19:16:42.000Z</time></trkpt>
        <trkpt lat="29.5526296" lon="103.3770561"><ele>1105.03</ele><time>2026-01-21T19:17:02.000Z</time></trkpt>
        <trkpt lat="29.5525447" lon="103.3770426"><ele>1109.27</ele><time>2026-01-21T19:17:24.000Z</time></trkpt>
        <trkpt lat="29.5524574" lon="103.3770135"><ele>1113.11</ele><time>2026-01-21T19:17:42.000Z</time></trkpt>
        <trkpt lat="29.5523697" lon="103.376976"><ele>1116.51</ele><time>2026-01-21T19:18:04.000Z</time></trkpt>
        <trkpt lat="29.5522798" lon="103.3769376"><ele>1121.15</ele><time>2026-01-21T19:18:26.000Z</time></trkpt>
        <trkpt lat="29.5521931" lon="103.3768851"><ele>1126.2</ele><time>2026-01-21T19:18:50.000Z</time></trkpt>
        <trkpt lat="29.5521102" lon="103.3768227"><ele>1131.11</ele><time>2026-01-21T19:19:08.000Z</time></trkpt>
        <trkpt lat="29.5520163" lon="103.3767762"><ele>1135.32</ele><time>2026-01-21T19:19:32.000Z</time></trkpt>
        <trkpt lat="29.5518979" lon="103.3767542"><ele>1139.66</ele><time>2026-01-21T19:19:58.000Z</time></trkpt>
        <trkpt lat="29.5518125" lon="103.3766955"><ele>1142.94</ele><time>2026-01-21T19:20:06.000Z</time></trkpt>
        <trkpt lat="29.5518125" lon="103.3766955"><ele>1142.94</ele><time>2026-01-21T19:20:33.000Z</time></trkpt>
        <trkpt lat="29.5518125" lon="103.3766955"><ele>1142.94</ele><time>2026-01-21T19:20:37.000Z</time></trkpt>
        <trkpt lat="29.5518125" lon="103.3766955"><ele>1142.94</ele><time>2026-01-21T19:21:07.000Z</time></trkpt>
        <trkpt lat="29.5518125" lon="103.3766955"><ele>1142.94</ele><time>2026-01-21T19:22:23.000Z</time></trkpt>
        <trkpt lat="29.5518125" lon="103.3766955"><ele>1142.94</ele><time>2026-01-21T19:22:39.000Z</time></trkpt>
        <trkpt lat="29.5518125" lon="103.3766955"><ele>1142.94</ele><time>2026-01-21T19:22:47.000Z</time></trkpt>
        <trkpt lat="29.5518125" lon="103.3766955"><ele>1142.94</ele><time>2026-01-21T19:23:03.000Z</time></trkpt>
        <trkpt lat="29.5518125" lon="103.3766955"><ele>1142.94</ele><time>2026-01-21T19:23:07.000Z</time></trkpt>
        <trkpt lat="29.5518125" lon="103.3766955"><ele>1142.94</ele><time>2026-01-21T19:23:31.000Z</time></trkpt>
        <trkpt lat="29.5518125" lon="103.3766955"><ele>1142.94</ele><time>2026-01-21T19:23:45.000Z</time></trkpt>
        <trkpt lat="29.5518125" lon="103.3766955"><ele>1142.94</ele><time>2026-01-21T19:24:01.000Z</time></trkpt>
        <trkpt lat="29.5518125" lon="103.3766955"><ele>1142.94</ele><time>2026-01-21T19:24:07.000Z</time></trkpt>
        <trkpt lat="29.5518125" lon="103.3766955"><ele>1142.94</ele><time>2026-01-21T19:24:23.000Z</time></trkpt>
        <trkpt lat="29.5518125" lon="103.3766955"><ele>1142.94</ele><time>2026-01-21T19:24:29.000Z</time></trkpt>
        <trkpt lat="29.5518125" lon="103.3766955"><ele>1142.94</ele><time>2026-01-21T19:24:43.000Z</time></trkpt>
        <trkpt lat="29.5518125" lon="103.3766955"><ele>1142.94</ele><time>2026-01-21T19:24:47.000Z</time></trkpt>
        <trkpt lat="29.5518125" lon="103.3766955"><ele>1142.94</ele><time>2026-01-21T19:25:05.000Z</time></trkpt>
        <trkpt lat="29.5517633" lon="103.376515"><ele>1144.9</ele><time>2026-01-21T19:25:21.000Z</time></trkpt>
        <trkpt lat="29.5517633" lon="103.376515"><ele>1144.9</ele><time>2026-01-21T19:25:52.000Z</time></trkpt>
        <trkpt lat="29.5517581" lon="103.3763736"><ele>1147.31</ele><time>2026-01-21T19:26:26.000Z</time></trkpt>
        <trkpt lat="29.5517233" lon="103.3762433"><ele>1152.68</ele><time>2026-01-21T19:27:26.000Z</time></trkpt>
        <trkpt lat="29.5517483" lon="103.376135"><ele>1161.98</ele><time>2026-01-21T19:27:46.000Z</time></trkpt>
        <trkpt lat="29.5517338" lon="103.3760281"><ele>1168.53</ele><time>2026-01-21T19:28:12.000Z</time></trkpt>
        <trkpt lat="29.551742" lon="103.3759227"><ele>1173.29</ele><time>2026-01-21T19:28:42.000Z</time></trkpt>
        <trkpt lat="29.5517093" lon="103.3758216"><ele>1179.14</ele><time>2026-01-21T19:28:56.000Z</time></trkpt>
        <trkpt lat="29.5516705" lon="103.3757231"><ele>1183.17</ele><time>2026-01-21T19:29:08.000Z</time></trkpt>
        <trkpt lat="29.5516365" lon="103.3756117"><ele>1185.25</ele><time>2026-01-21T19:29:20.000Z</time></trkpt>
        <trkpt lat="29.5515693" lon="103.3755252"><ele>1186.78</ele><time>2026-01-21T19:29:32.000Z</time></trkpt>
        <trkpt lat="29.5515006" lon="103.3754496"><ele>1187.95</ele><time>2026-01-21T19:29:44.000Z</time></trkpt>
        <trkpt lat="29.5514246" lon="103.375387"><ele>1188.79</ele><time>2026-01-21T19:29:56.000Z</time></trkpt>
        <trkpt lat="29.5513484" lon="103.3753254"><ele>1188.88</ele><time>2026-01-21T19:30:08.000Z</time></trkpt>
        <trkpt lat="29.5512619" lon="103.3752892"><ele>1188.5</ele><time>2026-01-21T19:30:26.000Z</time></trkpt>
        <trkpt lat="29.5511709" lon="103.3752614"><ele>1187.47</ele><time>2026-01-21T19:30:56.000Z</time></trkpt>
        <trkpt lat="29.5510804" lon="103.375235"><ele>1187.95</ele><time>2026-01-21T19:31:08.000Z</time></trkpt>
        <trkpt lat="29.5509858" lon="103.3752077"><ele>1188.96</ele><time>2026-01-21T19:31:24.000Z</time></trkpt>
        <trkpt lat="29.55089" lon="103.3752105"><ele>1191.09</ele><time>2026-01-21T19:31:46.000Z</time></trkpt>
        <trkpt lat="29.5508043" lon="103.3751725"><ele>1194.32</ele><time>2026-01-21T19:32:02.000Z</time></trkpt>
        <trkpt lat="29.5507174" lon="103.3751329"><ele>1197.24</ele><time>2026-01-21T19:32:12.000Z</time></trkpt>
        <trkpt lat="29.5506285" lon="103.3750914"><ele>1199.33</ele><time>2026-01-21T19:32:26.000Z</time></trkpt>
        <trkpt lat="29.5505437" lon="103.3750362"><ele>1200.99</ele><time>2026-01-21T19:32:38.000Z</time></trkpt>
        <trkpt lat="29.5504467" lon="103.3750052"><ele>1202.54</ele><time>2026-01-21T19:32:50.000Z</time></trkpt>
        <trkpt lat="29.5503563" lon="103.3749541"><ele>1203.6</ele><time>2026-01-21T19:33:02.000Z</time></trkpt>
        <trkpt lat="29.5502651" lon="103.3749149"><ele>1203.17</ele><time>2026-01-21T19:33:12.000Z</time></trkpt>
        <trkpt lat="29.550176" lon="103.3748908"><ele>1202.24</ele><time>2026-01-21T19:33:26.000Z</time></trkpt>
        <trkpt lat="29.5500865" lon="103.3748643"><ele>1201.53</ele><time>2026-01-21T19:33:48.000Z</time></trkpt>
        <trkpt lat="29.5500054" lon="103.3748185"><ele>1201.86</ele><time>2026-01-21T19:34:00.000Z</time></trkpt>
        <trkpt lat="29.5499224" lon="103.3747777"><ele>1202.7</ele><time>2026-01-21T19:34:20.000Z</time></trkpt>
        <trkpt lat="29.5498996" lon="103.3746858"><ele>1204.68</ele><time>2026-01-21T19:34:36.000Z</time></trkpt>
        <trkpt lat="29.5499587" lon="103.3746042"><ele>1206.79</ele><time>2026-01-21T19:34:50.000Z</time></trkpt>
        <trkpt lat="29.5500269" lon="103.3745167"><ele>1208.52</ele><time>2026-01-21T19:35:14.000Z</time></trkpt>
        <trkpt lat="29.5500983" lon="103.3744281"><ele>1211.56</ele><time>2026-01-21T19:36:00.000Z</time></trkpt>
        <trkpt lat="29.5501696" lon="103.3743411"><ele>1217.52</ele><time>2026-01-21T19:36:14.000Z</time></trkpt>
        <trkpt lat="29.550255" lon="103.3742903"><ele>1221.98</ele><time>2026-01-21T19:36:30.000Z</time></trkpt>
        <trkpt lat="29.5503392" lon="103.3742353"><ele>1225.47</ele><time>2026-01-21T19:36:46.000Z</time></trkpt>
        <trkpt lat="29.5504105" lon="103.3741645"><ele>1228.71</ele><time>2026-01-21T19:36:56.000Z</time></trkpt>
        <trkpt lat="29.5504925" lon="103.3741095"><ele>1231.55</ele><time>2026-01-21T19:37:10.000Z</time></trkpt>
        <trkpt lat="29.5505852" lon="103.3741423"><ele>1234.8</ele><time>2026-01-21T19:37:22.000Z</time></trkpt>
        <trkpt lat="29.5506513" lon="103.37408"><ele>1237.55</ele><time>2026-01-21T19:37:36.000Z</time></trkpt>
        <trkpt lat="29.5507293" lon="103.3740292"><ele>1238.65</ele><time>2026-01-21T19:37:44.000Z</time></trkpt>
        <trkpt lat="29.5508003" lon="103.3739637"><ele>1238.84</ele><time>2026-01-21T19:38:02.000Z</time></trkpt>
        <trkpt lat="29.5508003" lon="103.3739637"><ele>1238.84</ele><time>2026-01-21T19:38:19.000Z</time></trkpt>
        <trkpt lat="29.5508649" lon="103.3738836"><ele>1238.65</ele><time>2026-01-21T19:38:21.000Z</time></trkpt>
        <trkpt lat="29.5508649" lon="103.3738836"><ele>1238.65</ele><time>2026-01-21T19:38:34.000Z</time></trkpt>
        <trkpt lat="29.5509286" lon="103.373793"><ele>1235.75</ele><time>2026-01-21T19:38:46.000Z</time></trkpt>
        <trkpt lat="29.5510177" lon="103.3737577"><ele>1233.23</ele><time>2026-01-21T19:39:00.000Z</time></trkpt>
        <trkpt lat="29.5511125" lon="103.3737751"><ele>1230.77</ele><time>2026-01-21T19:39:10.000Z</time></trkpt>
        <trkpt lat="29.5511958" lon="103.3737406"><ele>1229.15</ele><time>2026-01-21T19:39:20.000Z</time></trkpt>
        <trkpt lat="29.5512487" lon="103.3736455"><ele>1228.61</ele><time>2026-01-21T19:39:30.000Z</time></trkpt>
        <trkpt lat="29.5512933" lon="103.3735439"><ele>1226.93</ele><time>2026-01-21T19:39:42.000Z</time></trkpt>
        <trkpt lat="29.551314" lon="103.3734349"><ele>1224.42</ele><time>2026-01-21T19:39:54.000Z</time></trkpt>
        <trkpt lat="29.5513398" lon="103.3733204"><ele>1221.75</ele><time>2026-01-21T19:40:04.000Z</time></trkpt>
        <trkpt lat="29.551312" lon="103.373213"><ele>1219.57</ele><time>2026-01-21T19:40:16.000Z</time></trkpt>
        <trkpt lat="29.5512516" lon="103.3731157"><ele>1218.73</ele><time>2026-01-21T19:40:28.000Z</time></trkpt>
        <trkpt lat="29.5511751" lon="103.3730198"><ele>1218.37</ele><time>2026-01-21T19:40:40.000Z</time></trkpt>
        <trkpt lat="29.5511402" lon="103.372914"><ele>1219.03</ele><time>2026-01-21T19:40:56.000Z</time></trkpt>
        <trkpt lat="29.5510593" lon="103.3728931"><ele>1218.8</ele><time>2026-01-21T19:41:06.000Z</time></trkpt>
        <trkpt lat="29.5509659" lon="103.3729024"><ele>1219.88</ele><time>2026-01-21T19:41:16.000Z</time></trkpt>
        <trkpt lat="29.5508649" lon="103.3729008"><ele>1221.69</ele><time>2026-01-21T19:41:26.000Z</time></trkpt>
        <trkpt lat="29.550758" lon="103.3728961"><ele>1223.59</ele><time>2026-01-21T19:41:36.000Z</time></trkpt>
        <trkpt lat="29.5506566" lon="103.3729138"><ele>1224.97</ele><time>2026-01-21T19:41:46.000Z</time></trkpt>
        <trkpt lat="29.5505506" lon="103.3729078"><ele>1225.71</ele><time>2026-01-21T19:41:56.000Z</time></trkpt>
        <trkpt lat="29.5504559" lon="103.3729429"><ele>1225.75</ele><time>2026-01-21T19:42:06.000Z</time></trkpt>
        <trkpt lat="29.5503543" lon="103.3729534"><ele>1225.6</ele><time>2026-01-21T19:42:22.000Z</time></trkpt>
        <trkpt lat="29.5502686" lon="103.3728915"><ele>1225.9</ele><time>2026-01-21T19:42:42.000Z</time></trkpt>
        <trkpt lat="29.5501813" lon="103.3728373"><ele>1227.54</ele><time>2026-01-21T19:42:56.000Z</time></trkpt>
        <trkpt lat="29.5502342" lon="103.3727863"><ele>1231</ele><time>2026-01-21T19:43:08.000Z</time></trkpt>
        <trkpt lat="29.550328" lon="103.3727444"><ele>1233.54</ele><time>2026-01-21T19:43:16.000Z</time></trkpt>
        <trkpt lat="29.5503975" lon="103.3726553"><ele>1235.24</ele><time>2026-01-21T19:43:32.000Z</time></trkpt>
        <trkpt lat="29.5504643" lon="103.3725639"><ele>1234.11</ele><time>2026-01-21T19:43:46.000Z</time></trkpt>
        <trkpt lat="29.5505518" lon="103.3725042"><ele>1230.88</ele><time>2026-01-21T19:43:54.000Z</time></trkpt>
        <trkpt lat="29.5505983" lon="103.3724088"><ele>1229.04</ele><time>2026-01-21T19:44:12.000Z</time></trkpt>
        <trkpt lat="29.5506658" lon="103.3723106"><ele>1226.91</ele><time>2026-01-21T19:44:26.000Z</time></trkpt>
        <trkpt lat="29.5507048" lon="103.3722103"><ele>1225.14</ele><time>2026-01-21T19:44:38.000Z</time></trkpt>
        <trkpt lat="29.5507141" lon="103.3721027"><ele>1222.46</ele><time>2026-01-21T19:44:48.000Z</time></trkpt>
        <trkpt lat="29.5506764" lon="103.3720055"><ele>1219.77</ele><time>2026-01-21T19:44:58.000Z</time></trkpt>
        <trkpt lat="29.550605" lon="103.3719279"><ele>1217.67</ele><time>2026-01-21T19:45:10.000Z</time></trkpt>
        <trkpt lat="29.550544" lon="103.3718372"><ele>1215.36</ele><time>2026-01-21T19:45:20.000Z</time></trkpt>
        <trkpt lat="29.5504881" lon="103.3717368"><ele>1213.49</ele><time>2026-01-21T19:45:30.000Z</time></trkpt>
        <trkpt lat="29.5504368" lon="103.3716343"><ele>1212.16</ele><time>2026-01-21T19:45:42.000Z</time></trkpt>
        <trkpt lat="29.5503827" lon="103.3715377"><ele>1212.31</ele><time>2026-01-21T19:45:58.000Z</time></trkpt>
        <trkpt lat="29.5503037" lon="103.3714926"><ele>1212.52</ele><time>2026-01-21T19:46:10.000Z</time></trkpt>
        <trkpt lat="29.5502497" lon="103.3714087"><ele>1212.34</ele><time>2026-01-21T19:46:32.000Z</time></trkpt>
        <trkpt lat="29.5502651" lon="103.3713139"><ele>1211.46</ele><time>2026-01-21T19:46:40.000Z</time></trkpt>
        <trkpt lat="29.5503378" lon="103.3712282"><ele>1211.26</ele><time>2026-01-21T19:46:46.000Z</time></trkpt>
        <trkpt lat="29.5504148" lon="103.3711406"><ele>1210.46</ele><time>2026-01-21T19:46:56.000Z</time></trkpt>
        <trkpt lat="29.5504681" lon="103.3710472"><ele>1209.06</ele><time>2026-01-21T19:47:06.000Z</time></trkpt>
        <trkpt lat="29.5504832" lon="103.3709381"><ele>1208.56</ele><time>2026-01-21T19:47:16.000Z</time></trkpt>
        <trkpt lat="29.5504428" lon="103.3708423"><ele>1207.98</ele><time>2026-01-21T19:47:30.000Z</time></trkpt>
        <trkpt lat="29.5503878" lon="103.3707437"><ele>1207.25</ele><time>2026-01-21T19:47:44.000Z</time></trkpt>
        <trkpt lat="29.5503503" lon="103.3706389"><ele>1206.84</ele><time>2026-01-21T19:48:02.000Z</time></trkpt>
        <trkpt lat="29.5503548" lon="103.3705307"><ele>1204.67</ele><time>2026-01-21T19:48:24.000Z</time></trkpt>
        <trkpt lat="29.5503776" lon="103.3704203"><ele>1200.38</ele><time>2026-01-21T19:48:34.000Z</time></trkpt>
        <trkpt lat="29.5504002" lon="103.3703133"><ele>1197.21</ele><time>2026-01-21T19:48:56.000Z</time></trkpt>
        <trkpt lat="29.5503868" lon="103.3702103"><ele>1195.57</ele><time>2026-01-21T19:49:24.000Z</time></trkpt>
        <trkpt lat="29.5503604" lon="103.3701063"><ele>1196.7</ele><time>2026-01-21T19:49:36.000Z</time></trkpt>
        <trkpt lat="29.5503546" lon="103.3699954"><ele>1198.46</ele><time>2026-01-21T19:49:46.000Z</time></trkpt>
        <trkpt lat="29.550315" lon="103.3698995"><ele>1199.6</ele><time>2026-01-21T19:50:00.000Z</time></trkpt>
        <trkpt lat="29.5502466" lon="103.3698244"><ele>1200.55</ele><time>2026-01-21T19:50:14.000Z</time></trkpt>
        <trkpt lat="29.5502042" lon="103.3697262"><ele>1201.47</ele><time>2026-01-21T19:50:38.000Z</time></trkpt>
        <trkpt lat="29.5501802" lon="103.3696232"><ele>1204.45</ele><time>2026-01-21T19:51:16.000Z</time></trkpt>
        <trkpt lat="29.5501202" lon="103.3695513"><ele>1210.5</ele><time>2026-01-21T19:51:52.000Z</time></trkpt>
        <trkpt lat="29.5500547" lon="103.3694777"><ele>1215.96</ele><time>2026-01-21T19:52:18.000Z</time></trkpt>
        <trkpt lat="29.5499911" lon="103.3693881"><ele>1220.88</ele><time>2026-01-21T19:52:34.000Z</time></trkpt>
        <trkpt lat="29.5499267" lon="103.3692934"><ele>1224.55</ele><time>2026-01-21T19:52:48.000Z</time></trkpt>
        <trkpt lat="29.5498851" lon="103.3691872"><ele>1227.41</ele><time>2026-01-21T19:53:04.000Z</time></trkpt>
        <trkpt lat="29.5498896" lon="103.36908"><ele>1229.56</ele><time>2026-01-21T19:53:16.000Z</time></trkpt>
        <trkpt lat="29.5499098" lon="103.3689682"><ele>1231.17</ele><time>2026-01-21T19:53:42.000Z</time></trkpt>
        <trkpt lat="29.5498977" lon="103.3688604"><ele>1232.04</ele><time>2026-01-21T19:54:30.000Z</time></trkpt>
        <trkpt lat="29.5498248" lon="103.368831"><ele>1233.83</ele><time>2026-01-21T19:55:14.000Z</time></trkpt>
        <trkpt lat="29.5497566" lon="103.3687663"><ele>1239.11</ele><time>2026-01-21T19:55:48.000Z</time></trkpt>
        <trkpt lat="29.549671" lon="103.3687259"><ele>1245.6</ele><time>2026-01-21T19:56:02.000Z</time></trkpt>
        <trkpt lat="29.5496108" lon="103.3686452"><ele>1251.19</ele><time>2026-01-21T19:56:22.000Z</time></trkpt>
        <trkpt lat="29.5496108" lon="103.3686452"><ele>1251.19</ele><time>2026-01-21T19:56:45.000Z</time></trkpt>
        <trkpt lat="29.5495491" lon="103.3686785"><ele>1254.98</ele><time>2026-01-21T19:57:07.000Z</time></trkpt>
        <trkpt lat="29.5495491" lon="103.3686785"><ele>1254.98</ele><time>2026-01-21T19:57:10.000Z</time></trkpt>
        <trkpt lat="29.5496017" lon="103.3686809"><ele>1257.91</ele><time>2026-01-21T19:57:26.000Z</time></trkpt>
        <trkpt lat="29.5496145" lon="103.3686052"><ele>1260.62</ele><time>2026-01-21T19:57:42.000Z</time></trkpt>
        <trkpt lat="29.5497" lon="103.36851"><ele>1262.98</ele><time>2026-01-21T19:58:50.000Z</time></trkpt>
        <trkpt lat="29.549745" lon="103.36842"><ele>1267.16</ele><time>2026-01-21T19:59:28.000Z</time></trkpt>
        <trkpt lat="29.5498323" lon="103.3684019"><ele>1271.95</ele><time>2026-01-21T20:00:22.000Z</time></trkpt>
        <trkpt lat="29.5497946" lon="103.3683387"><ele>1278.04</ele><time>2026-01-21T20:00:56.000Z</time></trkpt>
        <trkpt lat="29.5498397" lon="103.3682956"><ele>1284.13</ele><time>2026-01-21T20:01:28.000Z</time></trkpt>
        <trkpt lat="29.5499064" lon="103.3682313"><ele>1291.13</ele><time>2026-01-21T20:01:54.000Z</time></trkpt>
        <trkpt lat="29.5499064" lon="103.3682313"><ele>1291.13</ele><time>2026-01-21T20:02:49.000Z</time></trkpt>
        <trkpt lat="29.5499064" lon="103.3682313"><ele>1291.13</ele><time>2026-01-21T20:03:09.000Z</time></trkpt>
        <trkpt lat="29.5499064" lon="103.3682313"><ele>1291.13</ele><time>2026-01-21T20:03:25.000Z</time></trkpt>
        <trkpt lat="29.54986" lon="103.3681317"><ele>1296.49</ele><time>2026-01-21T20:04:43.000Z</time></trkpt>
        <trkpt lat="29.54986" lon="103.3681317"><ele>1296.49</ele><time>2026-01-21T20:05:10.000Z</time></trkpt>
        <trkpt lat="29.5499183" lon="103.36804"><ele>1301.14</ele><time>2026-01-21T20:05:28.000Z</time></trkpt>
        <trkpt lat="29.5498512" lon="103.368016"><ele>1306.37</ele><time>2026-01-21T20:06:04.000Z</time></trkpt>
        <trkpt lat="29.5498827" lon="103.3679564"><ele>1313.05</ele><time>2026-01-21T20:06:20.000Z</time></trkpt>
        <trkpt lat="29.5498604" lon="103.3678685"><ele>1317.29</ele><time>2026-01-21T20:07:08.000Z</time></trkpt>
        <trkpt lat="29.5499188" lon="103.3678493"><ele>1323.92</ele><time>2026-01-21T20:07:34.000Z</time></trkpt>
        <trkpt lat="29.5499408" lon="103.367768"><ele>1329.98</ele><time>2026-01-21T20:08:06.000Z</time></trkpt>
        <trkpt lat="29.5500149" lon="103.3677188"><ele>1336.7</ele><time>2026-01-21T20:08:46.000Z</time></trkpt>
        <trkpt lat="29.5500868" lon="103.367653"><ele>1343.15</ele><time>2026-01-21T20:09:14.000Z</time></trkpt>
        <trkpt lat="29.5501652" lon="103.3675943"><ele>1347.99</ele><time>2026-01-21T20:09:30.000Z</time></trkpt>
        <trkpt lat="29.550187" lon="103.3674998"><ele>1351.44</ele><time>2026-01-21T20:09:46.000Z</time></trkpt>
        <trkpt lat="29.5502158" lon="103.3673946"><ele>1354.73</ele><time>2026-01-21T20:10:12.000Z</time></trkpt>
        <trkpt lat="29.5501545" lon="103.3673363"><ele>1358.29</ele><time>2026-01-21T20:10:50.000Z</time></trkpt>
        <trkpt lat="29.550119" lon="103.3672453"><ele>1363.84</ele><time>2026-01-21T20:11:36.000Z</time></trkpt>
        <trkpt lat="29.5501495" lon="103.3671544"><ele>1370.66</ele><time>2026-01-21T20:11:56.000Z</time></trkpt>
        <trkpt lat="29.5501895" lon="103.367052"><ele>1375.45</ele><time>2026-01-21T20:12:18.000Z</time></trkpt>
        <trkpt lat="29.5502626" lon="103.3669795"><ele>1380.68</ele><time>2026-01-21T20:12:32.000Z</time></trkpt>
        <trkpt lat="29.5502493" lon="103.3668789"><ele>1384.69</ele><time>2026-01-21T20:13:00.000Z</time></trkpt>
        <trkpt lat="29.5501866" lon="103.3667993"><ele>1388.35</ele><time>2026-01-21T20:13:32.000Z</time></trkpt>
        <trkpt lat="29.5501141" lon="103.3667246"><ele>1393.49</ele><time>2026-01-21T20:14:02.000Z</time></trkpt>
        <trkpt lat="29.5500273" lon="103.366676"><ele>1397.71</ele><time>2026-01-21T20:14:32.000Z</time></trkpt>
        <trkpt lat="29.5499394" lon="103.3666251"><ele>1402.01</ele><time>2026-01-21T20:15:10.000Z</time></trkpt>
        <trkpt lat="29.549846" lon="103.3666192"><ele>1407.64</ele><time>2026-01-21T20:15:43.000Z</time></trkpt>
        <trkpt lat="29.5497518" lon="103.3666414"><ele>1414.46</ele><time>2026-01-21T20:16:01.000Z</time></trkpt>
        <trkpt lat="29.5496608" lon="103.3666184"><ele>1420.11</ele><time>2026-01-21T20:16:25.000Z</time></trkpt>
        <trkpt lat="29.5495815" lon="103.3665596"><ele>1424.75</ele><time>2026-01-21T20:17:09.000Z</time></trkpt>
        <trkpt lat="29.5494954" lon="103.366511"><ele>1428.52</ele><time>2026-01-21T20:17:43.000Z</time></trkpt>
        <trkpt lat="29.5494188" lon="103.3664398"><ele>1432.34</ele><time>2026-01-21T20:18:35.000Z</time></trkpt>
        <trkpt lat="29.5493744" lon="103.3663435"><ele>1436.97</ele><time>2026-01-21T20:19:15.000Z</time></trkpt>
        <trkpt lat="29.5493744" lon="103.3663435"><ele>1436.97</ele><time>2026-01-21T20:19:47.000Z</time></trkpt>
        <trkpt lat="29.5493744" lon="103.3663435"><ele>1436.97</ele><time>2026-01-21T20:19:53.000Z</time></trkpt>
        <trkpt lat="29.5493744" lon="103.3663435"><ele>1436.97</ele><time>2026-01-21T20:21:05.000Z</time></trkpt>
        <trkpt lat="29.5493744" lon="103.3663435"><ele>1436.97</ele><time>2026-01-21T20:21:09.000Z</time></trkpt>
        <trkpt lat="29.5493744" lon="103.3663435"><ele>1436.97</ele><time>2026-01-21T20:21:49.000Z</time></trkpt>
        <trkpt lat="29.5493033" lon="103.3662833"><ele>1442.4</ele><time>2026-01-21T20:22:05.000Z</time></trkpt>
        <trkpt lat="29.5493033" lon="103.3662833"><ele>1442.4</ele><time>2026-01-21T20:22:41.000Z</time></trkpt>
        <trkpt lat="29.5493933" lon="103.3662733"><ele>1442.14</ele><time>2026-01-21T20:23:05.000Z</time></trkpt>
        <trkpt lat="29.5494749" lon="103.3662196"><ele>1443.54</ele><time>2026-01-21T20:23:15.000Z</time></trkpt>
        <trkpt lat="29.5495639" lon="103.366189"><ele>1445.25</ele><time>2026-01-21T20:23:25.000Z</time></trkpt>
        <trkpt lat="29.5496327" lon="103.3661241"><ele>1446.95</ele><time>2026-01-21T20:23:37.000Z</time></trkpt>
        <trkpt lat="29.5496716" lon="103.3660304"><ele>1447.61</ele><time>2026-01-21T20:23:47.000Z</time></trkpt>
        <trkpt lat="29.5496903" lon="103.3659215"><ele>1447.39</ele><time>2026-01-21T20:24:01.000Z</time></trkpt>
        <trkpt lat="29.5496977" lon="103.3658109"><ele>1446.62</ele><time>2026-01-21T20:24:15.000Z</time></trkpt>
        <trkpt lat="29.549638" lon="103.3657206"><ele>1445.67</ele><time>2026-01-21T20:24:33.000Z</time></trkpt>
        <trkpt lat="29.5495908" lon="103.365619"><ele>1447.1</ele><time>2026-01-21T20:24:45.000Z</time></trkpt>
        <trkpt lat="29.5495051" lon="103.3655741"><ele>1449.77</ele><time>2026-01-21T20:24:53.000Z</time></trkpt>
        <trkpt lat="29.5494986" lon="103.3654903"><ele>1453.01</ele><time>2026-01-21T20:25:05.000Z</time></trkpt>
        <trkpt lat="29.5495629" lon="103.3654118"><ele>1456.7</ele><time>2026-01-21T20:25:15.000Z</time></trkpt>
        <trkpt lat="29.5496403" lon="103.3653271"><ele>1459.93</ele><time>2026-01-21T20:25:25.000Z</time></trkpt>
        <trkpt lat="29.5497084" lon="103.3652327"><ele>1462.2</ele><time>2026-01-21T20:25:33.000Z</time></trkpt>
        <trkpt lat="29.5497909" lon="103.3651538"><ele>1463.36</ele><time>2026-01-21T20:25:43.000Z</time></trkpt>
        <trkpt lat="29.5498659" lon="103.3650588"><ele>1463.33</ele><time>2026-01-21T20:25:53.000Z</time></trkpt>
        <trkpt lat="29.5499243" lon="103.3649875"><ele>1463.41</ele><time>2026-01-21T20:26:11.000Z</time></trkpt>
        <trkpt lat="29.5499535" lon="103.3648842"><ele>1463.83</ele><time>2026-01-21T20:26:39.000Z</time></trkpt>
        <trkpt lat="29.5500205" lon="103.3648258"><ele>1465.11</ele><time>2026-01-21T20:26:51.000Z</time></trkpt>
        <trkpt lat="29.5500919" lon="103.3647575"><ele>1465.71</ele><time>2026-01-21T20:27:01.000Z</time></trkpt>
        <trkpt lat="29.5501088" lon="103.3646575"><ele>1464.67</ele><time>2026-01-21T20:27:11.000Z</time></trkpt>
        <trkpt lat="29.5500863" lon="103.3645417"><ele>1463.87</ele><time>2026-01-21T20:27:23.000Z</time></trkpt>
        <trkpt lat="29.550117" lon="103.3644455"><ele>1463.71</ele><time>2026-01-21T20:27:35.000Z</time></trkpt>
        <trkpt lat="29.5501932" lon="103.3643732"><ele>1463.4</ele><time>2026-01-21T20:27:47.000Z</time></trkpt>
        <trkpt lat="29.5502838" lon="103.3643118"><ele>1461.42</ele><time>2026-01-21T20:27:55.000Z</time></trkpt>
        <trkpt lat="29.5503478" lon="103.3642206"><ele>1459.05</ele><time>2026-01-21T20:28:11.000Z</time></trkpt>
        <trkpt lat="29.5503746" lon="103.3641183"><ele>1455.5</ele><time>2026-01-21T20:28:23.000Z</time></trkpt>
        <trkpt lat="29.5503992" lon="103.3640129"><ele>1454.73</ele><time>2026-01-21T20:28:45.000Z</time></trkpt>
        <trkpt lat="29.5504691" lon="103.3640013"><ele>1458.67</ele><time>2026-01-21T20:29:09.000Z</time></trkpt>
        <trkpt lat="29.5504853" lon="103.3639272"><ele>1465.27</ele><time>2026-01-21T20:29:27.000Z</time></trkpt>
        <trkpt lat="29.5504926" lon="103.3638267"><ele>1471.22</ele><time>2026-01-21T20:29:39.000Z</time></trkpt>
        <trkpt lat="29.55056" lon="103.3637687"><ele>1475.94</ele><time>2026-01-21T20:29:55.000Z</time></trkpt>
        <trkpt lat="29.5506434" lon="103.3637196"><ele>1478.38</ele><time>2026-01-21T20:30:07.000Z</time></trkpt>
        <trkpt lat="29.550739" lon="103.3636798"><ele>1479.29</ele><time>2026-01-21T20:30:21.000Z</time></trkpt>
        <trkpt lat="29.5507917" lon="103.3635909"><ele>1480.11</ele><time>2026-01-21T20:30:33.000Z</time></trkpt>
        <trkpt lat="29.5507805" lon="103.3634755"><ele>1479.81</ele><time>2026-01-21T20:30:43.000Z</time></trkpt>
        <trkpt lat="29.5507625" lon="103.3633637"><ele>1478.38</ele><time>2026-01-21T20:30:57.000Z</time></trkpt>
        <trkpt lat="29.5507687" lon="103.363252"><ele>1477.66</ele><time>2026-01-21T20:31:17.000Z</time></trkpt>
        <trkpt lat="29.5508014" lon="103.3632931"><ele>1480.34</ele><time>2026-01-21T20:31:37.000Z</time></trkpt>
        <trkpt lat="29.5508264" lon="103.363239"><ele>1486</ele><time>2026-01-21T20:32:01.000Z</time></trkpt>
        <trkpt lat="29.5508045" lon="103.3631484"><ele>1493.74</ele><time>2026-01-21T20:32:33.000Z</time></trkpt>
        <trkpt lat="29.550844" lon="103.3630655"><ele>1501.3</ele><time>2026-01-21T20:33:33.000Z</time></trkpt>
        <trkpt lat="29.5508007" lon="103.3629528"><ele>1511.15</ele><time>2026-01-21T20:34:07.000Z</time></trkpt>
        <trkpt lat="29.550715" lon="103.3629052"><ele>1519.43</ele><time>2026-01-21T20:34:27.000Z</time></trkpt>
        <trkpt lat="29.5506085" lon="103.3628723"><ele>1524.97</ele><time>2026-01-21T20:35:03.000Z</time></trkpt>
        <trkpt lat="29.5505924" lon="103.3627885"><ele>1529.28</ele><time>2026-01-21T20:35:53.000Z</time></trkpt>
        <trkpt lat="29.5505924" lon="103.3627885"><ele>1529.28</ele><time>2026-01-21T20:36:35.000Z</time></trkpt>
        <trkpt lat="29.5506483" lon="103.36268"><ele>1532.52</ele><time>2026-01-21T20:36:39.000Z</time></trkpt>
        <trkpt lat="29.5506483" lon="103.36268"><ele>1532.52</ele><time>2026-01-21T20:36:59.000Z</time></trkpt>
        <trkpt lat="29.5506717" lon="103.3625567"><ele>1538.02</ele><time>2026-01-21T20:37:29.000Z</time></trkpt>
        <trkpt lat="29.5507162" lon="103.3624559"><ele>1541.71</ele><time>2026-01-21T20:38:17.000Z</time></trkpt>
        <trkpt lat="29.5507013" lon="103.3623553"><ele>1546.18</ele><time>2026-01-21T20:38:45.000Z</time></trkpt>
        <trkpt lat="29.5506606" lon="103.3622586"><ele>1551.74</ele><time>2026-01-21T20:39:23.000Z</time></trkpt>
        <trkpt lat="29.5506157" lon="103.3621554"><ele>1559.12</ele><time>2026-01-21T20:39:59.000Z</time></trkpt>
        <trkpt lat="29.5506157" lon="103.3621554"><ele>1559.12</ele><time>2026-01-21T20:40:35.000Z</time></trkpt>
        <trkpt lat="29.5505983" lon="103.3620133"><ele>1565.22</ele><time>2026-01-21T20:42:19.000Z</time></trkpt>
        <trkpt lat="29.5505983" lon="103.3620133"><ele>1565.22</ele><time>2026-01-21T20:42:45.000Z</time></trkpt>
        <trkpt lat="29.55063" lon="103.3619033"><ele>1571.06</ele><time>2026-01-21T20:43:21.000Z</time></trkpt>
        <trkpt lat="29.5505771" lon="103.3618145"><ele>1576.28</ele><time>2026-01-21T20:43:45.000Z</time></trkpt>
        <trkpt lat="29.550522" lon="103.3617204"><ele>1582.27</ele><time>2026-01-21T20:44:09.000Z</time></trkpt>
        <trkpt lat="29.550452" lon="103.3616398"><ele>1587.53</ele><time>2026-01-21T20:44:27.000Z</time></trkpt>
        <trkpt lat="29.5504567" lon="103.3615477"><ele>1591.65</ele><time>2026-01-21T20:45:17.000Z</time></trkpt>
        <trkpt lat="29.5503992" lon="103.3615019"><ele>1596.57</ele><time>2026-01-21T20:45:37.000Z</time></trkpt>
        <trkpt lat="29.5503335" lon="103.3614306"><ele>1600.11</ele><time>2026-01-21T20:46:01.000Z</time></trkpt>
        <trkpt lat="29.5502415" lon="103.3613338"><ele>1602.52</ele><time>2026-01-21T20:46:47.000Z</time></trkpt>
        <trkpt lat="29.5502415" lon="103.3613338"><ele>1602.52</ele><time>2026-01-21T20:47:27.000Z</time></trkpt>
        <trkpt lat="29.5502415" lon="103.3613338"><ele>1602.52</ele><time>2026-01-21T20:47:37.000Z</time></trkpt>
        <trkpt lat="29.5502415" lon="103.3613338"><ele>1602.52</ele><time>2026-01-21T20:47:51.000Z</time></trkpt>
        <trkpt lat="29.5501467" lon="103.3613683"><ele>1607.67</ele><time>2026-01-21T20:48:33.000Z</time></trkpt>
        <trkpt lat="29.5501467" lon="103.3613683"><ele>1607.67</ele><time>2026-01-21T20:48:33.000Z</time></trkpt>
        <trkpt lat="29.550105" lon="103.3612767"><ele>1612.2</ele><time>2026-01-21T20:48:47.000Z</time></trkpt>
        <trkpt lat="29.5500182" lon="103.3612301"><ele>1614.48</ele><time>2026-01-21T20:48:59.000Z</time></trkpt>
        <trkpt lat="29.5499517" lon="103.3611581"><ele>1615.74</ele><time>2026-01-21T20:49:17.000Z</time></trkpt>
        <trkpt lat="29.5499365" lon="103.3610621"><ele>1616.28</ele><time>2026-01-21T20:49:31.000Z</time></trkpt>
        <trkpt lat="29.549906" lon="103.3609513"><ele>1616.5</ele><time>2026-01-21T20:49:47.000Z</time></trkpt>
        <trkpt lat="29.549851" lon="103.3608578"><ele>1617.62</ele><time>2026-01-21T20:49:57.000Z</time></trkpt>
        <trkpt lat="29.549874" lon="103.3607671"><ele>1619.03</ele><time>2026-01-21T20:50:15.000Z</time></trkpt>
        <trkpt lat="29.549879" lon="103.3606611"><ele>1618.67</ele><time>2026-01-21T20:50:29.000Z</time></trkpt>
        <trkpt lat="29.5499424" lon="103.3605918"><ele>1618.73</ele><time>2026-01-21T20:50:41.000Z</time></trkpt>
        <trkpt lat="29.5500062" lon="103.3605142"><ele>1618.29</ele><time>2026-01-21T20:50:57.000Z</time></trkpt>
        <trkpt lat="29.5500552" lon="103.3604181"><ele>1618.51</ele><time>2026-01-21T20:51:11.000Z</time></trkpt>
        <trkpt lat="29.5500979" lon="103.3603212"><ele>1618.46</ele><time>2026-01-21T20:51:27.000Z</time></trkpt>
        <trkpt lat="29.5501382" lon="103.3602184"><ele>1617.92</ele><time>2026-01-21T20:51:45.000Z</time></trkpt>
        <trkpt lat="29.5501702" lon="103.3601103"><ele>1616.79</ele><time>2026-01-21T20:52:03.000Z</time></trkpt>
        <trkpt lat="29.5501656" lon="103.3600032"><ele>1616.41</ele><time>2026-01-21T20:52:29.000Z</time></trkpt>
        <trkpt lat="29.5501258" lon="103.3599084"><ele>1617.78</ele><time>2026-01-21T20:53:05.000Z</time></trkpt>
        <trkpt lat="29.5501258" lon="103.3599084"><ele>1617.78</ele><time>2026-01-21T20:53:23.000Z</time></trkpt>
        <trkpt lat="29.5500791" lon="103.3598109"><ele>1621.57</ele><time>2026-01-21T20:53:33.000Z</time></trkpt>
        <trkpt lat="29.5500791" lon="103.3598109"><ele>1621.57</ele><time>2026-01-21T20:54:03.000Z</time></trkpt>
        <trkpt lat="29.5500218" lon="103.3597205"><ele>1626.96</ele><time>2026-01-21T20:54:23.000Z</time></trkpt>
        <trkpt lat="29.5499626" lon="103.3596327"><ele>1630.68</ele><time>2026-01-21T20:54:49.000Z</time></trkpt>
        <trkpt lat="29.5499258" lon="103.3595315"><ele>1632.88</ele><time>2026-01-21T20:55:43.000Z</time></trkpt>
        <trkpt lat="29.5498868" lon="103.3594276"><ele>1635.64</ele><time>2026-01-21T20:56:41.000Z</time></trkpt>
        <trkpt lat="29.549914" lon="103.3593332"><ele>1638.25</ele><time>2026-01-21T20:57:09.000Z</time></trkpt>
        <trkpt lat="29.5499913" lon="103.3592691"><ele>1640.29</ele><time>2026-01-21T20:57:23.000Z</time></trkpt>
        <trkpt lat="29.5500733" lon="103.3592006"><ele>1642.83</ele><time>2026-01-21T20:57:37.000Z</time></trkpt>
        <trkpt lat="29.5501659" lon="103.3591413"><ele>1645.44</ele><time>2026-01-21T20:57:53.000Z</time></trkpt>
        <trkpt lat="29.5502622" lon="103.3591034"><ele>1649.04</ele><time>2026-01-21T20:58:07.000Z</time></trkpt>
        <trkpt lat="29.5502989" lon="103.3590061"><ele>1651.3</ele><time>2026-01-21T20:58:17.000Z</time></trkpt>
        <trkpt lat="29.5502875" lon="103.3589004"><ele>1652.38</ele><time>2026-01-21T20:58:35.000Z</time></trkpt>
        <trkpt lat="29.5502875" lon="103.3589004"><ele>1652.38</ele><time>2026-01-21T20:58:41.000Z</time></trkpt>
        <trkpt lat="29.5502875" lon="103.3589004"><ele>1652.38</ele><time>2026-01-21T20:59:27.000Z</time></trkpt>
        <trkpt lat="29.5502875" lon="103.3589004"><ele>1652.38</ele><time>2026-01-21T20:59:41.000Z</time></trkpt>
        <trkpt lat="29.5502875" lon="103.3589004"><ele>1652.38</ele><time>2026-01-21T21:00:29.000Z</time></trkpt>
        <trkpt lat="29.5502875" lon="103.3589004"><ele>1652.38</ele><time>2026-01-21T21:00:47.000Z</time></trkpt>
        <trkpt lat="29.5502833" lon="103.3587833"><ele>1652.6</ele><time>2026-01-21T21:00:51.000Z</time></trkpt>
        <trkpt lat="29.5502833" lon="103.3587833"><ele>1652.6</ele><time>2026-01-21T21:01:27.000Z</time></trkpt>
        <trkpt lat="29.5502533" lon="103.358675"><ele>1652.69</ele><time>2026-01-21T21:01:43.000Z</time></trkpt>
        <trkpt lat="29.5502533" lon="103.358675"><ele>1652.69</ele><time>2026-01-21T21:02:19.000Z</time></trkpt>
        <trkpt lat="29.550275" lon="103.3585717"><ele>1654.03</ele><time>2026-01-21T21:02:47.000Z</time></trkpt>
        <trkpt lat="29.550275" lon="103.3585717"><ele>1654.03</ele><time>2026-01-21T21:04:09.000Z</time></trkpt>
        <trkpt lat="29.5503367" lon="103.3584867"><ele>1656.94</ele><time>2026-01-21T21:04:35.000Z</time></trkpt>
        <trkpt lat="29.5503367" lon="103.3584867"><ele>1656.94</ele><time>2026-01-21T21:04:53.000Z</time></trkpt>
        <trkpt lat="29.5503447" lon="103.3583805"><ele>1660.19</ele><time>2026-01-21T21:04:55.000Z</time></trkpt>
        <trkpt lat="29.5503447" lon="103.3583805"><ele>1660.19</ele><time>2026-01-21T21:05:05.000Z</time></trkpt>
        <trkpt lat="29.5503215" lon="103.3582706"><ele>1662.13</ele><time>2026-01-21T21:05:17.000Z</time></trkpt>
        <trkpt lat="29.5503044" lon="103.3581582"><ele>1663.49</ele><time>2026-01-21T21:05:27.000Z</time></trkpt>
        <trkpt lat="29.5503225" lon="103.3580465"><ele>1665.3</ele><time>2026-01-21T21:05:43.000Z</time></trkpt>
        <trkpt lat="29.5503472" lon="103.3579393"><ele>1667.84</ele><time>2026-01-21T21:05:57.000Z</time></trkpt>
        <trkpt lat="29.5503918" lon="103.3578415"><ele>1670.32</ele><time>2026-01-21T21:06:17.000Z</time></trkpt>
        <trkpt lat="29.5504227" lon="103.357742"><ele>1672.55</ele><time>2026-01-21T21:06:37.000Z</time></trkpt>
        <trkpt lat="29.5504318" lon="103.3576389"><ele>1676.53</ele><time>2026-01-21T21:06:49.000Z</time></trkpt>
        <trkpt lat="29.5504317" lon="103.3575329"><ele>1679.7</ele><time>2026-01-21T21:07:01.000Z</time></trkpt>
        <trkpt lat="29.5504343" lon="103.3574209"><ele>1683.14</ele><time>2026-01-21T21:07:15.000Z</time></trkpt>
        <trkpt lat="29.5504228" lon="103.357312"><ele>1685.36</ele><time>2026-01-21T21:07:37.000Z</time></trkpt>
        <trkpt lat="29.550429" lon="103.3572022"><ele>1687.48</ele><time>2026-01-21T21:07:59.000Z</time></trkpt>
        <trkpt lat="29.5504152" lon="103.3570858"><ele>1690.24</ele><time>2026-01-21T21:08:15.000Z</time></trkpt>
        <trkpt lat="29.5503649" lon="103.3569808"><ele>1692.98</ele><time>2026-01-21T21:08:27.000Z</time></trkpt>
        <trkpt lat="29.5502857" lon="103.3569193"><ele>1693.85</ele><time>2026-01-21T21:08:49.000Z</time></trkpt>
        <trkpt lat="29.5501911" lon="103.3569171"><ele>1694.64</ele><time>2026-01-21T21:08:59.000Z</time></trkpt>
        <trkpt lat="29.5500886" lon="103.3569238"><ele>1694.93</ele><time>2026-01-21T21:09:09.000Z</time></trkpt>
        <trkpt lat="29.5500595" lon="103.3568767"><ele>1695.99</ele><time>2026-01-21T21:09:27.000Z</time></trkpt>
        <trkpt lat="29.5500595" lon="103.3568767"><ele>1695.99</ele><time>2026-01-21T21:09:47.000Z</time></trkpt>
        <trkpt lat="29.5500595" lon="103.3568767"><ele>1695.99</ele><time>2026-01-21T21:09:53.000Z</time></trkpt>
        <trkpt lat="29.5500595" lon="103.3568767"><ele>1695.99</ele><time>2026-01-21T21:10:07.000Z</time></trkpt>
        <trkpt lat="29.5499875" lon="103.3568733"><ele>1698.06</ele><time>2026-01-21T21:10:15.000Z</time></trkpt>
        <trkpt lat="29.5499875" lon="103.3568733"><ele>1698.06</ele><time>2026-01-21T21:10:27.000Z</time></trkpt>
        <trkpt lat="29.5499875" lon="103.3568733"><ele>1698.06</ele><time>2026-01-21T21:11:13.000Z</time></trkpt>
        <trkpt lat="29.5499875" lon="103.3568733"><ele>1698.06</ele><time>2026-01-21T21:11:15.000Z</time></trkpt>
        <trkpt lat="29.5499875" lon="103.3568733"><ele>1698.06</ele><time>2026-01-21T21:11:41.000Z</time></trkpt>
        <trkpt lat="29.5499875" lon="103.3568733"><ele>1698.06</ele><time>2026-01-21T21:12:23.000Z</time></trkpt>
        <trkpt lat="29.5499875" lon="103.3568733"><ele>1698.06</ele><time>2026-01-21T21:12:29.000Z</time></trkpt>
      </trkseg>
      <trkseg>
        <trkpt lat="29.5500083" lon="103.356965"><ele>1700.14</ele><time>2026-01-21T21:34:26.000Z</time></trkpt>
        <trkpt lat="29.5500083" lon="103.356965"><ele>1700.14</ele><time>2026-01-21T21:34:39.000Z</time></trkpt>
        <trkpt lat="29.5499133" lon="103.356945"><ele>1703.56</ele><time>2026-01-21T21:34:59.000Z</time></trkpt>
        <trkpt lat="29.5498296" lon="103.3568742"><ele>1702.29</ele><time>2026-01-21T21:35:11.000Z</time></trkpt>
        <trkpt lat="29.5498277" lon="103.3567675"><ele>1700.75</ele><time>2026-01-21T21:35:45.000Z</time></trkpt>
        <trkpt lat="29.5498099" lon="103.3568185"><ele>1699.35</ele><time>2026-01-21T21:36:07.000Z</time></trkpt>
        <trkpt lat="29.549869" lon="103.3569142"><ele>1698.85</ele><time>2026-01-21T21:36:19.000Z</time></trkpt>
        <trkpt lat="29.5499597" lon="103.3569738"><ele>1698.01</ele><time>2026-01-21T21:36:37.000Z</time></trkpt>
        <trkpt lat="29.5499993" lon="103.3569062"><ele>1696.55</ele><time>2026-01-21T21:36:45.000Z</time></trkpt>
        <trkpt lat="29.5500132" lon="103.3567909"><ele>1695.62</ele><time>2026-01-21T21:36:53.000Z</time></trkpt>
        <trkpt lat="29.5499932" lon="103.3566632"><ele>1695.1</ele><time>2026-01-21T21:37:03.000Z</time></trkpt>
        <trkpt lat="29.5499874" lon="103.3565443"><ele>1695.87</ele><time>2026-01-21T21:37:15.000Z</time></trkpt>
        <trkpt lat="29.5500258" lon="103.3564476"><ele>1696.87</ele><time>2026-01-21T21:37:29.000Z</time></trkpt>
        <trkpt lat="29.5500962" lon="103.3563618"><ele>1696.88</ele><time>2026-01-21T21:37:57.000Z</time></trkpt>
        <trkpt lat="29.5501685" lon="103.3562783"><ele>1694.74</ele><time>2026-01-21T21:38:07.000Z</time></trkpt>
        <trkpt lat="29.5502175" lon="103.3561824"><ele>1692.49</ele><time>2026-01-21T21:38:17.000Z</time></trkpt>
        <trkpt lat="29.5502401" lon="103.3560713"><ele>1690.43</ele><time>2026-01-21T21:38:29.000Z</time></trkpt>
        <trkpt lat="29.5502522" lon="103.35596"><ele>1687.92</ele><time>2026-01-21T21:38:37.000Z</time></trkpt>
        <trkpt lat="29.5502959" lon="103.3558686"><ele>1686.88</ele><time>2026-01-21T21:38:47.000Z</time></trkpt>
        <trkpt lat="29.5503551" lon="103.3557836"><ele>1686.72</ele><time>2026-01-21T21:39:03.000Z</time></trkpt>
        <trkpt lat="29.5504491" lon="103.3557467"><ele>1685.93</ele><time>2026-01-21T21:39:15.000Z</time></trkpt>
        <trkpt lat="29.550552" lon="103.3557452"><ele>1684.03</ele><time>2026-01-21T21:39:29.000Z</time></trkpt>
        <trkpt lat="29.5506542" lon="103.3557612"><ele>1681.35</ele><time>2026-01-21T21:39:41.000Z</time></trkpt>
        <trkpt lat="29.5507605" lon="103.3557536"><ele>1678.27</ele><time>2026-01-21T21:40:03.000Z</time></trkpt>
        <trkpt lat="29.5508474" lon="103.3557109"><ele>1676.18</ele><time>2026-01-21T21:40:15.000Z</time></trkpt>
        <trkpt lat="29.5509352" lon="103.3556752"><ele>1674.77</ele><time>2026-01-21T21:40:31.000Z</time></trkpt>
        <trkpt lat="29.5510215" lon="103.3556375"><ele>1673.02</ele><time>2026-01-21T21:40:41.000Z</time></trkpt>
        <trkpt lat="29.55111" lon="103.3555884"><ele>1671.25</ele><time>2026-01-21T21:40:51.000Z</time></trkpt>
        <trkpt lat="29.5511734" lon="103.3555757"><ele>1669.29</ele><time>2026-01-21T21:41:09.000Z</time></trkpt>
        <trkpt lat="29.5512283" lon="103.35551"><ele>1667.66</ele><time>2026-01-21T21:42:41.000Z</time></trkpt>
        <trkpt lat="29.551295" lon="103.355425"><ele>1666.9</ele><time>2026-01-21T21:42:53.000Z</time></trkpt>
        <trkpt lat="29.5513377" lon="103.3553217"><ele>1664.45</ele><time>2026-01-21T21:43:07.000Z</time></trkpt>
        <trkpt lat="29.5513954" lon="103.355237"><ele>1660.51</ele><time>2026-01-21T21:43:19.000Z</time></trkpt>
        <trkpt lat="29.5514452" lon="103.3551404"><ele>1656.77</ele><time>2026-01-21T21:43:31.000Z</time></trkpt>
        <trkpt lat="29.551492" lon="103.3550343"><ele>1653.3</ele><time>2026-01-21T21:43:41.000Z</time></trkpt>
        <trkpt lat="29.5515305" lon="103.3549288"><ele>1650.2</ele><time>2026-01-21T21:43:51.000Z</time></trkpt>
        <trkpt lat="29.5515788" lon="103.3548304"><ele>1647.45</ele><time>2026-01-21T21:44:01.000Z</time></trkpt>
        <trkpt lat="29.5516163" lon="103.3547325"><ele>1645.15</ele><time>2026-01-21T21:44:13.000Z</time></trkpt>
        <trkpt lat="29.5516659" lon="103.3546358"><ele>1643.41</ele><time>2026-01-21T21:44:25.000Z</time></trkpt>
        <trkpt lat="29.5517254" lon="103.3545482"><ele>1642.03</ele><time>2026-01-21T21:44:37.000Z</time></trkpt>
        <trkpt lat="29.5517919" lon="103.3544625"><ele>1640.21</ele><time>2026-01-21T21:44:47.000Z</time></trkpt>
        <trkpt lat="29.5518289" lon="103.3543594"><ele>1638.66</ele><time>2026-01-21T21:44:59.000Z</time></trkpt>
        <trkpt lat="29.5518268" lon="103.3542521"><ele>1637.99</ele><time>2026-01-21T21:45:09.000Z</time></trkpt>
        <trkpt lat="29.5518717" lon="103.3541565"><ele>1637.09</ele><time>2026-01-21T21:45:17.000Z</time></trkpt>
        <trkpt lat="29.5519491" lon="103.3540958"><ele>1636.49</ele><time>2026-01-21T21:45:31.000Z</time></trkpt>
        <trkpt lat="29.5519671" lon="103.3540062"><ele>1635.2</ele><time>2026-01-21T21:45:39.000Z</time></trkpt>
        <trkpt lat="29.5519322" lon="103.3539053"><ele>1634</ele><time>2026-01-21T21:45:55.000Z</time></trkpt>
        <trkpt lat="29.5518588" lon="103.3538157"><ele>1633.87</ele><time>2026-01-21T21:46:03.000Z</time></trkpt>
        <trkpt lat="29.5517865" lon="103.3537274"><ele>1633.62</ele><time>2026-01-21T21:46:13.000Z</time></trkpt>
        <trkpt lat="29.5517175" lon="103.3536331"><ele>1633.53</ele><time>2026-01-21T21:46:23.000Z</time></trkpt>
        <trkpt lat="29.5516883" lon="103.3535178"><ele>1633.21</ele><time>2026-01-21T21:46:37.000Z</time></trkpt>
        <trkpt lat="29.5517096" lon="103.3534125"><ele>1632.86</ele><time>2026-01-21T21:46:47.000Z</time></trkpt>
        <trkpt lat="29.551744" lon="103.3533096"><ele>1631.76</ele><time>2026-01-21T21:46:57.000Z</time></trkpt>
        <trkpt lat="29.5517757" lon="103.3532003"><ele>1629.84</ele><time>2026-01-21T21:47:07.000Z</time></trkpt>
        <trkpt lat="29.5518001" lon="103.353091"><ele>1627.63</ele><time>2026-01-21T21:47:17.000Z</time></trkpt>
        <trkpt lat="29.5518367" lon="103.3529996"><ele>1625.51</ele><time>2026-01-21T21:47:37.000Z</time></trkpt>
        <trkpt lat="29.5518789" lon="103.3529012"><ele>1624.39</ele><time>2026-01-21T21:48:17.000Z</time></trkpt>
        <trkpt lat="29.5519348" lon="103.3528167"><ele>1623.58</ele><time>2026-01-21T21:48:35.000Z</time></trkpt>
        <trkpt lat="29.5520275" lon="103.3527775"><ele>1622.12</ele><time>2026-01-21T21:48:53.000Z</time></trkpt>
        <trkpt lat="29.552125" lon="103.3527889"><ele>1619.15</ele><time>2026-01-21T21:49:07.000Z</time></trkpt>
        <trkpt lat="29.5522254" lon="103.3528035"><ele>1615.56</ele><time>2026-01-21T21:49:29.000Z</time></trkpt>
        <trkpt lat="29.5522413" lon="103.3527347"><ele>1609.12</ele><time>2026-01-21T21:49:43.000Z</time></trkpt>
        <trkpt lat="29.5522266" lon="103.3526255"><ele>1603.13</ele><time>2026-01-21T21:49:57.000Z</time></trkpt>
        <trkpt lat="29.5522122" lon="103.3525085"><ele>1597.53</ele><time>2026-01-21T21:50:19.000Z</time></trkpt>
        <trkpt lat="29.5521993" lon="103.3523965"><ele>1591.84</ele><time>2026-01-21T21:50:45.000Z</time></trkpt>
        <trkpt lat="29.5522679" lon="103.3523425"><ele>1585.63</ele><time>2026-01-21T21:51:03.000Z</time></trkpt>
        <trkpt lat="29.5523572" lon="103.3522833"><ele>1581.4</ele><time>2026-01-21T21:51:11.000Z</time></trkpt>
        <trkpt lat="29.5524451" lon="103.3523173"><ele>1579.12</ele><time>2026-01-21T21:51:27.000Z</time></trkpt>
        <trkpt lat="29.5525406" lon="103.3523466"><ele>1577.43</ele><time>2026-01-21T21:51:43.000Z</time></trkpt>
        <trkpt lat="29.5526384" lon="103.3523435"><ele>1577.68</ele><time>2026-01-21T21:52:01.000Z</time></trkpt>
        <trkpt lat="29.5527346" lon="103.3523371"><ele>1579.62</ele><time>2026-01-21T21:52:17.000Z</time></trkpt>
        <trkpt lat="29.5528269" lon="103.352356"><ele>1581.94</ele><time>2026-01-21T21:52:27.000Z</time></trkpt>
        <trkpt lat="29.5529224" lon="103.3523771"><ele>1583.43</ele><time>2026-01-21T21:52:37.000Z</time></trkpt>
        <trkpt lat="29.5529953" lon="103.3524541"><ele>1584.19</ele><time>2026-01-21T21:52:47.000Z</time></trkpt>
        <trkpt lat="29.5530335" lon="103.352557"><ele>1584.84</ele><time>2026-01-21T21:52:55.000Z</time></trkpt>
        <trkpt lat="29.5530627" lon="103.3526697"><ele>1586.24</ele><time>2026-01-21T21:53:07.000Z</time></trkpt>
        <trkpt lat="29.5531299" lon="103.3527376"><ele>1588.63</ele><time>2026-01-21T21:53:17.000Z</time></trkpt>
        <trkpt lat="29.5532167" lon="103.352753"><ele>1590.64</ele><time>2026-01-21T21:53:25.000Z</time></trkpt>
        <trkpt lat="29.5533119" lon="103.3527205"><ele>1592.34</ele><time>2026-01-21T21:53:35.000Z</time></trkpt>
        <trkpt lat="29.5534023" lon="103.3526578"><ele>1593.49</ele><time>2026-01-21T21:53:45.000Z</time></trkpt>
        <trkpt lat="29.5534946" lon="103.3526248"><ele>1593.28</ele><time>2026-01-21T21:53:59.000Z</time></trkpt>
        <trkpt lat="29.5535934" lon="103.3525992"><ele>1592.3</ele><time>2026-01-21T21:54:11.000Z</time></trkpt>
        <trkpt lat="29.5536868" lon="103.3525668"><ele>1590.23</ele><time>2026-01-21T21:54:19.000Z</time></trkpt>
        <trkpt lat="29.553775" lon="103.3525243"><ele>1588.71</ele><time>2026-01-21T21:54:29.000Z</time></trkpt>
        <trkpt lat="29.5538653" lon="103.3525473"><ele>1588.11</ele><time>2026-01-21T21:54:41.000Z</time></trkpt>
        <trkpt lat="29.5539352" lon="103.3526187"><ele>1588.02</ele><time>2026-01-21T21:54:55.000Z</time></trkpt>
        <trkpt lat="29.5540228" lon="103.3526658"><ele>1587.79</ele><time>2026-01-21T21:55:05.000Z</time></trkpt>
        <trkpt lat="29.5541155" lon="103.3526745"><ele>1587.88</ele><time>2026-01-21T21:55:15.000Z</time></trkpt>
        <trkpt lat="29.5542147" lon="103.3526621"><ele>1587.25</ele><time>2026-01-21T21:55:27.000Z</time></trkpt>
        <trkpt lat="29.554307" lon="103.352686"><ele>1585.85</ele><time>2026-01-21T21:55:39.000Z</time></trkpt>
        <trkpt lat="29.554405" lon="103.3527065"><ele>1585.1</ele><time>2026-01-21T21:55:51.000Z</time></trkpt>
        <trkpt lat="29.5544976" lon="103.3527498"><ele>1585.27</ele><time>2026-01-21T21:56:01.000Z</time></trkpt>
        <trkpt lat="29.554514" lon="103.3528512"><ele>1585.97</ele><time>2026-01-21T21:56:11.000Z</time></trkpt>
        <trkpt lat="29.5545166" lon="103.3529788"><ele>1587.45</ele><time>2026-01-21T21:56:21.000Z</time></trkpt>
        <trkpt lat="29.5545083" lon="103.3530968"><ele>1588.89</ele><time>2026-01-21T21:56:33.000Z</time></trkpt>
        <trkpt lat="29.5545591" lon="103.3531767"><ele>1590.7</ele><time>2026-01-21T21:56:53.000Z</time></trkpt>
        <trkpt lat="29.554615" lon="103.353265"><ele>1593.5</ele><time>2026-01-21T21:57:13.000Z</time></trkpt>
        <trkpt lat="29.5546494" lon="103.3533665"><ele>1596.81</ele><time>2026-01-21T21:57:25.000Z</time></trkpt>
        <trkpt lat="29.554662" lon="103.3534781"><ele>1599.73</ele><time>2026-01-21T21:57:41.000Z</time></trkpt>
        <trkpt lat="29.5546633" lon="103.3535879"><ele>1603.55</ele><time>2026-01-21T21:57:53.000Z</time></trkpt>
        <trkpt lat="29.5546983" lon="103.3536885"><ele>1607.35</ele><time>2026-01-21T21:58:05.000Z</time></trkpt>
        <trkpt lat="29.554787" lon="103.3537342"><ele>1609.83</ele><time>2026-01-21T21:58:15.000Z</time></trkpt>
        <trkpt lat="29.5548879" lon="103.35375"><ele>1610.89</ele><time>2026-01-21T21:58:27.000Z</time></trkpt>
        <trkpt lat="29.5549711" lon="103.3536931"><ele>1610.89</ele><time>2026-01-21T21:58:39.000Z</time></trkpt>
        <trkpt lat="29.5550238" lon="103.3535978"><ele>1609.95</ele><time>2026-01-21T21:58:55.000Z</time></trkpt>
        <trkpt lat="29.5550952" lon="103.353513"><ele>1607.35</ele><time>2026-01-21T21:59:19.000Z</time></trkpt>
        <trkpt lat="29.5551761" lon="103.3534385"><ele>1603.8</ele><time>2026-01-21T21:59:35.000Z</time></trkpt>
        <trkpt lat="29.5552677" lon="103.3533987"><ele>1600.53</ele><time>2026-01-21T21:59:49.000Z</time></trkpt>
        <trkpt lat="29.5553726" lon="103.3533684"><ele>1597.16</ele><time>2026-01-21T21:59:59.000Z</time></trkpt>
        <trkpt lat="29.5554752" lon="103.353365"><ele>1594.6</ele><time>2026-01-21T22:00:09.000Z</time></trkpt>
        <trkpt lat="29.5555694" lon="103.3533426"><ele>1593.01</ele><time>2026-01-21T22:00:23.000Z</time></trkpt>
        <trkpt lat="29.5556638" lon="103.3533247"><ele>1591.24</ele><time>2026-01-21T22:00:37.000Z</time></trkpt>
        <trkpt lat="29.5557585" lon="103.353336"><ele>1588.81</ele><time>2026-01-21T22:00:47.000Z</time></trkpt>
        <trkpt lat="29.5558559" lon="103.3533751"><ele>1586.66</ele><time>2026-01-21T22:00:57.000Z</time></trkpt>
        <trkpt lat="29.5559455" lon="103.3534239"><ele>1585</ele><time>2026-01-21T22:01:07.000Z</time></trkpt>
        <trkpt lat="29.5560309" lon="103.35347"><ele>1583.97</ele><time>2026-01-21T22:01:15.000Z</time></trkpt>
        <trkpt lat="29.5561226" lon="103.3534932"><ele>1583.16</ele><time>2026-01-21T22:01:27.000Z</time></trkpt>
        <trkpt lat="29.5562158" lon="103.3535173"><ele>1582.92</ele><time>2026-01-21T22:01:41.000Z</time></trkpt>
        <trkpt lat="29.5563056" lon="103.3534849"><ele>1584.33</ele><time>2026-01-21T22:01:57.000Z</time></trkpt>
        <trkpt lat="29.5563816" lon="103.3534047"><ele>1586.47</ele><time>2026-01-21T22:02:09.000Z</time></trkpt>
        <trkpt lat="29.5564338" lon="103.3532991"><ele>1588.03</ele><time>2026-01-21T22:02:19.000Z</time></trkpt>
        <trkpt lat="29.556507" lon="103.3532236"><ele>1588.32</ele><time>2026-01-21T22:02:29.000Z</time></trkpt>
        <trkpt lat="29.5565795" lon="103.3531415"><ele>1588.4</ele><time>2026-01-21T22:02:41.000Z</time></trkpt>
        <trkpt lat="29.5566465" lon="103.3530662"><ele>1588.23</ele><time>2026-01-21T22:02:51.000Z</time></trkpt>
        <trkpt lat="29.5567278" lon="103.3530038"><ele>1587.18</ele><time>2026-01-21T22:03:03.000Z</time></trkpt>
        <trkpt lat="29.5568032" lon="103.3529235"><ele>1585.68</ele><time>2026-01-21T22:03:19.000Z</time></trkpt>
        <trkpt lat="29.5568571" lon="103.3528297"><ele>1582.77</ele><time>2026-01-21T22:03:29.000Z</time></trkpt>
        <trkpt lat="29.5569105" lon="103.352739"><ele>1580.16</ele><time>2026-01-21T22:03:43.000Z</time></trkpt>
        <trkpt lat="29.55696" lon="103.3526442"><ele>1577.77</ele><time>2026-01-21T22:03:57.000Z</time></trkpt>
        <trkpt lat="29.55696" lon="103.3526442"><ele>1577.77</ele><time>2026-01-21T22:04:13.000Z</time></trkpt>
        <trkpt lat="29.55704" lon="103.35259"><ele>1575.76</ele><time>2026-01-21T22:05:17.000Z</time></trkpt>
        <trkpt lat="29.55704" lon="103.35259"><ele>1575.76</ele><time>2026-01-21T22:05:37.000Z</time></trkpt>
        <trkpt lat="29.557105" lon="103.3525183"><ele>1573.84</ele><time>2026-01-21T22:05:49.000Z</time></trkpt>
        <trkpt lat="29.5571686" lon="103.352441"><ele>1572.06</ele><time>2026-01-21T22:06:03.000Z</time></trkpt>
        <trkpt lat="29.5572448" lon="103.3523679"><ele>1569.88</ele><time>2026-01-21T22:06:17.000Z</time></trkpt>
        <trkpt lat="29.5572948" lon="103.3522784"><ele>1566.32</ele><time>2026-01-21T22:06:31.000Z</time></trkpt>
        <trkpt lat="29.5573564" lon="103.3522018"><ele>1562.14</ele><time>2026-01-21T22:06:43.000Z</time></trkpt>
        <trkpt lat="29.5574244" lon="103.3521232"><ele>1559.07</ele><time>2026-01-21T22:06:55.000Z</time></trkpt>
        <trkpt lat="29.5574859" lon="103.3520373"><ele>1556.97</ele><time>2026-01-21T22:07:09.000Z</time></trkpt>
        <trkpt lat="29.5575184" lon="103.3519375"><ele>1554.79</ele><time>2026-01-21T22:07:21.000Z</time></trkpt>
        <trkpt lat="29.5575305" lon="103.3518305"><ele>1552.95</ele><time>2026-01-21T22:07:33.000Z</time></trkpt>
        <trkpt lat="29.557563" lon="103.3517343"><ele>1551.38</ele><time>2026-01-21T22:07:51.000Z</time></trkpt>
        <trkpt lat="29.5575887" lon="103.3516318"><ele>1548.85</ele><time>2026-01-21T22:08:13.000Z</time></trkpt>
        <trkpt lat="29.5575957" lon="103.351528"><ele>1545.04</ele><time>2026-01-21T22:08:33.000Z</time></trkpt>
        <trkpt lat="29.5576637" lon="103.3514579"><ele>1541.28</ele><time>2026-01-21T22:08:45.000Z</time></trkpt>
        <trkpt lat="29.5577652" lon="103.3514441"><ele>1539.1</ele><time>2026-01-21T22:08:59.000Z</time></trkpt>
        <trkpt lat="29.5578676" lon="103.3514593"><ele>1537.89</ele><time>2026-01-21T22:09:13.000Z</time></trkpt>
        <trkpt lat="29.5579632" lon="103.351501"><ele>1538.2</ele><time>2026-01-21T22:09:27.000Z</time></trkpt>
        <trkpt lat="29.5580596" lon="103.3515337"><ele>1539.45</ele><time>2026-01-21T22:09:39.000Z</time></trkpt>
        <trkpt lat="29.5581594" lon="103.3515396"><ele>1540.8</ele><time>2026-01-21T22:09:51.000Z</time></trkpt>
        <trkpt lat="29.5582476" lon="103.3515056"><ele>1542.22</ele><time>2026-01-21T22:10:03.000Z</time></trkpt>
        <trkpt lat="29.558335" lon="103.3514566"><ele>1543.5</ele><time>2026-01-21T22:10:17.000Z</time></trkpt>
        <trkpt lat="29.5584263" lon="103.3514122"><ele>1544.23</ele><time>2026-01-21T22:10:29.000Z</time></trkpt>
        <trkpt lat="29.5585205" lon="103.3513641"><ele>1543.83</ele><time>2026-01-21T22:10:43.000Z</time></trkpt>
        <trkpt lat="29.5586069" lon="103.3513194"><ele>1542.01</ele><time>2026-01-21T22:10:51.000Z</time></trkpt>
        <trkpt lat="29.5586866" lon="103.3512528"><ele>1540.37</ele><time>2026-01-21T22:11:01.000Z</time></trkpt>
        <trkpt lat="29.5587654" lon="103.3511959"><ele>1538.96</ele><time>2026-01-21T22:11:15.000Z</time></trkpt>
        <trkpt lat="29.5588468" lon="103.3511364"><ele>1537.73</ele><time>2026-01-21T22:11:31.000Z</time></trkpt>
        <trkpt lat="29.5589272" lon="103.3510697"><ele>1534.62</ele><time>2026-01-21T22:11:41.000Z</time></trkpt>
        <trkpt lat="29.5589958" lon="103.350982"><ele>1532.03</ele><time>2026-01-21T22:11:53.000Z</time></trkpt>
        <trkpt lat="29.5590565" lon="103.3508982"><ele>1531.33</ele><time>2026-01-21T22:12:03.000Z</time></trkpt>
        <trkpt lat="29.5591275" lon="103.350835"><ele>1531.92</ele><time>2026-01-21T22:12:13.000Z</time></trkpt>
        <trkpt lat="29.5592131" lon="103.3507872"><ele>1532.56</ele><time>2026-01-21T22:12:25.000Z</time></trkpt>
        <trkpt lat="29.5593038" lon="103.3507693"><ele>1532.96</ele><time>2026-01-21T22:12:39.000Z</time></trkpt>
        <trkpt lat="29.5593893" lon="103.350731"><ele>1532.55</ele><time>2026-01-21T22:12:53.000Z</time></trkpt>
        <trkpt lat="29.5594597" lon="103.3506603"><ele>1531.28</ele><time>2026-01-21T22:13:09.000Z</time></trkpt>
        <trkpt lat="29.5595406" lon="103.3506153"><ele>1528.92</ele><time>2026-01-21T22:13:19.000Z</time></trkpt>
        <trkpt lat="29.5596025" lon="103.3505351"><ele>1526.42</ele><time>2026-01-21T22:13:29.000Z</time></trkpt>
        <trkpt lat="29.5596446" lon="103.3504402"><ele>1523.83</ele><time>2026-01-21T22:13:47.000Z</time></trkpt>
        <trkpt lat="29.5597318" lon="103.3504205"><ele>1522.14</ele><time>2026-01-21T22:14:11.000Z</time></trkpt>
        <trkpt lat="29.5598096" lon="103.3503724"><ele>1522.77</ele><time>2026-01-21T22:14:33.000Z</time></trkpt>
        <trkpt lat="29.5598096" lon="103.3503724"><ele>1522.77</ele><time>2026-01-21T22:14:49.000Z</time></trkpt>
        <trkpt lat="29.5598096" lon="103.3503724"><ele>1522.77</ele><time>2026-01-21T22:15:45.000Z</time></trkpt>
        <trkpt lat="29.5598096" lon="103.3503724"><ele>1522.77</ele><time>2026-01-21T22:16:01.000Z</time></trkpt>
        <trkpt lat="29.5598983" lon="103.3503433"><ele>1525.41</ele><time>2026-01-21T22:16:15.000Z</time></trkpt>
        <trkpt lat="29.5598983" lon="103.3503433"><ele>1525.41</ele><time>2026-01-21T22:16:39.000Z</time></trkpt>
        <trkpt lat="29.5599933" lon="103.3503517"><ele>1530.09</ele><time>2026-01-21T22:16:59.000Z</time></trkpt>
        <trkpt lat="29.5599933" lon="103.3503517"><ele>1530.09</ele><time>2026-01-21T22:17:27.000Z</time></trkpt>
        <trkpt lat="29.5600617" lon="103.350435"><ele>1535</ele><time>2026-01-21T22:19:03.000Z</time></trkpt>
        <trkpt lat="29.5600617" lon="103.350435"><ele>1535</ele><time>2026-01-21T22:19:53.000Z</time></trkpt>
        <trkpt lat="29.5600617" lon="103.350435"><ele>1535</ele><time>2026-01-21T22:20:35.000Z</time></trkpt>
        <trkpt lat="29.560145" lon="103.3505367"><ele>1539.65</ele><time>2026-01-21T22:20:45.000Z</time></trkpt>
        <trkpt lat="29.560145" lon="103.3505367"><ele>1539.65</ele><time>2026-01-21T22:20:57.000Z</time></trkpt>
        <trkpt lat="29.56021" lon="103.350645"><ele>1545.91</ele><time>2026-01-21T22:21:33.000Z</time></trkpt>
        <trkpt lat="29.560275" lon="103.3507251"><ele>1553.3</ele><time>2026-01-21T22:22:13.000Z</time></trkpt>
        <trkpt lat="29.5602474" lon="103.3508093"><ele>1562.21</ele><time>2026-01-21T22:22:41.000Z</time></trkpt>
        <trkpt lat="29.5602585" lon="103.3509071"><ele>1569.64</ele><time>2026-01-21T22:22:57.000Z</time></trkpt>
        <trkpt lat="29.5602713" lon="103.351045"><ele>1575.13</ele><time>2026-01-21T22:23:35.000Z</time></trkpt>
        <trkpt lat="29.5603517" lon="103.3511222"><ele>1579.33</ele><time>2026-01-21T22:24:33.000Z</time></trkpt>
        <trkpt lat="29.5604695" lon="103.3511271"><ele>1584.78</ele><time>2026-01-21T22:25:19.000Z</time></trkpt>
        <trkpt lat="29.5604695" lon="103.3511271"><ele>1584.78</ele><time>2026-01-21T22:25:39.000Z</time></trkpt>
        <trkpt lat="29.5605583" lon="103.3511733"><ele>1592.75</ele><time>2026-01-21T22:25:47.000Z</time></trkpt>
        <trkpt lat="29.5605583" lon="103.3511733"><ele>1592.75</ele><time>2026-01-21T22:26:27.000Z</time></trkpt>
        <trkpt lat="29.5606583" lon="103.3511583"><ele>1598.71</ele><time>2026-01-21T22:26:53.000Z</time></trkpt>
        <trkpt lat="29.5606583" lon="103.3511583"><ele>1598.71</ele><time>2026-01-21T22:28:03.000Z</time></trkpt>
        <trkpt lat="29.5606583" lon="103.3511583"><ele>1598.71</ele><time>2026-01-21T22:28:13.000Z</time></trkpt>
        <trkpt lat="29.5606583" lon="103.3511583"><ele>1598.71</ele><time>2026-01-21T22:28:27.000Z</time></trkpt>
        <trkpt lat="29.5606583" lon="103.3511583"><ele>1598.71</ele><time>2026-01-21T22:30:33.000Z</time></trkpt>
        <trkpt lat="29.5606583" lon="103.3511583"><ele>1598.71</ele><time>2026-01-21T22:31:25.000Z</time></trkpt>
        <trkpt lat="29.5606283" lon="103.35129"><ele>1603.31</ele><time>2026-01-21T22:31:29.000Z</time></trkpt>
        <trkpt lat="29.5606283" lon="103.35129"><ele>1603.31</ele><time>2026-01-21T22:31:41.000Z</time></trkpt>
        <trkpt lat="29.5607217" lon="103.351305"><ele>1610.66</ele><time>2026-01-21T22:32:01.000Z</time></trkpt>
        <trkpt lat="29.560674" lon="103.3513722"><ele>1615.97</ele><time>2026-01-21T22:32:27.000Z</time></trkpt>
        <trkpt lat="29.5606129" lon="103.3514615"><ele>1621.87</ele><time>2026-01-21T22:32:45.000Z</time></trkpt>
        <trkpt lat="29.5605419" lon="103.3515441"><ele>1627.26</ele><time>2026-01-21T22:32:59.000Z</time></trkpt>
        <trkpt lat="29.5605696" lon="103.3516181"><ele>1631.19</ele><time>2026-01-21T22:33:33.000Z</time></trkpt>
        <trkpt lat="29.5606563" lon="103.3516178"><ele>1637.43</ele><time>2026-01-21T22:34:13.000Z</time></trkpt>
        <trkpt lat="29.5607367" lon="103.3515527"><ele>1644.95</ele><time>2026-01-21T22:34:33.000Z</time></trkpt>
        <trkpt lat="29.5608171" lon="103.3515695"><ele>1651.29</ele><time>2026-01-21T22:35:15.000Z</time></trkpt>
        <trkpt lat="29.5608712" lon="103.3515067"><ele>1654.78</ele><time>2026-01-21T22:35:23.000Z</time></trkpt>
        <trkpt lat="29.5608342" lon="103.3515423"><ele>1656.68</ele><time>2026-01-21T22:35:33.000Z</time></trkpt>
        <trkpt lat="29.5608073" lon="103.3515786"><ele>1659.23</ele><time>2026-01-21T22:35:45.000Z</time></trkpt>
        <trkpt lat="29.5608583" lon="103.3515415"><ele>1661.32</ele><time>2026-01-21T22:36:07.000Z</time></trkpt>
        <trkpt lat="29.560935" lon="103.3515672"><ele>1662</ele><time>2026-01-21T22:36:21.000Z</time></trkpt>
        <trkpt lat="29.5610295" lon="103.3516076"><ele>1662.9</ele><time>2026-01-21T22:37:09.000Z</time></trkpt>
        <trkpt lat="29.5610295" lon="103.3516076"><ele>1662.9</ele><time>2026-01-21T22:37:39.000Z</time></trkpt>
        <trkpt lat="29.5611417" lon="103.3515717"><ele>1663.33</ele><time>2026-01-21T22:37:57.000Z</time></trkpt>
        <trkpt lat="29.5611417" lon="103.3515717"><ele>1663.33</ele><time>2026-01-21T22:38:27.000Z</time></trkpt>
        <trkpt lat="29.5612217" lon="103.351655"><ele>1664.95</ele><time>2026-01-21T22:38:37.000Z</time></trkpt>
        <trkpt lat="29.5613172" lon="103.3516664"><ele>1665.45</ele><time>2026-01-21T22:38:47.000Z</time></trkpt>
        <trkpt lat="29.561409" lon="103.351687"><ele>1667.23</ele><time>2026-01-21T22:39:09.000Z</time></trkpt>
        <trkpt lat="29.561409" lon="103.351687"><ele>1667.23</ele><time>2026-01-21T22:39:33.000Z</time></trkpt>
        <trkpt lat="29.5614617" lon="103.35177"><ele>1669.41</ele><time>2026-01-21T22:39:57.000Z</time></trkpt>
        <trkpt lat="29.5614617" lon="103.35177"><ele>1669.41</ele><time>2026-01-21T22:41:11.000Z</time></trkpt>
        <trkpt lat="29.5614517" lon="103.3518767"><ele>1675.43</ele><time>2026-01-21T22:41:59.000Z</time></trkpt>
        <trkpt lat="29.561515" lon="103.3519467"><ele>1679.03</ele><time>2026-01-21T22:42:33.000Z</time></trkpt>
        <trkpt lat="29.5616029" lon="103.3519754"><ele>1683.06</ele><time>2026-01-21T22:43:19.000Z</time></trkpt>
        <trkpt lat="29.5616029" lon="103.3519754"><ele>1683.06</ele><time>2026-01-21T22:43:53.000Z</time></trkpt>
        <trkpt lat="29.5617815" lon="103.3520068"><ele>1688.71</ele><time>2026-01-21T22:43:59.000Z</time></trkpt>
        <trkpt lat="29.5617815" lon="103.3520068"><ele>1688.71</ele><time>2026-01-21T22:44:21.000Z</time></trkpt>
        <trkpt lat="29.5618117" lon="103.3520749"><ele>1693.91</ele><time>2026-01-21T22:44:37.000Z</time></trkpt>
        <trkpt lat="29.5618146" lon="103.3521773"><ele>1698.72</ele><time>2026-01-21T22:45:13.000Z</time></trkpt>
        <trkpt lat="29.5618778" lon="103.3522234"><ele>1703.1</ele><time>2026-01-21T22:45:45.000Z</time></trkpt>
        <trkpt lat="29.5618778" lon="103.3522234"><ele>1703.1</ele><time>2026-01-21T22:46:39.000Z</time></trkpt>
        <trkpt lat="29.5618778" lon="103.3522234"><ele>1703.1</ele><time>2026-01-21T22:46:47.000Z</time></trkpt>
        <trkpt lat="29.5618778" lon="103.3522234"><ele>1703.1</ele><time>2026-01-21T22:47:05.000Z</time></trkpt>
        <trkpt lat="29.5618778" lon="103.3522234"><ele>1703.1</ele><time>2026-01-21T22:47:41.000Z</time></trkpt>
        <trkpt lat="29.5618778" lon="103.3522234"><ele>1703.1</ele><time>2026-01-21T22:48:21.000Z</time></trkpt>
        <trkpt lat="29.5618778" lon="103.3522234"><ele>1703.1</ele><time>2026-01-21T22:48:33.000Z</time></trkpt>
        <trkpt lat="29.5618778" lon="103.3522234"><ele>1703.1</ele><time>2026-01-21T22:48:49.000Z</time></trkpt>
        <trkpt lat="29.5618778" lon="103.3522234"><ele>1703.1</ele><time>2026-01-21T22:49:51.000Z</time></trkpt>
        <trkpt lat="29.5618778" lon="103.3522234"><ele>1703.1</ele><time>2026-01-21T22:50:09.000Z</time></trkpt>
        <trkpt lat="29.5619933" lon="103.3522033"><ele>1708.31</ele><time>2026-01-21T22:50:31.000Z</time></trkpt>
        <trkpt lat="29.5619933" lon="103.3522033"><ele>1708.31</ele><time>2026-01-21T22:50:39.000Z</time></trkpt>
        <trkpt lat="29.5620867" lon="103.35216"><ele>1719.75</ele><time>2026-01-21T22:50:51.000Z</time></trkpt>
        <trkpt lat="29.5621885" lon="103.3521745"><ele>1726.01</ele><time>2026-01-21T22:51:05.000Z</time></trkpt>
        <trkpt lat="29.562284" lon="103.3521838"><ele>1730.61</ele><time>2026-01-21T22:51:29.000Z</time></trkpt>
        <trkpt lat="29.5623739" lon="103.3521729"><ele>1734.99</ele><time>2026-01-21T22:51:43.000Z</time></trkpt>
        <trkpt lat="29.5624744" lon="103.352218"><ele>1737.49</ele><time>2026-01-21T22:52:19.000Z</time></trkpt>
        <trkpt lat="29.5625928" lon="103.352259"><ele>1740.38</ele><time>2026-01-21T22:52:59.000Z</time></trkpt>
        <trkpt lat="29.5626937" lon="103.3522782"><ele>1745.38</ele><time>2026-01-21T22:53:47.000Z</time></trkpt>
        <trkpt lat="29.5627581" lon="103.3522167"><ele>1752.01</ele><time>2026-01-21T22:54:01.000Z</time></trkpt>
        <trkpt lat="29.5627445" lon="103.3521012"><ele>1756.82</ele><time>2026-01-21T22:54:11.000Z</time></trkpt>
        <trkpt lat="29.5626807" lon="103.3519933"><ele>1760.3</ele><time>2026-01-21T22:54:21.000Z</time></trkpt>
        <trkpt lat="29.562604" lon="103.3518923"><ele>1762.54</ele><time>2026-01-21T22:54:31.000Z</time></trkpt>
        <trkpt lat="29.562537" lon="103.3517988"><ele>1762.91</ele><time>2026-01-21T22:54:43.000Z</time></trkpt>
        <trkpt lat="29.5625573" lon="103.3517078"><ele>1761.87</ele><time>2026-01-21T22:55:09.000Z</time></trkpt>
        <trkpt lat="29.5626223" lon="103.351634"><ele>1760.94</ele><time>2026-01-21T22:55:43.000Z</time></trkpt>
        <trkpt lat="29.5626846" lon="103.3515389"><ele>1762.77</ele><time>2026-01-21T22:56:07.000Z</time></trkpt>
        <trkpt lat="29.5627249" lon="103.35143"><ele>1764.5</ele><time>2026-01-21T22:56:19.000Z</time></trkpt>
        <trkpt lat="29.5627675" lon="103.3513191"><ele>1766.01</ele><time>2026-01-21T22:56:33.000Z</time></trkpt>
        <trkpt lat="29.5628147" lon="103.3512125"><ele>1766.86</ele><time>2026-01-21T22:56:51.000Z</time></trkpt>
        <trkpt lat="29.5628697" lon="103.3511206"><ele>1768.73</ele><time>2026-01-21T22:57:11.000Z</time></trkpt>
        <trkpt lat="29.5628671" lon="103.3510216"><ele>1771.38</ele><time>2026-01-21T22:57:31.000Z</time></trkpt>
        <trkpt lat="29.5628579" lon="103.3509144"><ele>1775</ele><time>2026-01-21T22:57:53.000Z</time></trkpt>
        <trkpt lat="29.5628379" lon="103.3508029"><ele>1778.79</ele><time>2026-01-21T22:58:05.000Z</time></trkpt>
        <trkpt lat="29.5628296" lon="103.3506802"><ele>1782.79</ele><time>2026-01-21T22:58:39.000Z</time></trkpt>
        <trkpt lat="29.562787" lon="103.350564"><ele>1787.36</ele><time>2026-01-21T22:58:47.000Z</time></trkpt>
        <trkpt lat="29.562796" lon="103.3504497"><ele>1790.34</ele><time>2026-01-21T22:59:03.000Z</time></trkpt>
        <trkpt lat="29.562796" lon="103.3504497"><ele>1790.34</ele><time>2026-01-21T22:59:17.000Z</time></trkpt>
        <trkpt lat="29.5628245" lon="103.3503425"><ele>1792.13</ele><time>2026-01-21T22:59:29.000Z</time></trkpt>
        <trkpt lat="29.5628245" lon="103.3503425"><ele>1792.13</ele><time>2026-01-21T23:00:03.000Z</time></trkpt>
        <trkpt lat="29.5628497" lon="103.3502291"><ele>1789.71</ele><time>2026-01-21T23:00:19.000Z</time></trkpt>
        <trkpt lat="29.5628716" lon="103.3501117"><ele>1786.56</ele><time>2026-01-21T23:00:31.000Z</time></trkpt>
        <trkpt lat="29.5628977" lon="103.349998"><ele>1784.39</ele><time>2026-01-21T23:00:43.000Z</time></trkpt>
        <trkpt lat="29.56291" lon="103.3498734"><ele>1783.53</ele><time>2026-01-21T23:00:53.000Z</time></trkpt>
        <trkpt lat="29.5629257" lon="103.3497498"><ele>1782.61</ele><time>2026-01-21T23:01:05.000Z</time></trkpt>
        <trkpt lat="29.5629544" lon="103.3496409"><ele>1781.23</ele><time>2026-01-21T23:01:15.000Z</time></trkpt>
        <trkpt lat="29.563008" lon="103.3495539"><ele>1780.1</ele><time>2026-01-21T23:01:25.000Z</time></trkpt>
        <trkpt lat="29.5630713" lon="103.3494768"><ele>1779.97</ele><time>2026-01-21T23:01:33.000Z</time></trkpt>
        <trkpt lat="29.5631252" lon="103.3493929"><ele>1780.11</ele><time>2026-01-21T23:01:43.000Z</time></trkpt>
        <trkpt lat="29.5631654" lon="103.3492863"><ele>1780.88</ele><time>2026-01-21T23:01:53.000Z</time></trkpt>
        <trkpt lat="29.5632116" lon="103.3491913"><ele>1781.32</ele><time>2026-01-21T23:02:03.000Z</time></trkpt>
        <trkpt lat="29.5632232" lon="103.3490801"><ele>1781.57</ele><time>2026-01-21T23:02:15.000Z</time></trkpt>
        <trkpt lat="29.5632232" lon="103.3489718"><ele>1781.84</ele><time>2026-01-21T23:02:25.000Z</time></trkpt>
        <trkpt lat="29.5632486" lon="103.3488716"><ele>1782.51</ele><time>2026-01-21T23:02:39.000Z</time></trkpt>
        <trkpt lat="29.5632509" lon="103.3487671"><ele>1783.67</ele><time>2026-01-21T23:02:49.000Z</time></trkpt>
        <trkpt lat="29.5632419" lon="103.3486496"><ele>1784.93</ele><time>2026-01-21T23:02:59.000Z</time></trkpt>
        <trkpt lat="29.5632372" lon="103.3485236"><ele>1785.95</ele><time>2026-01-21T23:03:11.000Z</time></trkpt>
        <trkpt lat="29.5632616" lon="103.348409"><ele>1786.7</ele><time>2026-01-21T23:03:21.000Z</time></trkpt>
        <trkpt lat="29.5632994" lon="103.348307"><ele>1787.35</ele><time>2026-01-21T23:03:31.000Z</time></trkpt>
        <trkpt lat="29.5633658" lon="103.3482232"><ele>1787.76</ele><time>2026-01-21T23:03:45.000Z</time></trkpt>
        <trkpt lat="29.5634249" lon="103.3481339"><ele>1789.11</ele><time>2026-01-21T23:03:55.000Z</time></trkpt>
        <trkpt lat="29.5634739" lon="103.3480363"><ele>1790.31</ele><time>2026-01-21T23:04:05.000Z</time></trkpt>
        <trkpt lat="29.5635385" lon="103.3479565"><ele>1790.95</ele><time>2026-01-21T23:04:15.000Z</time></trkpt>
        <trkpt lat="29.5635838" lon="103.3478658"><ele>1790.58</ele><time>2026-01-21T23:04:25.000Z</time></trkpt>
        <trkpt lat="29.563605" lon="103.3477654"><ele>1790.16</ele><time>2026-01-21T23:04:37.000Z</time></trkpt>
        <trkpt lat="29.5636105" lon="103.3476589"><ele>1789.4</ele><time>2026-01-21T23:04:49.000Z</time></trkpt>
        <trkpt lat="29.5636194" lon="103.3475447"><ele>1788.58</ele><time>2026-01-21T23:05:03.000Z</time></trkpt>
        <trkpt lat="29.5635925" lon="103.3474282"><ele>1787.73</ele><time>2026-01-21T23:05:13.000Z</time></trkpt>
        <trkpt lat="29.5635458" lon="103.3473255"><ele>1786.94</ele><time>2026-01-21T23:05:25.000Z</time></trkpt>
        <trkpt lat="29.5634803" lon="103.3472371"><ele>1785.33</ele><time>2026-01-21T23:05:35.000Z</time></trkpt>
        <trkpt lat="29.5633879" lon="103.347161"><ele>1784.67</ele><time>2026-01-21T23:05:45.000Z</time></trkpt>
        <trkpt lat="29.5632966" lon="103.3471108"><ele>1784.51</ele><time>2026-01-21T23:05:55.000Z</time></trkpt>
        <trkpt lat="29.5632196" lon="103.3471203"><ele>1784.59</ele><time>2026-01-21T23:06:13.000Z</time></trkpt>
        <trkpt lat="29.5632196" lon="103.3471203"><ele>1784.59</ele><time>2026-01-21T23:06:41.000Z</time></trkpt>
        <trkpt lat="29.5632196" lon="103.3471203"><ele>1784.59</ele><time>2026-01-21T23:07:43.000Z</time></trkpt>
        <trkpt lat="29.5632196" lon="103.3471203"><ele>1784.59</ele><time>2026-01-21T23:08:07.000Z</time></trkpt>
        <trkpt lat="29.56323" lon="103.3470383"><ele>1784.51</ele><time>2026-01-21T23:08:09.000Z</time></trkpt>
        <trkpt lat="29.56323" lon="103.3470383"><ele>1784.51</ele><time>2026-01-21T23:08:23.000Z</time></trkpt>
        <trkpt lat="29.5631683" lon="103.3469567"><ele>1787.99</ele><time>2026-01-21T23:08:33.000Z</time></trkpt>
        <trkpt lat="29.5631053" lon="103.346875"><ele>1788.04</ele><time>2026-01-21T23:08:45.000Z</time></trkpt>
        <trkpt lat="29.5630342" lon="103.3468011"><ele>1786.3</ele><time>2026-01-21T23:08:57.000Z</time></trkpt>
        <trkpt lat="29.5629594" lon="103.346722"><ele>1784.28</ele><time>2026-01-21T23:09:07.000Z</time></trkpt>
        <trkpt lat="29.5628998" lon="103.3466309"><ele>1782.48</ele><time>2026-01-21T23:09:17.000Z</time></trkpt>
        <trkpt lat="29.5628349" lon="103.3465554"><ele>1780.9</ele><time>2026-01-21T23:09:23.000Z</time></trkpt>
        <trkpt lat="29.5627486" lon="103.3464951"><ele>1779.87</ele><time>2026-01-21T23:09:35.000Z</time></trkpt>
        <trkpt lat="29.5626546" lon="103.3464436"><ele>1779.11</ele><time>2026-01-21T23:09:45.000Z</time></trkpt>
        <trkpt lat="29.5625689" lon="103.3463742"><ele>1778.63</ele><time>2026-01-21T23:09:55.000Z</time></trkpt>
        <trkpt lat="29.562491" lon="103.3463022"><ele>1778.75</ele><time>2026-01-21T23:10:03.000Z</time></trkpt>
        <trkpt lat="29.5624299" lon="103.3462222"><ele>1778.64</ele><time>2026-01-21T23:10:11.000Z</time></trkpt>
        <trkpt lat="29.562352" lon="103.3461471"><ele>1778.41</ele><time>2026-01-21T23:10:21.000Z</time></trkpt>
        <trkpt lat="29.5622918" lon="103.3460481"><ele>1778.06</ele><time>2026-01-21T23:10:31.000Z</time></trkpt>
        <trkpt lat="29.5622523" lon="103.3459317"><ele>1778.21</ele><time>2026-01-21T23:10:41.000Z</time></trkpt>
        <trkpt lat="29.5622007" lon="103.3458291"><ele>1777.77</ele><time>2026-01-21T23:10:51.000Z</time></trkpt>
        <trkpt lat="29.5621494" lon="103.3457244"><ele>1776.67</ele><time>2026-01-21T23:11:01.000Z</time></trkpt>
        <trkpt lat="29.5620855" lon="103.3456329"><ele>1776.08</ele><time>2026-01-21T23:11:15.000Z</time></trkpt>
        <trkpt lat="29.5619881" lon="103.3455927"><ele>1774.88</ele><time>2026-01-21T23:11:27.000Z</time></trkpt>
        <trkpt lat="29.5618729" lon="103.3455819"><ele>1773.69</ele><time>2026-01-21T23:11:39.000Z</time></trkpt>
        <trkpt lat="29.5617696" lon="103.3455962"><ele>1772.44</ele><time>2026-01-21T23:11:49.000Z</time></trkpt>
        <trkpt lat="29.5616702" lon="103.3455964"><ele>1771.61</ele><time>2026-01-21T23:12:01.000Z</time></trkpt>
        <trkpt lat="29.5615791" lon="103.3455557"><ele>1771.78</ele><time>2026-01-21T23:12:11.000Z</time></trkpt>
        <trkpt lat="29.5615085" lon="103.3454767"><ele>1772.39</ele><time>2026-01-21T23:12:21.000Z</time></trkpt>
        <trkpt lat="29.56146" lon="103.3453767"><ele>1773.25</ele><time>2026-01-21T23:12:29.000Z</time></trkpt>
        <trkpt lat="29.5614395" lon="103.3453096"><ele>1773.92</ele><time>2026-01-21T23:12:45.000Z</time></trkpt>
        <trkpt lat="29.5614395" lon="103.3453096"><ele>1773.92</ele><time>2026-01-21T23:12:49.000Z</time></trkpt>
        <trkpt lat="29.5613833" lon="103.345235"><ele>1773.95</ele><time>2026-01-21T23:12:55.000Z</time></trkpt>
        <trkpt lat="29.5613833" lon="103.345235"><ele>1773.95</ele><time>2026-01-21T23:13:55.000Z</time></trkpt>
        <trkpt lat="29.5612983" lon="103.3451983"><ele>1774.32</ele><time>2026-01-21T23:14:15.000Z</time></trkpt>
        <trkpt lat="29.5612274" lon="103.345125"><ele>1776.12</ele><time>2026-01-21T23:14:51.000Z</time></trkpt>
        <trkpt lat="29.5611886" lon="103.345031"><ele>1778.82</ele><time>2026-01-21T23:15:36.000Z</time></trkpt>
        <trkpt lat="29.5611148" lon="103.3449868"><ele>1782.51</ele><time>2026-01-21T23:16:24.000Z</time></trkpt>
        <trkpt lat="29.5610272" lon="103.3449892"><ele>1788.1</ele><time>2026-01-21T23:17:14.000Z</time></trkpt>
        <trkpt lat="29.5610272" lon="103.3449892"><ele>1788.1</ele><time>2026-01-21T23:17:23.000Z</time></trkpt>
        <trkpt lat="29.5609503" lon="103.3450459"><ele>1794.04</ele><time>2026-01-21T23:17:31.000Z</time></trkpt>
        <trkpt lat="29.5609503" lon="103.3450459"><ele>1794.04</ele><time>2026-01-21T23:18:04.000Z</time></trkpt>
        <trkpt lat="29.560891" lon="103.3450077"><ele>1799.87</ele><time>2026-01-21T23:18:42.000Z</time></trkpt>
        <trkpt lat="29.5608607" lon="103.3449161"><ele>1807.07</ele><time>2026-01-21T23:19:12.000Z</time></trkpt>
        <trkpt lat="29.5608607" lon="103.3449161"><ele>1807.07</ele><time>2026-01-21T23:19:33.000Z</time></trkpt>
        <trkpt lat="29.5607833" lon="103.344905"><ele>1813.88</ele><time>2026-01-21T23:19:57.000Z</time></trkpt>
        <trkpt lat="29.5607833" lon="103.344905"><ele>1813.88</ele><time>2026-01-21T23:20:32.000Z</time></trkpt>
        <trkpt lat="29.5607833" lon="103.3448017"><ele>1819.35</ele><time>2026-01-21T23:21:04.000Z</time></trkpt>
        <trkpt lat="29.5607523" lon="103.344704"><ele>1825.69</ele><time>2026-01-21T23:21:30.000Z</time></trkpt>
        <trkpt lat="29.5607523" lon="103.344704"><ele>1825.69</ele><time>2026-01-21T23:22:11.000Z</time></trkpt>
        <trkpt lat="29.5607523" lon="103.344704"><ele>1825.69</ele><time>2026-01-21T23:22:15.000Z</time></trkpt>
        <trkpt lat="29.5607523" lon="103.344704"><ele>1825.69</ele><time>2026-01-21T23:22:47.000Z</time></trkpt>
        <trkpt lat="29.5607523" lon="103.344704"><ele>1825.69</ele><time>2026-01-21T23:23:15.000Z</time></trkpt>
        <trkpt lat="29.5607523" lon="103.344704"><ele>1825.69</ele><time>2026-01-21T23:23:17.000Z</time></trkpt>
      </trkseg>
      <trkseg>
        <trkpt lat="29.5607767" lon="103.3446883"><ele>1830.51</ele><time>2026-01-21T23:33:23.000Z</time></trkpt>
        <trkpt lat="29.5607767" lon="103.3446883"><ele>1830.51</ele><time>2026-01-21T23:33:26.000Z</time></trkpt>
        <trkpt lat="29.56068" lon="103.344735"><ele>1835.11</ele><time>2026-01-21T23:33:48.000Z</time></trkpt>
        <trkpt lat="29.5605918" lon="103.3446844"><ele>1839.28</ele><time>2026-01-21T23:34:12.000Z</time></trkpt>
        <trkpt lat="29.5605051" lon="103.3446358"><ele>1841.78</ele><time>2026-01-21T23:34:38.000Z</time></trkpt>
        <trkpt lat="29.5604289" lon="103.3445686"><ele>1845.1</ele><time>2026-01-21T23:35:02.000Z</time></trkpt>
        <trkpt lat="29.5603539" lon="103.3445058"><ele>1848.84</ele><time>2026-01-21T23:35:28.000Z</time></trkpt>
        <trkpt lat="29.5602836" lon="103.3444318"><ele>1852.95</ele><time>2026-01-21T23:36:02.000Z</time></trkpt>
        <trkpt lat="29.5602096" lon="103.3443609"><ele>1857.88</ele><time>2026-01-21T23:36:40.000Z</time></trkpt>
        <trkpt lat="29.5602096" lon="103.3443609"><ele>1857.88</ele><time>2026-01-21T23:37:20.000Z</time></trkpt>
        <trkpt lat="29.5602096" lon="103.3443609"><ele>1857.88</ele><time>2026-01-21T23:37:26.000Z</time></trkpt>
        <trkpt lat="29.5602096" lon="103.3443609"><ele>1857.88</ele><time>2026-01-21T23:37:44.000Z</time></trkpt>
        <trkpt lat="29.5602096" lon="103.3443609"><ele>1857.88</ele><time>2026-01-21T23:37:46.000Z</time></trkpt>
        <trkpt lat="29.5602096" lon="103.3443609"><ele>1857.88</ele><time>2026-01-21T23:38:40.000Z</time></trkpt>
        <trkpt lat="29.5601983" lon="103.3442517"><ele>1863.61</ele><time>2026-01-21T23:38:52.000Z</time></trkpt>
        <trkpt lat="29.5601983" lon="103.3442517"><ele>1863.61</ele><time>2026-01-21T23:39:12.000Z</time></trkpt>
        <trkpt lat="29.5601117" lon="103.3442083"><ele>1869.46</ele><time>2026-01-21T23:39:38.000Z</time></trkpt>
        <trkpt lat="29.5601237" lon="103.3440888"><ele>1874.89</ele><time>2026-01-21T23:40:30.000Z</time></trkpt>
        <trkpt lat="29.5601617" lon="103.34396"><ele>1882.25</ele><time>2026-01-21T23:41:42.000Z</time></trkpt>
        <trkpt lat="29.5601017" lon="103.3438617"><ele>1891.05</ele><time>2026-01-21T23:42:12.000Z</time></trkpt>
        <trkpt lat="29.5600233" lon="103.3438071"><ele>1898.13</ele><time>2026-01-21T23:42:38.000Z</time></trkpt>
        <trkpt lat="29.5599302" lon="103.3437177"><ele>1904.18</ele><time>2026-01-21T23:43:26.000Z</time></trkpt>
        <trkpt lat="29.5598411" lon="103.3436579"><ele>1910.3</ele><time>2026-01-21T23:44:00.000Z</time></trkpt>
        <trkpt lat="29.5597779" lon="103.3435779"><ele>1915.93</ele><time>2026-01-21T23:44:28.000Z</time></trkpt>
        <trkpt lat="29.5597121" lon="103.3434943"><ele>1920.99</ele><time>2026-01-21T23:44:52.000Z</time></trkpt>
        <trkpt lat="29.5597121" lon="103.3434943"><ele>1920.99</ele><time>2026-01-21T23:45:20.000Z</time></trkpt>
        <trkpt lat="29.5596604" lon="103.343539"><ele>1925.17</ele><time>2026-01-21T23:45:30.000Z</time></trkpt>
        <trkpt lat="29.5596604" lon="103.343539"><ele>1925.17</ele><time>2026-01-21T23:45:49.000Z</time></trkpt>
        <trkpt lat="29.5595884" lon="103.343532"><ele>1930.43</ele><time>2026-01-21T23:46:21.000Z</time></trkpt>
        <trkpt lat="29.5595067" lon="103.3434893"><ele>1934.89</ele><time>2026-01-21T23:46:51.000Z</time></trkpt>
        <trkpt lat="29.5594533" lon="103.3435468"><ele>1940.19</ele><time>2026-01-21T23:47:19.000Z</time></trkpt>
        <trkpt lat="29.5593748" lon="103.3435848"><ele>1946.43</ele><time>2026-01-21T23:48:01.000Z</time></trkpt>
        <trkpt lat="29.5592909" lon="103.3436361"><ele>1951.19</ele><time>2026-01-21T23:48:57.000Z</time></trkpt>
        <trkpt lat="29.5592573" lon="103.3437296"><ele>1957.82</ele><time>2026-01-21T23:49:25.000Z</time></trkpt>
        <trkpt lat="29.5592089" lon="103.3438183"><ele>1963.1</ele><time>2026-01-21T23:49:51.000Z</time></trkpt>
        <trkpt lat="29.5592089" lon="103.3438183"><ele>1963.1</ele><time>2026-01-21T23:50:18.000Z</time></trkpt>
        <trkpt lat="29.55916" lon="103.34374"><ele>1967.14</ele><time>2026-01-21T23:50:50.000Z</time></trkpt>
        <trkpt lat="29.55916" lon="103.34374"><ele>1967.14</ele><time>2026-01-21T23:51:17.000Z</time></trkpt>
        <trkpt lat="29.5590917" lon="103.3436683"><ele>1971.43</ele><time>2026-01-21T23:51:47.000Z</time></trkpt>
        <trkpt lat="29.5590022" lon="103.3436756"><ele>1976.45</ele><time>2026-01-21T23:52:33.000Z</time></trkpt>
        <trkpt lat="29.5589231" lon="103.3437291"><ele>1982.84</ele><time>2026-01-21T23:53:21.000Z</time></trkpt>
        <trkpt lat="29.558881" lon="103.3438325"><ele>1988.8</ele><time>2026-01-21T23:53:41.000Z</time></trkpt>
        <trkpt lat="29.558896" lon="103.3439564"><ele>1993.66</ele><time>2026-01-21T23:53:57.000Z</time></trkpt>
        <trkpt lat="29.5589463" lon="103.3440682"><ele>1998.62</ele><time>2026-01-21T23:54:09.000Z</time></trkpt>
        <trkpt lat="29.5589002" lon="103.3441027"><ele>2002.49</ele><time>2026-01-21T23:54:51.000Z</time></trkpt>
        <trkpt lat="29.5588859" lon="103.3441828"><ele>2004.56</ele><time>2026-01-21T23:55:15.000Z</time></trkpt>
        <trkpt lat="29.5588814" lon="103.3442842"><ele>2006.34</ele><time>2026-01-21T23:55:37.000Z</time></trkpt>
        <trkpt lat="29.5588352" lon="103.3442513"><ele>2009.25</ele><time>2026-01-21T23:56:19.000Z</time></trkpt>
        <trkpt lat="29.5587331" lon="103.3441991"><ele>2014.3</ele><time>2026-01-21T23:56:43.000Z</time></trkpt>
        <trkpt lat="29.5586326" lon="103.3441551"><ele>2017.01</ele><time>2026-01-21T23:57:03.000Z</time></trkpt>
        <trkpt lat="29.5585368" lon="103.344125"><ele>2019.89</ele><time>2026-01-21T23:57:39.000Z</time></trkpt>
        <trkpt lat="29.5584398" lon="103.3440931"><ele>2024.93</ele><time>2026-01-21T23:58:05.000Z</time></trkpt>
        <trkpt lat="29.558347" lon="103.3440559"><ele>2029.52</ele><time>2026-01-21T23:58:29.000Z</time></trkpt>
        <trkpt lat="29.5582349" lon="103.3440457"><ele>2032.61</ele><time>2026-01-21T23:58:53.000Z</time></trkpt>
        <trkpt lat="29.5581659" lon="103.3441235"><ele>2034.41</ele><time>2026-01-21T23:58:59.000Z</time></trkpt>
        <trkpt lat="29.5583166" lon="103.3441721"><ele>2035.57</ele><time>2026-01-21T23:59:09.000Z</time></trkpt>
        <trkpt lat="29.5583091" lon="103.3441406"><ele>2036.53</ele><time>2026-01-21T23:59:17.000Z</time></trkpt>
        <trkpt lat="29.5581982" lon="103.3440548"><ele>2037.29</ele><time>2026-01-21T23:59:25.000Z</time></trkpt>
        <trkpt lat="29.5581654" lon="103.3439378"><ele>2039.23</ele><time>2026-01-21T23:59:37.000Z</time></trkpt>
        <trkpt lat="29.5582077" lon="103.344016"><ele>2042.49</ele><time>2026-01-21T23:59:43.000Z</time></trkpt>
        <trkpt lat="29.5581627" lon="103.3440771"><ele>2044.82</ele><time>2026-01-22T00:00:09.000Z</time></trkpt>
        <trkpt lat="29.5582178" lon="103.3440609"><ele>2048.03</ele><time>2026-01-22T00:00:37.000Z</time></trkpt>
        <trkpt lat="29.5578761" lon="103.3439655"><ele>2046.43</ele><time>2026-01-22T00:01:30.000Z</time></trkpt>
        <trkpt lat="29.5576945" lon="103.3440275"><ele>2049.45</ele><time>2026-01-22T00:01:44.000Z</time></trkpt>
        <trkpt lat="29.5575947" lon="103.3439961"><ele>2053.3</ele><time>2026-01-22T00:01:54.000Z</time></trkpt>
        <trkpt lat="29.5575947" lon="103.3439961"><ele>2053.3</ele><time>2026-01-22T00:02:38.000Z</time></trkpt>
        <trkpt lat="29.5575717" lon="103.3438883"><ele>2054.85</ele><time>2026-01-22T00:02:48.000Z</time></trkpt>
        <trkpt lat="29.5575717" lon="103.3438883"><ele>2054.85</ele><time>2026-01-22T00:03:22.000Z</time></trkpt>
        <trkpt lat="29.5575367" lon="103.3437833"><ele>2051.65</ele><time>2026-01-22T00:04:06.000Z</time></trkpt>
        <trkpt lat="29.5574862" lon="103.3436896"><ele>2047.93</ele><time>2026-01-22T00:04:18.000Z</time></trkpt>
        <trkpt lat="29.557411" lon="103.3436249"><ele>2043.87</ele><time>2026-01-22T00:04:24.000Z</time></trkpt>
        <trkpt lat="29.5573607" lon="103.3436145"><ele>2040.53</ele><time>2026-01-22T00:04:42.000Z</time></trkpt>
        <trkpt lat="29.5573607" lon="103.3436145"><ele>2040.53</ele><time>2026-01-22T00:05:32.000Z</time></trkpt>
        <trkpt lat="29.5572767" lon="103.34361"><ele>2040.17</ele><time>2026-01-22T00:05:36.000Z</time></trkpt>
        <trkpt lat="29.5572767" lon="103.34361"><ele>2040.17</ele><time>2026-01-22T00:05:56.000Z</time></trkpt>
        <trkpt lat="29.557175" lon="103.3435917"><ele>2041.69</ele><time>2026-01-22T00:06:56.000Z</time></trkpt>
        <trkpt lat="29.5570931" lon="103.343634"><ele>2044.83</ele><time>2026-01-22T00:07:30.000Z</time></trkpt>
        <trkpt lat="29.5570134" lon="103.3436832"><ele>2048.48</ele><time>2026-01-22T00:07:56.000Z</time></trkpt>
        <trkpt lat="29.5569294" lon="103.3437235"><ele>2053.43</ele><time>2026-01-22T00:08:12.000Z</time></trkpt>
        <trkpt lat="29.5568374" lon="103.3437284"><ele>2057.33</ele><time>2026-01-22T00:09:00.000Z</time></trkpt>
        <trkpt lat="29.5567435" lon="103.3437198"><ele>2060.37</ele><time>2026-01-22T00:09:22.000Z</time></trkpt>
        <trkpt lat="29.5566669" lon="103.3437656"><ele>2064.26</ele><time>2026-01-22T00:09:50.000Z</time></trkpt>
        <trkpt lat="29.556615" lon="103.3439517"><ele>2067.67</ele><time>2026-01-22T00:11:10.000Z</time></trkpt>
        <trkpt lat="29.5565883" lon="103.3440583"><ele>2076.37</ele><time>2026-01-22T00:11:54.000Z</time></trkpt>
        <trkpt lat="29.5565236" lon="103.3441354"><ele>2083.31</ele><time>2026-01-22T00:12:16.000Z</time></trkpt>
        <trkpt lat="29.5564328" lon="103.3442059"><ele>2088.6</ele><time>2026-01-22T00:12:54.000Z</time></trkpt>
        <trkpt lat="29.5563375" lon="103.3442454"><ele>2094.1</ele><time>2026-01-22T00:13:20.000Z</time></trkpt>
        <trkpt lat="29.556278" lon="103.3443193"><ele>2098.66</ele><time>2026-01-22T00:13:52.000Z</time></trkpt>
        <trkpt lat="29.5562256" lon="103.3444042"><ele>2103.07</ele><time>2026-01-22T00:14:10.000Z</time></trkpt>
        <trkpt lat="29.5561559" lon="103.3444762"><ele>2106.31</ele><time>2026-01-22T00:14:32.000Z</time></trkpt>
        <trkpt lat="29.5561559" lon="103.3444762"><ele>2106.31</ele><time>2026-01-22T00:15:30.000Z</time></trkpt>
      </trkseg>
      <trkseg>
        <trkpt lat="29.55606" lon="103.34463"><ele>2109.27</ele><time>2026-01-22T00:37:28.000Z</time></trkpt>
        <trkpt lat="29.55606" lon="103.34463"><ele>2109.27</ele><time>2026-01-22T00:37:32.000Z</time></trkpt>
        <trkpt lat="29.5561667" lon="103.3445817"><ele>2113.33</ele><time>2026-01-22T00:37:39.000Z</time></trkpt>
        <trkpt lat="29.5561667" lon="103.3445817"><ele>2113.33</ele><time>2026-01-22T00:37:53.000Z</time></trkpt>
        <trkpt lat="29.5560717" lon="103.3446278"><ele>2115.43</ele><time>2026-01-22T00:37:55.000Z</time></trkpt>
        <trkpt lat="29.5560717" lon="103.3446278"><ele>2115.43</ele><time>2026-01-22T00:38:37.000Z</time></trkpt>
        <trkpt lat="29.5560117" lon="103.3447139"><ele>2116.45</ele><time>2026-01-22T00:38:59.000Z</time></trkpt>
        <trkpt lat="29.5559554" lon="103.3448091"><ele>2117.94</ele><time>2026-01-22T00:39:21.000Z</time></trkpt>
        <trkpt lat="29.5559033" lon="103.3449164"><ele>2119.9</ele><time>2026-01-22T00:39:43.000Z</time></trkpt>
        <trkpt lat="29.5558279" lon="103.3449955"><ele>2122.95</ele><time>2026-01-22T00:40:01.000Z</time></trkpt>
        <trkpt lat="29.5557356" lon="103.3450144"><ele>2126.72</ele><time>2026-01-22T00:40:23.000Z</time></trkpt>
        <trkpt lat="29.5556488" lon="103.3449754"><ele>2130.28</ele><time>2026-01-22T00:40:53.000Z</time></trkpt>
        <trkpt lat="29.5555583" lon="103.34509"><ele>2133.56</ele><time>2026-01-22T00:42:37.000Z</time></trkpt>
        <trkpt lat="29.5554567" lon="103.3451433"><ele>2141.23</ele><time>2026-01-22T00:43:15.000Z</time></trkpt>
        <trkpt lat="29.5553705" lon="103.3450853"><ele>2147.97</ele><time>2026-01-22T00:43:39.000Z</time></trkpt>
        <trkpt lat="29.5552845" lon="103.3450383"><ele>2152.89</ele><time>2026-01-22T00:43:59.000Z</time></trkpt>
        <trkpt lat="29.5552275" lon="103.3450921"><ele>2157.58</ele><time>2026-01-22T00:44:15.000Z</time></trkpt>
        <trkpt lat="29.555142" lon="103.3451421"><ele>2161.42</ele><time>2026-01-22T00:44:27.000Z</time></trkpt>
        <trkpt lat="29.5550468" lon="103.3451753"><ele>2164.89</ele><time>2026-01-22T00:44:41.000Z</time></trkpt>
        <trkpt lat="29.5549537" lon="103.3451828"><ele>2168.21</ele><time>2026-01-22T00:44:57.000Z</time></trkpt>
        <trkpt lat="29.5548797" lon="103.3452345"><ele>2170.96</ele><time>2026-01-22T00:45:15.000Z</time></trkpt>
        <trkpt lat="29.5548094" lon="103.3453037"><ele>2173.6</ele><time>2026-01-22T00:45:39.000Z</time></trkpt>
        <trkpt lat="29.5547306" lon="103.3453574"><ele>2174.89</ele><time>2026-01-22T00:46:19.000Z</time></trkpt>
        <trkpt lat="29.5546269" lon="103.3453911"><ele>2177.13</ele><time>2026-01-22T00:46:53.000Z</time></trkpt>
        <trkpt lat="29.554528" lon="103.3454136"><ele>2180.73</ele><time>2026-01-22T00:47:23.000Z</time></trkpt>
        <trkpt lat="29.5544347" lon="103.345413"><ele>2184.5</ele><time>2026-01-22T00:47:49.000Z</time></trkpt>
        <trkpt lat="29.5543478" lon="103.3454402"><ele>2188.12</ele><time>2026-01-22T00:48:19.000Z</time></trkpt>
        <trkpt lat="29.5542631" lon="103.3454844"><ele>2192.5</ele><time>2026-01-22T00:48:47.000Z</time></trkpt>
        <trkpt lat="29.5541801" lon="103.345543"><ele>2195.94</ele><time>2026-01-22T00:49:25.000Z</time></trkpt>
        <trkpt lat="29.5540924" lon="103.3455681"><ele>2200.18</ele><time>2026-01-22T00:49:45.000Z</time></trkpt>
        <trkpt lat="29.5540077" lon="103.345532"><ele>2203.72</ele><time>2026-01-22T00:50:03.000Z</time></trkpt>
        <trkpt lat="29.5539268" lon="103.3454759"><ele>2206.59</ele><time>2026-01-22T00:50:21.000Z</time></trkpt>
        <trkpt lat="29.5538533" lon="103.3454076"><ele>2209.35</ele><time>2026-01-22T00:50:39.000Z</time></trkpt>
        <trkpt lat="29.5537686" lon="103.3453768"><ele>2212.21</ele><time>2026-01-22T00:50:57.000Z</time></trkpt>
        <trkpt lat="29.5536805" lon="103.3453458"><ele>2215.69</ele><time>2026-01-22T00:51:19.000Z</time></trkpt>
        <trkpt lat="29.5535839" lon="103.345349"><ele>2220.12</ele><time>2026-01-22T00:51:35.000Z</time></trkpt>
        <trkpt lat="29.5534847" lon="103.3453593"><ele>2224.85</ele><time>2026-01-22T00:51:55.000Z</time></trkpt>
        <trkpt lat="29.5533825" lon="103.3453638"><ele>2229.99</ele><time>2026-01-22T00:52:13.000Z</time></trkpt>
        <trkpt lat="29.5532899" lon="103.3453997"><ele>2233.09</ele><time>2026-01-22T00:52:31.000Z</time></trkpt>
        <trkpt lat="29.5531998" lon="103.3454066"><ele>2235.2</ele><time>2026-01-22T00:52:43.000Z</time></trkpt>
        <trkpt lat="29.5531055" lon="103.3454072"><ele>2237.09</ele><time>2026-01-22T00:52:55.000Z</time></trkpt>
        <trkpt lat="29.5530105" lon="103.3454297"><ele>2238.9</ele><time>2026-01-22T00:53:09.000Z</time></trkpt>
        <trkpt lat="29.552909" lon="103.3454397"><ele>2240.58</ele><time>2026-01-22T00:53:21.000Z</time></trkpt>
        <trkpt lat="29.5528116" lon="103.345438"><ele>2242.7</ele><time>2026-01-22T00:53:35.000Z</time></trkpt>
        <trkpt lat="29.5527148" lon="103.3454171"><ele>2244.85</ele><time>2026-01-22T00:53:45.000Z</time></trkpt>
        <trkpt lat="29.5526194" lon="103.3454276"><ele>2246.25</ele><time>2026-01-22T00:54:23.000Z</time></trkpt>
        <trkpt lat="29.5526194" lon="103.3454276"><ele>2246.25</ele><time>2026-01-22T00:54:55.000Z</time></trkpt>
        <trkpt lat="29.5525033" lon="103.3454583"><ele>2246.4</ele><time>2026-01-22T00:55:03.000Z</time></trkpt>
        <trkpt lat="29.5525033" lon="103.3454583"><ele>2246.4</ele><time>2026-01-22T00:55:37.000Z</time></trkpt>
        <trkpt lat="29.552465" lon="103.345345"><ele>2245.88</ele><time>2026-01-22T00:56:23.000Z</time></trkpt>
        <trkpt lat="29.5524253" lon="103.3452317"><ele>2241.8</ele><time>2026-01-22T00:56:35.000Z</time></trkpt>
        <trkpt lat="29.5523608" lon="103.3451518"><ele>2238.49</ele><time>2026-01-22T00:56:49.000Z</time></trkpt>
        <trkpt lat="29.5522698" lon="103.3451049"><ele>2238.84</ele><time>2026-01-22T00:57:01.000Z</time></trkpt>
        <trkpt lat="29.5521713" lon="103.3450877"><ele>2241.06</ele><time>2026-01-22T00:57:11.000Z</time></trkpt>
        <trkpt lat="29.5520858" lon="103.3450463"><ele>2243.66</ele><time>2026-01-22T00:57:23.000Z</time></trkpt>
        <trkpt lat="29.5520279" lon="103.3449591"><ele>2245.7</ele><time>2026-01-22T00:57:37.000Z</time></trkpt>
        <trkpt lat="29.5519853" lon="103.3448535"><ele>2245.48</ele><time>2026-01-22T00:57:51.000Z</time></trkpt>
        <trkpt lat="29.5519183" lon="103.34475"><ele>2243.04</ele><time>2026-01-22T00:59:13.000Z</time></trkpt>
        <trkpt lat="29.55183" lon="103.3446617"><ele>2239.92</ele><time>2026-01-22T00:59:21.000Z</time></trkpt>
        <trkpt lat="29.551791" lon="103.344555"><ele>2236.86</ele><time>2026-01-22T00:59:35.000Z</time></trkpt>
        <trkpt lat="29.5517479" lon="103.3444605"><ele>2234.77</ele><time>2026-01-22T00:59:47.000Z</time></trkpt>
        <trkpt lat="29.5516938" lon="103.3443673"><ele>2234.01</ele><time>2026-01-22T00:59:57.000Z</time></trkpt>
        <trkpt lat="29.5516938" lon="103.3443673"><ele>2234.01</ele><time>2026-01-22T01:00:31.000Z</time></trkpt>
        <trkpt lat="29.5516113" lon="103.3443043"><ele>2234.74</ele><time>2026-01-22T01:00:33.000Z</time></trkpt>
        <trkpt lat="29.5516113" lon="103.3443043"><ele>2234.74</ele><time>2026-01-22T01:00:53.000Z</time></trkpt>
        <trkpt lat="29.551521" lon="103.3442536"><ele>2235.54</ele><time>2026-01-22T01:01:03.000Z</time></trkpt>
        <trkpt lat="29.5514333" lon="103.3442056"><ele>2235.05</ele><time>2026-01-22T01:01:29.000Z</time></trkpt>
        <trkpt lat="29.5513351" lon="103.3441758"><ele>2234.51</ele><time>2026-01-22T01:01:41.000Z</time></trkpt>
        <trkpt lat="29.5512426" lon="103.3441879"><ele>2234.38</ele><time>2026-01-22T01:01:51.000Z</time></trkpt>
        <trkpt lat="29.5511541" lon="103.3442251"><ele>2234.69</ele><time>2026-01-22T01:02:01.000Z</time></trkpt>
        <trkpt lat="29.5510673" lon="103.3441894"><ele>2234.99</ele><time>2026-01-22T01:02:13.000Z</time></trkpt>
        <trkpt lat="29.5509772" lon="103.3441705"><ele>2235.77</ele><time>2026-01-22T01:02:25.000Z</time></trkpt>
        <trkpt lat="29.5508895" lon="103.3441249"><ele>2237.07</ele><time>2026-01-22T01:02:37.000Z</time></trkpt>
        <trkpt lat="29.5507927" lon="103.3440663"><ele>2238.07</ele><time>2026-01-22T01:02:49.000Z</time></trkpt>
        <trkpt lat="29.5507352" lon="103.3439794"><ele>2238.39</ele><time>2026-01-22T01:03:09.000Z</time></trkpt>
        <trkpt lat="29.5506573" lon="103.3439152"><ele>2237.02</ele><time>2026-01-22T01:03:21.000Z</time></trkpt>
        <trkpt lat="29.5505826" lon="103.3438491"><ele>2236.45</ele><time>2026-01-22T01:03:33.000Z</time></trkpt>
        <trkpt lat="29.5505154" lon="103.343766"><ele>2235.4</ele><time>2026-01-22T01:03:43.000Z</time></trkpt>
        <trkpt lat="29.5504422" lon="103.3436794"><ele>2234.49</ele><time>2026-01-22T01:03:55.000Z</time></trkpt>
        <trkpt lat="29.5503737" lon="103.3435999"><ele>2233.94</ele><time>2026-01-22T01:04:07.000Z</time></trkpt>
        <trkpt lat="29.5503221" lon="103.3435138"><ele>2233.66</ele><time>2026-01-22T01:04:17.000Z</time></trkpt>
        <trkpt lat="29.5502789" lon="103.3434228"><ele>2233.38</ele><time>2026-01-22T01:04:27.000Z</time></trkpt>
        <trkpt lat="29.5502327" lon="103.343329"><ele>2233.26</ele><time>2026-01-22T01:04:37.000Z</time></trkpt>
        <trkpt lat="29.5501645" lon="103.3432598"><ele>2232.98</ele><time>2026-01-22T01:04:47.000Z</time></trkpt>
        <trkpt lat="29.5500877" lon="103.3431924"><ele>2232.6</ele><time>2026-01-22T01:04:59.000Z</time></trkpt>
        <trkpt lat="29.5500101" lon="103.3431221"><ele>2233.03</ele><time>2026-01-22T01:05:15.000Z</time></trkpt>
        <trkpt lat="29.5499533" lon="103.3430274"><ele>2233.4</ele><time>2026-01-22T01:05:29.000Z</time></trkpt>
        <trkpt lat="29.5498984" lon="103.3429311"><ele>2233.57</ele><time>2026-01-22T01:05:43.000Z</time></trkpt>
        <trkpt lat="29.5498546" lon="103.3428292"><ele>2233.63</ele><time>2026-01-22T01:05:57.000Z</time></trkpt>
        <trkpt lat="29.5498105" lon="103.342726"><ele>2233.27</ele><time>2026-01-22T01:06:09.000Z</time></trkpt>
        <trkpt lat="29.549753" lon="103.3426305"><ele>2232.98</ele><time>2026-01-22T01:06:21.000Z</time></trkpt>
        <trkpt lat="29.5496925" lon="103.3425446"><ele>2233.46</ele><time>2026-01-22T01:06:33.000Z</time></trkpt>
        <trkpt lat="29.5496265" lon="103.3424657"><ele>2233.61</ele><time>2026-01-22T01:06:43.000Z</time></trkpt>
        <trkpt lat="29.5495576" lon="103.3423962"><ele>2233.6</ele><time>2026-01-22T01:06:53.000Z</time></trkpt>
        <trkpt lat="29.5494958" lon="103.3423208"><ele>2233.6</ele><time>2026-01-22T01:07:03.000Z</time></trkpt>
        <trkpt lat="29.5494344" lon="103.3422447"><ele>2233.21</ele><time>2026-01-22T01:07:13.000Z</time></trkpt>
        <trkpt lat="29.5493943" lon="103.3421483"><ele>2232.99</ele><time>2026-01-22T01:07:27.000Z</time></trkpt>
        <trkpt lat="29.5493681" lon="103.3420456"><ele>2233.43</ele><time>2026-01-22T01:07:37.000Z</time></trkpt>
        <trkpt lat="29.5493681" lon="103.3420456"><ele>2233.43</ele><time>2026-01-22T01:08:07.000Z</time></trkpt>
        <trkpt lat="29.5493681" lon="103.3420456"><ele>2233.43</ele><time>2026-01-22T01:08:35.000Z</time></trkpt>
        <trkpt lat="29.5493681" lon="103.3420456"><ele>2233.43</ele><time>2026-01-22T01:09:05.000Z</time></trkpt>
        <trkpt lat="29.5493533" lon="103.3419317"><ele>2234.15</ele><time>2026-01-22T01:09:33.000Z</time></trkpt>
        <trkpt lat="29.5493533" lon="103.3419317"><ele>2234.15</ele><time>2026-01-22T01:09:53.000Z</time></trkpt>
        <trkpt lat="29.54933" lon="103.341805"><ele>2234.77</ele><time>2026-01-22T01:10:03.000Z</time></trkpt>
        <trkpt lat="29.5492982" lon="103.3417023"><ele>2235</ele><time>2026-01-22T01:10:13.000Z</time></trkpt>
        <trkpt lat="29.5492559" lon="103.3416039"><ele>2235.26</ele><time>2026-01-22T01:10:23.000Z</time></trkpt>
        <trkpt lat="29.5492567" lon="103.3415006"><ele>2236.05</ele><time>2026-01-22T01:10:33.000Z</time></trkpt>
        <trkpt lat="29.5492309" lon="103.3413989"><ele>2236.63</ele><time>2026-01-22T01:10:51.000Z</time></trkpt>
        <trkpt lat="29.549161" lon="103.3413314"><ele>2237.65</ele><time>2026-01-22T01:11:13.000Z</time></trkpt>
        <trkpt lat="29.5491054" lon="103.3412437"><ele>2239.65</ele><time>2026-01-22T01:11:55.000Z</time></trkpt>
        <trkpt lat="29.5490239" lon="103.3411742"><ele>2240.36</ele><time>2026-01-22T01:12:09.000Z</time></trkpt>
        <trkpt lat="29.548926" lon="103.3411765"><ele>2241.41</ele><time>2026-01-22T01:12:21.000Z</time></trkpt>
        <trkpt lat="29.5488264" lon="103.3411715"><ele>2242.09</ele><time>2026-01-22T01:12:51.000Z</time></trkpt>
        <trkpt lat="29.5487318" lon="103.3411895"><ele>2246.53</ele><time>2026-01-22T01:13:13.000Z</time></trkpt>
        <trkpt lat="29.54864" lon="103.3412001"><ele>2251.12</ele><time>2026-01-22T01:13:39.000Z</time></trkpt>
        <trkpt lat="29.5485508" lon="103.341237"><ele>2254.98</ele><time>2026-01-22T01:14:09.000Z</time></trkpt>
        <trkpt lat="29.5484237" lon="103.3412777"><ele>2259.72</ele><time>2026-01-22T01:14:53.000Z</time></trkpt>
        <trkpt lat="29.5483027" lon="103.3412566"><ele>2265.52</ele><time>2026-01-22T01:15:31.000Z</time></trkpt>
        <trkpt lat="29.5482035" lon="103.3412267"><ele>2271.92</ele><time>2026-01-22T01:15:49.000Z</time></trkpt>
        <trkpt lat="29.5481041" lon="103.3412114"><ele>2276.34</ele><time>2026-01-22T01:16:07.000Z</time></trkpt>
        <trkpt lat="29.5480127" lon="103.3412134"><ele>2280.11</ele><time>2026-01-22T01:16:17.000Z</time></trkpt>
        <trkpt lat="29.5479187" lon="103.3411968"><ele>2283.2</ele><time>2026-01-22T01:16:35.000Z</time></trkpt>
        <trkpt lat="29.5478257" lon="103.3411464"><ele>2286.26</ele><time>2026-01-22T01:16:51.000Z</time></trkpt>
        <trkpt lat="29.5477303" lon="103.341103"><ele>2288.38</ele><time>2026-01-22T01:17:01.000Z</time></trkpt>
        <trkpt lat="29.5476338" lon="103.341078"><ele>2289.29</ele><time>2026-01-22T01:17:19.000Z</time></trkpt>
        <trkpt lat="29.547537" lon="103.3410693"><ele>2290.5</ele><time>2026-01-22T01:17:37.000Z</time></trkpt>
        <trkpt lat="29.5473939" lon="103.3409996"><ele>2291.79</ele><time>2026-01-22T01:18:33.000Z</time></trkpt>
        <trkpt lat="29.5473353" lon="103.3409014"><ele>2293.64</ele><time>2026-01-22T01:18:43.000Z</time></trkpt>
        <trkpt lat="29.5472738" lon="103.340798"><ele>2294.44</ele><time>2026-01-22T01:18:55.000Z</time></trkpt>
        <trkpt lat="29.5472431" lon="103.3406881"><ele>2294.94</ele><time>2026-01-22T01:19:09.000Z</time></trkpt>
        <trkpt lat="29.547202" lon="103.3405878"><ele>2295.7</ele><time>2026-01-22T01:19:29.000Z</time></trkpt>
        <trkpt lat="29.5471559" lon="103.3404949"><ele>2296.73</ele><time>2026-01-22T01:19:55.000Z</time></trkpt>
        <trkpt lat="29.5471184" lon="103.340396"><ele>2298.61</ele><time>2026-01-22T01:20:23.000Z</time></trkpt>
        <trkpt lat="29.5470964" lon="103.3402834"><ele>2301.14</ele><time>2026-01-22T01:21:03.000Z</time></trkpt>
        <trkpt lat="29.5470558" lon="103.3401797"><ele>2304.09</ele><time>2026-01-22T01:21:49.000Z</time></trkpt>
        <trkpt lat="29.5470724" lon="103.3400789"><ele>2308.18</ele><time>2026-01-22T01:22:33.000Z</time></trkpt>
        <trkpt lat="29.5470333" lon="103.3399883"><ele>2313.87</ele><time>2026-01-22T01:23:43.000Z</time></trkpt>
        <trkpt lat="29.5471017" lon="103.33991"><ele>2320.25</ele><time>2026-01-22T01:23:59.000Z</time></trkpt>
        <trkpt lat="29.5471017" lon="103.33991"><ele>2320.25</ele><time>2026-01-22T01:24:39.000Z</time></trkpt>
        <trkpt lat="29.5471094" lon="103.3398105"><ele>2325.13</ele><time>2026-01-22T01:24:41.000Z</time></trkpt>
        <trkpt lat="29.5471094" lon="103.3398105"><ele>2325.13</ele><time>2026-01-22T01:24:57.000Z</time></trkpt>
        <trkpt lat="29.5470664" lon="103.3397176"><ele>2329.46</ele><time>2026-01-22T01:25:23.000Z</time></trkpt>
        <trkpt lat="29.5470664" lon="103.3397176"><ele>2329.46</ele><time>2026-01-22T01:25:55.000Z</time></trkpt>
        <trkpt lat="29.5469617" lon="103.339665"><ele>2333.82</ele><time>2026-01-22T01:26:05.000Z</time></trkpt>
        <trkpt lat="29.5469617" lon="103.339665"><ele>2333.82</ele><time>2026-01-22T01:26:55.000Z</time></trkpt>
        <trkpt lat="29.5468717" lon="103.339665"><ele>2338.03</ele><time>2026-01-22T01:27:17.000Z</time></trkpt>
        <trkpt lat="29.546886" lon="103.339579"><ele>2339.56</ele><time>2026-01-22T01:27:35.000Z</time></trkpt>
        <trkpt lat="29.5468623" lon="103.3394842"><ele>2342.42</ele><time>2026-01-22T01:28:05.000Z</time></trkpt>
        <trkpt lat="29.5468522" lon="103.3393774"><ele>2347.79</ele><time>2026-01-22T01:28:31.000Z</time></trkpt>
        <trkpt lat="29.5467918" lon="103.3393089"><ele>2351.75</ele><time>2026-01-22T01:28:55.000Z</time></trkpt>
        <trkpt lat="29.5467144" lon="103.3391977"><ele>2357.02</ele><time>2026-01-22T01:29:51.000Z</time></trkpt>
        <trkpt lat="29.5466418" lon="103.3391098"><ele>2364.41</ele><time>2026-01-22T01:30:13.000Z</time></trkpt>
        <trkpt lat="29.5465769" lon="103.3390272"><ele>2368.62</ele><time>2026-01-22T01:30:45.000Z</time></trkpt>
        <trkpt lat="29.5465118" lon="103.3389413"><ele>2371.28</ele><time>2026-01-22T01:31:09.000Z</time></trkpt>
        <trkpt lat="29.5465118" lon="103.3389413"><ele>2371.28</ele><time>2026-01-22T01:31:47.000Z</time></trkpt>
        <trkpt lat="29.5464455" lon="103.3388662"><ele>2373.05</ele><time>2026-01-22T01:31:49.000Z</time></trkpt>
        <trkpt lat="29.5464455" lon="103.3388662"><ele>2373.05</ele><time>2026-01-22T01:32:07.000Z</time></trkpt>
        <trkpt lat="29.5463812" lon="103.3387875"><ele>2376.3</ele><time>2026-01-22T01:32:51.000Z</time></trkpt>
        <trkpt lat="29.5463066" lon="103.3386668"><ele>2381.76</ele><time>2026-01-22T01:33:43.000Z</time></trkpt>
        <trkpt lat="29.5462581" lon="103.3385557"><ele>2388.23</ele><time>2026-01-22T01:34:01.000Z</time></trkpt>
        <trkpt lat="29.5462196" lon="103.338454"><ele>2392.48</ele><time>2026-01-22T01:34:29.000Z</time></trkpt>
        <trkpt lat="29.5461633" lon="103.3383767"><ele>2397.05</ele><time>2026-01-22T01:35:35.000Z</time></trkpt>
        <trkpt lat="29.5461633" lon="103.3383767"><ele>2397.05</ele><time>2026-01-22T01:36:25.000Z</time></trkpt>
        <trkpt lat="29.5461717" lon="103.3382717"><ele>2398.36</ele><time>2026-01-22T01:36:27.000Z</time></trkpt>
        <trkpt lat="29.5461717" lon="103.3382717"><ele>2398.36</ele><time>2026-01-22T01:36:35.000Z</time></trkpt>
        <trkpt lat="29.54621" lon="103.33812"><ele>2399.71</ele><time>2026-01-22T01:38:01.000Z</time></trkpt>
        <trkpt lat="29.5462233" lon="103.3380067"><ele>2403.92</ele><time>2026-01-22T01:38:17.000Z</time></trkpt>
        <trkpt lat="29.5462733" lon="103.3379117"><ele>2406.49</ele><time>2026-01-22T01:38:29.000Z</time></trkpt>
        <trkpt lat="29.5463375" lon="103.3378289"><ele>2407.87</ele><time>2026-01-22T01:39:05.000Z</time></trkpt>
        <trkpt lat="29.5463989" lon="103.3377363"><ele>2409.22</ele><time>2026-01-22T01:39:19.000Z</time></trkpt>
        <trkpt lat="29.5464395" lon="103.3376308"><ele>2410.46</ele><time>2026-01-22T01:39:31.000Z</time></trkpt>
        <trkpt lat="29.5464793" lon="103.3375292"><ele>2412.5</ele><time>2026-01-22T01:39:43.000Z</time></trkpt>
        <trkpt lat="29.5465396" lon="103.3374348"><ele>2413.06</ele><time>2026-01-22T01:39:57.000Z</time></trkpt>
        <trkpt lat="29.5465828" lon="103.3373381"><ele>2412.86</ele><time>2026-01-22T01:40:11.000Z</time></trkpt>
        <trkpt lat="29.5465828" lon="103.3373381"><ele>2412.86</ele><time>2026-01-22T01:41:01.000Z</time></trkpt>
        <trkpt lat="29.5466367" lon="103.3372417"><ele>2413.91</ele><time>2026-01-22T01:41:03.000Z</time></trkpt>
        <trkpt lat="29.5466367" lon="103.3372417"><ele>2413.91</ele><time>2026-01-22T01:41:55.000Z</time></trkpt>
        <trkpt lat="29.5466183" lon="103.3371217"><ele>2417.09</ele><time>2026-01-22T01:42:07.000Z</time></trkpt>
        <trkpt lat="29.5465619" lon="103.3370186"><ele>2419.85</ele><time>2026-01-22T01:42:23.000Z</time></trkpt>
        <trkpt lat="29.5465116" lon="103.3369262"><ele>2422.06</ele><time>2026-01-22T01:42:35.000Z</time></trkpt>
        <trkpt lat="29.5464819" lon="103.3368197"><ele>2423.37</ele><time>2026-01-22T01:42:45.000Z</time></trkpt>
        <trkpt lat="29.5464586" lon="103.3367101"><ele>2424.29</ele><time>2026-01-22T01:43:01.000Z</time></trkpt>
        <trkpt lat="29.5464444" lon="103.3366021"><ele>2423.39</ele><time>2026-01-22T01:43:19.000Z</time></trkpt>
        <trkpt lat="29.5464492" lon="103.3364912"><ele>2420.51</ele><time>2026-01-22T01:43:37.000Z</time></trkpt>
        <trkpt lat="29.5464974" lon="103.3364006"><ele>2417.11</ele><time>2026-01-22T01:43:55.000Z</time></trkpt>
        <trkpt lat="29.5465087" lon="103.3362913"><ele>2414.52</ele><time>2026-01-22T01:44:15.000Z</time></trkpt>
        <trkpt lat="29.5465295" lon="103.3361842"><ele>2412.23</ele><time>2026-01-22T01:44:25.000Z</time></trkpt>
        <trkpt lat="29.5465643" lon="103.3360846"><ele>2409.94</ele><time>2026-01-22T01:44:37.000Z</time></trkpt>
        <trkpt lat="29.5466012" lon="103.3359854"><ele>2407.04</ele><time>2026-01-22T01:44:49.000Z</time></trkpt>
        <trkpt lat="29.5466305" lon="103.3358736"><ele>2403.15</ele><time>2026-01-22T01:44:59.000Z</time></trkpt>
        <trkpt lat="29.5466564" lon="103.3358107"><ele>2399.6</ele><time>2026-01-22T01:45:11.000Z</time></trkpt>
        <trkpt lat="29.5466564" lon="103.3358107"><ele>2399.6</ele><time>2026-01-22T01:45:25.000Z</time></trkpt>
        <trkpt lat="29.5466686" lon="103.3357099"><ele>2397.49</ele><time>2026-01-22T01:45:27.000Z</time></trkpt>
        <trkpt lat="29.5466686" lon="103.3357099"><ele>2397.49</ele><time>2026-01-22T01:45:39.000Z</time></trkpt>
        <trkpt lat="29.5467048" lon="103.335598"><ele>2396.64</ele><time>2026-01-22T01:45:49.000Z</time></trkpt>
        <trkpt lat="29.5467382" lon="103.335489"><ele>2395.33</ele><time>2026-01-22T01:45:59.000Z</time></trkpt>
        <trkpt lat="29.5467722" lon="103.335386"><ele>2394.76</ele><time>2026-01-22T01:46:09.000Z</time></trkpt>
        <trkpt lat="29.5468011" lon="103.3352817"><ele>2394.91</ele><time>2026-01-22T01:46:25.000Z</time></trkpt>
        <trkpt lat="29.5468179" lon="103.3351744"><ele>2395.46</ele><time>2026-01-22T01:46:39.000Z</time></trkpt>
        <trkpt lat="29.5467992" lon="103.3350659"><ele>2396.12</ele><time>2026-01-22T01:46:53.000Z</time></trkpt>
        <trkpt lat="29.5467294" lon="103.3349823"><ele>2396.41</ele><time>2026-01-22T01:47:09.000Z</time></trkpt>
        <trkpt lat="29.5466408" lon="103.3349066"><ele>2396.28</ele><time>2026-01-22T01:47:19.000Z</time></trkpt>
        <trkpt lat="29.5465507" lon="103.3348401"><ele>2395.64</ele><time>2026-01-22T01:47:31.000Z</time></trkpt>
        <trkpt lat="29.5464569" lon="103.3348008"><ele>2394.59</ele><time>2026-01-22T01:47:43.000Z</time></trkpt>
        <trkpt lat="29.5463635" lon="103.3347742"><ele>2393.39</ele><time>2026-01-22T01:47:59.000Z</time></trkpt>
        <trkpt lat="29.5462664" lon="103.3347438"><ele>2393.65</ele><time>2026-01-22T01:48:25.000Z</time></trkpt>
        <trkpt lat="29.5462664" lon="103.3347438"><ele>2393.65</ele><time>2026-01-22T01:48:51.000Z</time></trkpt>
        <trkpt lat="29.5461633" lon="103.3347833"><ele>2396.38</ele><time>2026-01-22T01:50:11.000Z</time></trkpt>
        <trkpt lat="29.5461633" lon="103.3347833"><ele>2396.38</ele><time>2026-01-22T01:50:17.000Z</time></trkpt>
        <trkpt lat="29.5461633" lon="103.3347833"><ele>2396.38</ele><time>2026-01-22T01:50:29.000Z</time></trkpt>
        <trkpt lat="29.5460733" lon="103.3347717"><ele>2401.21</ele><time>2026-01-22T01:50:49.000Z</time></trkpt>
        <trkpt lat="29.5460733" lon="103.3347717"><ele>2401.21</ele><time>2026-01-22T01:51:11.000Z</time></trkpt>
        <trkpt lat="29.5459833" lon="103.3347417"><ele>2404.73</ele><time>2026-01-22T01:51:27.000Z</time></trkpt>
        <trkpt lat="29.5458998" lon="103.3346878"><ele>2406.01</ele><time>2026-01-22T01:51:45.000Z</time></trkpt>
        <trkpt lat="29.5458471" lon="103.3345901"><ele>2403.21</ele><time>2026-01-22T01:52:09.000Z</time></trkpt>
        <trkpt lat="29.545779" lon="103.334505"><ele>2398.34</ele><time>2026-01-22T01:52:19.000Z</time></trkpt>
        <trkpt lat="29.5456961" lon="103.3344602"><ele>2393.94</ele><time>2026-01-22T01:52:31.000Z</time></trkpt>
        <trkpt lat="29.5456125" lon="103.3344024"><ele>2390.95</ele><time>2026-01-22T01:52:47.000Z</time></trkpt>
        <trkpt lat="29.5455232" lon="103.3343683"><ele>2389.64</ele><time>2026-01-22T01:53:01.000Z</time></trkpt>
        <trkpt lat="29.5454298" lon="103.3343302"><ele>2389.24</ele><time>2026-01-22T01:53:31.000Z</time></trkpt>
        <trkpt lat="29.5453491" lon="103.3342693"><ele>2390.9</ele><time>2026-01-22T01:53:45.000Z</time></trkpt>
        <trkpt lat="29.5452849" lon="103.3341881"><ele>2393.18</ele><time>2026-01-22T01:53:59.000Z</time></trkpt>
        <trkpt lat="29.5452187" lon="103.3341132"><ele>2395.42</ele><time>2026-01-22T01:54:13.000Z</time></trkpt>
        <trkpt lat="29.5451394" lon="103.3340659"><ele>2397.39</ele><time>2026-01-22T01:54:27.000Z</time></trkpt>
        <trkpt lat="29.5450499" lon="103.334053"><ele>2398.94</ele><time>2026-01-22T01:54:41.000Z</time></trkpt>
        <trkpt lat="29.544957" lon="103.3340377"><ele>2399.44</ele><time>2026-01-22T01:54:55.000Z</time></trkpt>
        <trkpt lat="29.5448638" lon="103.3340715"><ele>2399.04</ele><time>2026-01-22T01:55:11.000Z</time></trkpt>
        <trkpt lat="29.5448035" lon="103.3341534"><ele>2397.52</ele><time>2026-01-22T01:55:21.000Z</time></trkpt>
        <trkpt lat="29.5447281" lon="103.3342232"><ele>2395.57</ele><time>2026-01-22T01:55:39.000Z</time></trkpt>
        <trkpt lat="29.5446318" lon="103.3342567"><ele>2393.78</ele><time>2026-01-22T01:55:55.000Z</time></trkpt>
        <trkpt lat="29.5445391" lon="103.3342388"><ele>2392.97</ele><time>2026-01-22T01:56:03.000Z</time></trkpt>
        <trkpt lat="29.5444451" lon="103.3341921"><ele>2393.07</ele><time>2026-01-22T01:56:13.000Z</time></trkpt>
        <trkpt lat="29.5443459" lon="103.334167"><ele>2392.91</ele><time>2026-01-22T01:56:27.000Z</time></trkpt>
        <trkpt lat="29.544249" lon="103.3341545"><ele>2391.66</ele><time>2026-01-22T01:56:41.000Z</time></trkpt>
        <trkpt lat="29.544157" lon="103.3341409"><ele>2391.2</ele><time>2026-01-22T01:56:55.000Z</time></trkpt>
        <trkpt lat="29.544077" lon="103.3340889"><ele>2391.59</ele><time>2026-01-22T01:57:09.000Z</time></trkpt>
        <trkpt lat="29.5439886" lon="103.3340391"><ele>2392.97</ele><time>2026-01-22T01:58:01.000Z</time></trkpt>
        <trkpt lat="29.5439227" lon="103.3339596"><ele>2393.76</ele><time>2026-01-22T01:58:13.000Z</time></trkpt>
        <trkpt lat="29.54384" lon="103.3339215"><ele>2392.18</ele><time>2026-01-22T01:58:29.000Z</time></trkpt>
        <trkpt lat="29.5437412" lon="103.333937"><ele>2392.54</ele><time>2026-01-22T01:58:43.000Z</time></trkpt>
        <trkpt lat="29.5436519" lon="103.3338945"><ele>2392.82</ele><time>2026-01-22T01:58:55.000Z</time></trkpt>
        <trkpt lat="29.5435895" lon="103.3338161"><ele>2392.12</ele><time>2026-01-22T01:59:11.000Z</time></trkpt>
        <trkpt lat="29.5435057" lon="103.3337583"><ele>2393.58</ele><time>2026-01-22T01:59:31.000Z</time></trkpt>
        <trkpt lat="29.5434477" lon="103.3336683"><ele>2395.69</ele><time>2026-01-22T02:00:19.000Z</time></trkpt>
        <trkpt lat="29.5434133" lon="103.3335554"><ele>2394.66</ele><time>2026-01-22T02:00:33.000Z</time></trkpt>
        <trkpt lat="29.5433914" lon="103.3334373"><ele>2391.88</ele><time>2026-01-22T02:00:47.000Z</time></trkpt>
        <trkpt lat="29.5433645" lon="103.3333322"><ele>2389.22</ele><time>2026-01-22T02:01:01.000Z</time></trkpt>
        <trkpt lat="29.5433404" lon="103.333227"><ele>2387.02</ele><time>2026-01-22T02:01:13.000Z</time></trkpt>
        <trkpt lat="29.5432954" lon="103.3331331"><ele>2385.38</ele><time>2026-01-22T02:01:41.000Z</time></trkpt>
        <trkpt lat="29.5432397" lon="103.3330459"><ele>2384.66</ele><time>2026-01-22T02:02:03.000Z</time></trkpt>
        <trkpt lat="29.5431585" lon="103.3329856"><ele>2385.49</ele><time>2026-01-22T02:02:13.000Z</time></trkpt>
        <trkpt lat="29.5430665" lon="103.332957"><ele>2387.39</ele><time>2026-01-22T02:02:21.000Z</time></trkpt>
        <trkpt lat="29.54297" lon="103.3329218"><ele>2388.94</ele><time>2026-01-22T02:02:43.000Z</time></trkpt>
        <trkpt lat="29.5428861" lon="103.332864"><ele>2389.87</ele><time>2026-01-22T02:02:59.000Z</time></trkpt>
        <trkpt lat="29.5428241" lon="103.3327856"><ele>2390.06</ele><time>2026-01-22T02:03:11.000Z</time></trkpt>
        <trkpt lat="29.5427725" lon="103.3326966"><ele>2390.72</ele><time>2026-01-22T02:03:23.000Z</time></trkpt>
        <trkpt lat="29.5427725" lon="103.3326966"><ele>2390.72</ele><time>2026-01-22T02:03:41.000Z</time></trkpt>
        <trkpt lat="29.5427725" lon="103.3326966"><ele>2390.72</ele><time>2026-01-22T02:03:43.000Z</time></trkpt>
        <trkpt lat="29.5427725" lon="103.3326966"><ele>2390.72</ele><time>2026-01-22T02:03:59.000Z</time></trkpt>
        <trkpt lat="29.5426834" lon="103.332664"><ele>2391.36</ele><time>2026-01-22T02:04:01.000Z</time></trkpt>
        <trkpt lat="29.5426834" lon="103.332664"><ele>2391.36</ele><time>2026-01-22T02:04:15.000Z</time></trkpt>
        <trkpt lat="29.542602" lon="103.3326121"><ele>2392.41</ele><time>2026-01-22T02:04:25.000Z</time></trkpt>
        <trkpt lat="29.5425735" lon="103.332517"><ele>2392.36</ele><time>2026-01-22T02:04:37.000Z</time></trkpt>
        <trkpt lat="29.5425497" lon="103.3324096"><ele>2391.65</ele><time>2026-01-22T02:04:55.000Z</time></trkpt>
        <trkpt lat="29.5425036" lon="103.3323176"><ele>2390.81</ele><time>2026-01-22T02:05:05.000Z</time></trkpt>
        <trkpt lat="29.5424476" lon="103.332223"><ele>2390.38</ele><time>2026-01-22T02:05:17.000Z</time></trkpt>
        <trkpt lat="29.5423859" lon="103.3321389"><ele>2391.03</ele><time>2026-01-22T02:05:25.000Z</time></trkpt>
        <trkpt lat="29.5423565" lon="103.332149"><ele>2392.48</ele><time>2026-01-22T02:05:37.000Z</time></trkpt>
        <trkpt lat="29.5423565" lon="103.332149"><ele>2392.48</ele><time>2026-01-22T02:05:41.000Z</time></trkpt>
        <trkpt lat="29.5423046" lon="103.3321004"><ele>2392.57</ele><time>2026-01-22T02:05:47.000Z</time></trkpt>
        <trkpt lat="29.5423046" lon="103.3321004"><ele>2392.57</ele><time>2026-01-22T02:06:21.000Z</time></trkpt>
        <trkpt lat="29.5422544" lon="103.3320187"><ele>2391.98</ele><time>2026-01-22T02:06:33.000Z</time></trkpt>
        <trkpt lat="29.5421676" lon="103.3320067"><ele>2391.04</ele><time>2026-01-22T02:06:45.000Z</time></trkpt>
        <trkpt lat="29.5420727" lon="103.3320246"><ele>2390.12</ele><time>2026-01-22T02:06:59.000Z</time></trkpt>
        <trkpt lat="29.5419757" lon="103.3320757"><ele>2388.69</ele><time>2026-01-22T02:07:09.000Z</time></trkpt>
        <trkpt lat="29.5418832" lon="103.3321121"><ele>2388.01</ele><time>2026-01-22T02:07:27.000Z</time></trkpt>
        <trkpt lat="29.5417983" lon="103.332082"><ele>2386.89</ele><time>2026-01-22T02:07:51.000Z</time></trkpt>
        <trkpt lat="29.5417077" lon="103.3321055"><ele>2385.13</ele><time>2026-01-22T02:08:07.000Z</time></trkpt>
        <trkpt lat="29.5417411" lon="103.3321717"><ele>2383.52</ele><time>2026-01-22T02:08:23.000Z</time></trkpt>
        <trkpt lat="29.5417411" lon="103.3321717"><ele>2383.52</ele><time>2026-01-22T02:08:59.000Z</time></trkpt>
        <trkpt lat="29.5418683" lon="103.332145"><ele>2381.84</ele><time>2026-01-22T02:09:03.000Z</time></trkpt>
        <trkpt lat="29.5418683" lon="103.332145"><ele>2381.84</ele><time>2026-01-22T02:10:09.000Z</time></trkpt>
        <trkpt lat="29.5417783" lon="103.332125"><ele>2382.42</ele><time>2026-01-22T02:10:25.000Z</time></trkpt>
        <trkpt lat="29.5416912" lon="103.3320979"><ele>2381.55</ele><time>2026-01-22T02:10:51.000Z</time></trkpt>
        <trkpt lat="29.5417151" lon="103.3320105"><ele>2380.2</ele><time>2026-01-22T02:11:07.000Z</time></trkpt>
        <trkpt lat="29.5417763" lon="103.3319028"><ele>2379.6</ele><time>2026-01-22T02:11:37.000Z</time></trkpt>
        <trkpt lat="29.5418364" lon="103.331786"><ele>2379.55</ele><time>2026-01-22T02:11:49.000Z</time></trkpt>
        <trkpt lat="29.5418773" lon="103.3316774"><ele>2379.32</ele><time>2026-01-22T02:12:03.000Z</time></trkpt>
        <trkpt lat="29.5418108" lon="103.3316677"><ele>2380.38</ele><time>2026-01-22T02:12:15.000Z</time></trkpt>
        <trkpt lat="29.5417046" lon="103.3316911"><ele>2381.6</ele><time>2026-01-22T02:12:23.000Z</time></trkpt>
        <trkpt lat="29.5415983" lon="103.3316965"><ele>2382.93</ele><time>2026-01-22T02:12:31.000Z</time></trkpt>
        <trkpt lat="29.5414896" lon="103.3317096"><ele>2384.42</ele><time>2026-01-22T02:12:43.000Z</time></trkpt>
        <trkpt lat="29.5413816" lon="103.3317116"><ele>2382.99</ele><time>2026-01-22T02:12:55.000Z</time></trkpt>
        <trkpt lat="29.5412803" lon="103.3317109"><ele>2382.57</ele><time>2026-01-22T02:13:05.000Z</time></trkpt>
        <trkpt lat="29.5411874" lon="103.3316853"><ele>2382.97</ele><time>2026-01-22T02:13:27.000Z</time></trkpt>
        <trkpt lat="29.5410939" lon="103.3316334"><ele>2385</ele><time>2026-01-22T02:13:39.000Z</time></trkpt>
        <trkpt lat="29.5410196" lon="103.3315631"><ele>2383.45</ele><time>2026-01-22T02:13:47.000Z</time></trkpt>
        <trkpt lat="29.5409273" lon="103.331511"><ele>2383.26</ele><time>2026-01-22T02:13:57.000Z</time></trkpt>
        <trkpt lat="29.5408472" lon="103.3314238"><ele>2382.59</ele><time>2026-01-22T02:14:09.000Z</time></trkpt>
        <trkpt lat="29.5407694" lon="103.331349"><ele>2381.6</ele><time>2026-01-22T02:14:17.000Z</time></trkpt>
        <trkpt lat="29.5406895" lon="103.3312883"><ele>2382.25</ele><time>2026-01-22T02:14:25.000Z</time></trkpt>
        <trkpt lat="29.5405997" lon="103.331243"><ele>2382.92</ele><time>2026-01-22T02:14:35.000Z</time></trkpt>
        <trkpt lat="29.5404999" lon="103.3312167"><ele>2384.29</ele><time>2026-01-22T02:14:45.000Z</time></trkpt>
        <trkpt lat="29.5404032" lon="103.3311911"><ele>2387.26</ele><time>2026-01-22T02:14:55.000Z</time></trkpt>
        <trkpt lat="29.5403023" lon="103.331178"><ele>2388.44</ele><time>2026-01-22T02:15:05.000Z</time></trkpt>
        <trkpt lat="29.5402075" lon="103.3311709"><ele>2388.46</ele><time>2026-01-22T02:15:13.000Z</time></trkpt>
        <trkpt lat="29.5401053" lon="103.3311712"><ele>2388.7</ele><time>2026-01-22T02:15:23.000Z</time></trkpt>
        <trkpt lat="29.5400053" lon="103.3311594"><ele>2388.7</ele><time>2026-01-22T02:15:33.000Z</time></trkpt>
        <trkpt lat="29.5400053" lon="103.3311594"><ele>2388.7</ele><time>2026-01-22T02:15:37.000Z</time></trkpt>
      </trkseg>
      <trkseg>
        <trkpt lat="29.539915" lon="103.331425"><ele>2387.1</ele><time>2026-01-22T15:46:15.000Z</time></trkpt>
        <trkpt lat="29.539915" lon="103.331425"><ele>2387.1</ele><time>2026-01-22T15:46:32.000Z</time></trkpt>
        <trkpt lat="29.5398714" lon="103.3315258"><ele>2387.1</ele><time>2026-01-22T15:46:46.000Z</time></trkpt>
        <trkpt lat="29.5398318" lon="103.3316387"><ele>2386.71</ele><time>2026-01-22T15:46:56.000Z</time></trkpt>
        <trkpt lat="29.5397906" lon="103.3317478"><ele>2386.62</ele><time>2026-01-22T15:47:06.000Z</time></trkpt>
        <trkpt lat="29.5397359" lon="103.3318452"><ele>2386.91</ele><time>2026-01-22T15:47:14.000Z</time></trkpt>
        <trkpt lat="29.5397196" lon="103.3319471"><ele>2387.51</ele><time>2026-01-22T15:47:26.000Z</time></trkpt>
        <trkpt lat="29.5397362" lon="103.33207"><ele>2386.99</ele><time>2026-01-22T15:47:38.000Z</time></trkpt>
        <trkpt lat="29.539767" lon="103.3321793"><ele>2386</ele><time>2026-01-22T15:47:56.000Z</time></trkpt>
        <trkpt lat="29.539748" lon="103.3322988"><ele>2386.13</ele><time>2026-01-22T15:48:18.000Z</time></trkpt>
        <trkpt lat="29.5397035" lon="103.3324009"><ele>2386.85</ele><time>2026-01-22T15:48:28.000Z</time></trkpt>
        <trkpt lat="29.5396263" lon="103.3324849"><ele>2388.42</ele><time>2026-01-22T15:48:46.000Z</time></trkpt>
        <trkpt lat="29.5395407" lon="103.3325505"><ele>2391.64</ele><time>2026-01-22T15:49:00.000Z</time></trkpt>
        <trkpt lat="29.5394537" lon="103.3326082"><ele>2394.59</ele><time>2026-01-22T15:49:18.000Z</time></trkpt>
        <trkpt lat="29.5393732" lon="103.3326772"><ele>2397.05</ele><time>2026-01-22T15:49:30.000Z</time></trkpt>
        <trkpt lat="29.5392976" lon="103.3327481"><ele>2399.56</ele><time>2026-01-22T15:49:42.000Z</time></trkpt>
        <trkpt lat="29.5392239" lon="103.3328146"><ele>2401.39</ele><time>2026-01-22T15:49:56.000Z</time></trkpt>
        <trkpt lat="29.5391434" lon="103.3328633"><ele>2403.24</ele><time>2026-01-22T15:50:06.000Z</time></trkpt>
        <trkpt lat="29.5390639" lon="103.3329144"><ele>2404.56</ele><time>2026-01-22T15:50:16.000Z</time></trkpt>
        <trkpt lat="29.5389901" lon="103.33298"><ele>2405.13</ele><time>2026-01-22T15:50:28.000Z</time></trkpt>
        <trkpt lat="29.5389097" lon="103.3330463"><ele>2406.37</ele><time>2026-01-22T15:50:38.000Z</time></trkpt>
        <trkpt lat="29.5388241" lon="103.3331011"><ele>2407.76</ele><time>2026-01-22T15:50:46.000Z</time></trkpt>
        <trkpt lat="29.5387368" lon="103.33314"><ele>2409.15</ele><time>2026-01-22T15:50:54.000Z</time></trkpt>
        <trkpt lat="29.5386481" lon="103.3331737"><ele>2409.95</ele><time>2026-01-22T15:51:04.000Z</time></trkpt>
        <trkpt lat="29.5385542" lon="103.3331902"><ele>2409.71</ele><time>2026-01-22T15:51:14.000Z</time></trkpt>
        <trkpt lat="29.5384611" lon="103.3332025"><ele>2409.84</ele><time>2026-01-22T15:51:24.000Z</time></trkpt>
        <trkpt lat="29.5383662" lon="103.3332173"><ele>2410.42</ele><time>2026-01-22T15:51:36.000Z</time></trkpt>
        <trkpt lat="29.5382745" lon="103.3332577"><ele>2412.13</ele><time>2026-01-22T15:51:48.000Z</time></trkpt>
        <trkpt lat="29.5381906" lon="103.3333104"><ele>2413.11</ele><time>2026-01-22T15:51:56.000Z</time></trkpt>
        <trkpt lat="29.5381156" lon="103.3333789"><ele>2413.84</ele><time>2026-01-22T15:52:04.000Z</time></trkpt>
        <trkpt lat="29.5380246" lon="103.3334343"><ele>2414.47</ele><time>2026-01-22T15:52:14.000Z</time></trkpt>
        <trkpt lat="29.5379308" lon="103.3334834"><ele>2414.22</ele><time>2026-01-22T15:52:24.000Z</time></trkpt>
        <trkpt lat="29.5378403" lon="103.3335426"><ele>2414.3</ele><time>2026-01-22T15:52:34.000Z</time></trkpt>
        <trkpt lat="29.5377538" lon="103.333597"><ele>2414.86</ele><time>2026-01-22T15:52:44.000Z</time></trkpt>
        <trkpt lat="29.5376814" lon="103.3336667"><ele>2415.69</ele><time>2026-01-22T15:52:56.000Z</time></trkpt>
        <trkpt lat="29.5376176" lon="103.3337509"><ele>2416.21</ele><time>2026-01-22T15:53:12.000Z</time></trkpt>
        <trkpt lat="29.5375324" lon="103.3337883"><ele>2418.4</ele><time>2026-01-22T15:53:26.000Z</time></trkpt>
        <trkpt lat="29.5374384" lon="103.3337872"><ele>2420.55</ele><time>2026-01-22T15:53:42.000Z</time></trkpt>
        <trkpt lat="29.5373456" lon="103.333779"><ele>2422.29</ele><time>2026-01-22T15:53:52.000Z</time></trkpt>
        <trkpt lat="29.5372854" lon="103.333844"><ele>2424.02</ele><time>2026-01-22T15:54:06.000Z</time></trkpt>
        <trkpt lat="29.5372488" lon="103.333939"><ele>2425.43</ele><time>2026-01-22T15:54:24.000Z</time></trkpt>
        <trkpt lat="29.5372092" lon="103.3340458"><ele>2426.53</ele><time>2026-01-22T15:54:42.000Z</time></trkpt>
        <trkpt lat="29.5371625" lon="103.3341413"><ele>2428.67</ele><time>2026-01-22T15:54:54.000Z</time></trkpt>
        <trkpt lat="29.5370849" lon="103.3342064"><ele>2431.18</ele><time>2026-01-22T15:55:12.000Z</time></trkpt>
        <trkpt lat="29.5369907" lon="103.3342548"><ele>2434.33</ele><time>2026-01-22T15:55:34.000Z</time></trkpt>
        <trkpt lat="29.5368984" lon="103.3342947"><ele>2437.5</ele><time>2026-01-22T15:55:50.000Z</time></trkpt>
        <trkpt lat="29.5368035" lon="103.3343306"><ele>2439.39</ele><time>2026-01-22T15:56:12.000Z</time></trkpt>
        <trkpt lat="29.5367086" lon="103.3343563"><ele>2442.32</ele><time>2026-01-22T15:56:26.000Z</time></trkpt>
        <trkpt lat="29.5366154" lon="103.3343705"><ele>2443.95</ele><time>2026-01-22T15:56:40.000Z</time></trkpt>
        <trkpt lat="29.5365182" lon="103.3343703"><ele>2444.01</ele><time>2026-01-22T15:56:56.000Z</time></trkpt>
        <trkpt lat="29.5364159" lon="103.3343647"><ele>2443.53</ele><time>2026-01-22T15:57:12.000Z</time></trkpt>
        <trkpt lat="29.5363194" lon="103.3343686"><ele>2443.35</ele><time>2026-01-22T15:57:38.000Z</time></trkpt>
        <trkpt lat="29.5362205" lon="103.3343519"><ele>2445.09</ele><time>2026-01-22T15:58:00.000Z</time></trkpt>
        <trkpt lat="29.5361331" lon="103.3343053"><ele>2447.68</ele><time>2026-01-22T15:58:12.000Z</time></trkpt>
        <trkpt lat="29.5360475" lon="103.3342463"><ele>2449.41</ele><time>2026-01-22T15:58:32.000Z</time></trkpt>
        <trkpt lat="29.5359632" lon="103.3341876"><ele>2451.34</ele><time>2026-01-22T15:58:54.000Z</time></trkpt>
        <trkpt lat="29.5358803" lon="103.3341271"><ele>2453.52</ele><time>2026-01-22T15:59:12.000Z</time></trkpt>
        <trkpt lat="29.5357888" lon="103.3340844"><ele>2455.53</ele><time>2026-01-22T15:59:26.000Z</time></trkpt>
        <trkpt lat="29.5357027" lon="103.3340364"><ele>2457.84</ele><time>2026-01-22T15:59:36.000Z</time></trkpt>
        <trkpt lat="29.5356226" lon="103.3339782"><ele>2459.46</ele><time>2026-01-22T15:59:52.000Z</time></trkpt>
        <trkpt lat="29.535556" lon="103.333905"><ele>2460.08</ele><time>2026-01-22T16:00:14.000Z</time></trkpt>
        <trkpt lat="29.5355064" lon="103.3338093"><ele>2462.37</ele><time>2026-01-22T16:00:40.000Z</time></trkpt>
        <trkpt lat="29.535442" lon="103.3337278"><ele>2466.51</ele><time>2026-01-22T16:00:56.000Z</time></trkpt>
        <trkpt lat="29.5353833" lon="103.3336333"><ele>2468.66</ele><time>2026-01-22T16:01:08.000Z</time></trkpt>
        <trkpt lat="29.5353568" lon="103.3335304"><ele>2470.27</ele><time>2026-01-22T16:01:18.000Z</time></trkpt>
        <trkpt lat="29.5353004" lon="103.3334528"><ele>2471.96</ele><time>2026-01-22T16:01:36.000Z</time></trkpt>
        <trkpt lat="29.5352563" lon="103.3333591"><ele>2472.92</ele><time>2026-01-22T16:01:52.000Z</time></trkpt>
        <trkpt lat="29.535216" lon="103.3332598"><ele>2474.76</ele><time>2026-01-22T16:02:10.000Z</time></trkpt>
        <trkpt lat="29.5351792" lon="103.3331601"><ele>2476.07</ele><time>2026-01-22T16:02:36.000Z</time></trkpt>
        <trkpt lat="29.5351472" lon="103.3330546"><ele>2477.93</ele><time>2026-01-22T16:03:04.000Z</time></trkpt>
        <trkpt lat="29.5351039" lon="103.3329471"><ele>2480.93</ele><time>2026-01-22T16:03:24.000Z</time></trkpt>
        <trkpt lat="29.5350698" lon="103.3328458"><ele>2484.96</ele><time>2026-01-22T16:03:42.000Z</time></trkpt>
        <trkpt lat="29.5349944" lon="103.3327883"><ele>2488.16</ele><time>2026-01-22T16:04:26.000Z</time></trkpt>
        <trkpt lat="29.5349098" lon="103.3328244"><ele>2491.45</ele><time>2026-01-22T16:04:36.000Z</time></trkpt>
        <trkpt lat="29.5348277" lon="103.3328985"><ele>2492.93</ele><time>2026-01-22T16:04:48.000Z</time></trkpt>
        <trkpt lat="29.5347444" lon="103.3329724"><ele>2492.7</ele><time>2026-01-22T16:05:08.000Z</time></trkpt>
        <trkpt lat="29.5346538" lon="103.3330283"><ele>2491.24</ele><time>2026-01-22T16:05:28.000Z</time></trkpt>
        <trkpt lat="29.5345536" lon="103.3330509"><ele>2492.81</ele><time>2026-01-22T16:05:46.000Z</time></trkpt>
        <trkpt lat="29.5344717" lon="103.3331008"><ele>2495.47</ele><time>2026-01-22T16:06:00.000Z</time></trkpt>
        <trkpt lat="29.5343874" lon="103.3331435"><ele>2498.8</ele><time>2026-01-22T16:06:20.000Z</time></trkpt>
        <trkpt lat="29.5342979" lon="103.3331441"><ele>2502.54</ele><time>2026-01-22T16:06:44.000Z</time></trkpt>
        <trkpt lat="29.5342013" lon="103.333148"><ele>2504.93</ele><time>2026-01-22T16:07:10.000Z</time></trkpt>
        <trkpt lat="29.5341174" lon="103.3331881"><ele>2508.1</ele><time>2026-01-22T16:07:28.000Z</time></trkpt>
        <trkpt lat="29.5340286" lon="103.3332186"><ele>2512.14</ele><time>2026-01-22T16:07:48.000Z</time></trkpt>
        <trkpt lat="29.5339338" lon="103.3332279"><ele>2516.47</ele><time>2026-01-22T16:08:10.000Z</time></trkpt>
        <trkpt lat="29.5338468" lon="103.3331855"><ele>2520.44</ele><time>2026-01-22T16:08:36.000Z</time></trkpt>
        <trkpt lat="29.5337669" lon="103.3331201"><ele>2523.39</ele><time>2026-01-22T16:09:00.000Z</time></trkpt>
        <trkpt lat="29.533693" lon="103.333041"><ele>2526.71</ele><time>2026-01-22T16:09:28.000Z</time></trkpt>
        <trkpt lat="29.533693" lon="103.333041"><ele>2526.71</ele><time>2026-01-22T16:09:57.000Z</time></trkpt>
        <trkpt lat="29.533693" lon="103.333041"><ele>2526.71</ele><time>2026-01-22T16:09:59.000Z</time></trkpt>
        <trkpt lat="29.533693" lon="103.333041"><ele>2526.71</ele><time>2026-01-22T16:10:13.000Z</time></trkpt>
        <trkpt lat="29.5336217" lon="103.3329667"><ele>2530.4</ele><time>2026-01-22T16:10:35.000Z</time></trkpt>
        <trkpt lat="29.5336217" lon="103.3329667"><ele>2530.4</ele><time>2026-01-22T16:11:00.000Z</time></trkpt>
        <trkpt lat="29.5335433" lon="103.3329133"><ele>2533.5</ele><time>2026-01-22T16:11:16.000Z</time></trkpt>
        <trkpt lat="29.5334777" lon="103.3328388"><ele>2536.6</ele><time>2026-01-22T16:11:34.000Z</time></trkpt>
        <trkpt lat="29.5334027" lon="103.3327812"><ele>2540.04</ele><time>2026-01-22T16:11:54.000Z</time></trkpt>
        <trkpt lat="29.5333274" lon="103.3327149"><ele>2543.46</ele><time>2026-01-22T16:12:20.000Z</time></trkpt>
        <trkpt lat="29.5332408" lon="103.3326678"><ele>2546.92</ele><time>2026-01-22T16:12:48.000Z</time></trkpt>
        <trkpt lat="29.5331677" lon="103.3326055"><ele>2550.83</ele><time>2026-01-22T16:13:12.000Z</time></trkpt>
        <trkpt lat="29.5331053" lon="103.3325278"><ele>2555.2</ele><time>2026-01-22T16:13:34.000Z</time></trkpt>
        <trkpt lat="29.5330376" lon="103.3324488"><ele>2558.26</ele><time>2026-01-22T16:13:56.000Z</time></trkpt>
        <trkpt lat="29.5329584" lon="103.3323827"><ele>2561.76</ele><time>2026-01-22T16:14:16.000Z</time></trkpt>
        <trkpt lat="29.5328924" lon="103.3323082"><ele>2565.3</ele><time>2026-01-22T16:14:30.000Z</time></trkpt>
        <trkpt lat="29.5328331" lon="103.3322253"><ele>2568.36</ele><time>2026-01-22T16:14:54.000Z</time></trkpt>
        <trkpt lat="29.5327658" lon="103.3321408"><ele>2570.74</ele><time>2026-01-22T16:15:20.000Z</time></trkpt>
        <trkpt lat="29.5326999" lon="103.3320588"><ele>2574.59</ele><time>2026-01-22T16:15:44.000Z</time></trkpt>
        <trkpt lat="29.5326285" lon="103.3319907"><ele>2577.78</ele><time>2026-01-22T16:16:24.000Z</time></trkpt>
        <trkpt lat="29.53259" lon="103.3318989"><ele>2580.15</ele><time>2026-01-22T16:17:02.000Z</time></trkpt>
        <trkpt lat="29.5325414" lon="103.3318052"><ele>2582.8</ele><time>2026-01-22T16:17:22.000Z</time></trkpt>
        <trkpt lat="29.5325075" lon="103.3317018"><ele>2584.95</ele><time>2026-01-22T16:17:50.000Z</time></trkpt>
        <trkpt lat="29.5324585" lon="103.3316066"><ele>2587.6</ele><time>2026-01-22T16:18:20.000Z</time></trkpt>
        <trkpt lat="29.5324106" lon="103.3315116"><ele>2591.34</ele><time>2026-01-22T16:18:52.000Z</time></trkpt>
        <trkpt lat="29.532386" lon="103.3314116"><ele>2595.84</ele><time>2026-01-22T16:19:26.000Z</time></trkpt>
        <trkpt lat="29.5323386" lon="103.3312948"><ele>2599.69</ele><time>2026-01-22T16:20:00.000Z</time></trkpt>
        <trkpt lat="29.5322918" lon="103.3311933"><ele>2603.4</ele><time>2026-01-22T16:20:34.000Z</time></trkpt>
        <trkpt lat="29.5322695" lon="103.3312513"><ele>2606.97</ele><time>2026-01-22T16:20:54.000Z</time></trkpt>
        <trkpt lat="29.5322214" lon="103.3313448"><ele>2611.07</ele><time>2026-01-22T16:21:14.000Z</time></trkpt>
        <trkpt lat="29.5321477" lon="103.3313346"><ele>2615.21</ele><time>2026-01-22T16:21:46.000Z</time></trkpt>
        <trkpt lat="29.5321142" lon="103.3312411"><ele>2618</ele><time>2026-01-22T16:22:04.000Z</time></trkpt>
        <trkpt lat="29.532136" lon="103.3311281"><ele>2620.63</ele><time>2026-01-22T16:22:54.000Z</time></trkpt>
        <trkpt lat="29.5321331" lon="103.3310149"><ele>2624.83</ele><time>2026-01-22T16:23:10.000Z</time></trkpt>
        <trkpt lat="29.5321336" lon="103.3308957"><ele>2627.61</ele><time>2026-01-22T16:23:26.000Z</time></trkpt>
        <trkpt lat="29.5321348" lon="103.3307714"><ele>2629.46</ele><time>2026-01-22T16:23:40.000Z</time></trkpt>
        <trkpt lat="29.532127" lon="103.3306469"><ele>2631.41</ele><time>2026-01-22T16:23:50.000Z</time></trkpt>
        <trkpt lat="29.5321269" lon="103.3305345"><ele>2632.52</ele><time>2026-01-22T16:24:04.000Z</time></trkpt>
        <trkpt lat="29.5321524" lon="103.3304322"><ele>2632.69</ele><time>2026-01-22T16:24:26.000Z</time></trkpt>
        <trkpt lat="29.5321" lon="103.3303583"><ele>2635.88</ele><time>2026-01-22T16:25:32.000Z</time></trkpt>
        <trkpt lat="29.5321517" lon="103.3302667"><ele>2642.21</ele><time>2026-01-22T16:26:00.000Z</time></trkpt>
        <trkpt lat="29.5320583" lon="103.330255"><ele>2645.99</ele><time>2026-01-22T16:27:32.000Z</time></trkpt>
        <trkpt lat="29.531955" lon="103.3302617"><ele>2652.83</ele><time>2026-01-22T16:28:00.000Z</time></trkpt>
        <trkpt lat="29.5318446" lon="103.3302232"><ele>2657.59</ele><time>2026-01-22T16:28:36.000Z</time></trkpt>
        <trkpt lat="29.531769" lon="103.3301562"><ele>2663.36</ele><time>2026-01-22T16:29:06.000Z</time></trkpt>
        <trkpt lat="29.5317281" lon="103.3300624"><ele>2668.28</ele><time>2026-01-22T16:29:30.000Z</time></trkpt>
        <trkpt lat="29.5316549" lon="103.330023"><ele>2673.71</ele><time>2026-01-22T16:29:56.000Z</time></trkpt>
        <trkpt lat="29.5315748" lon="103.3299837"><ele>2677.32</ele><time>2026-01-22T16:30:20.000Z</time></trkpt>
        <trkpt lat="29.5314886" lon="103.3299518"><ele>2680.41</ele><time>2026-01-22T16:31:04.000Z</time></trkpt>
        <trkpt lat="29.5314108" lon="103.3298955"><ele>2683.63</ele><time>2026-01-22T16:31:48.000Z</time></trkpt>
        <trkpt lat="29.5313417" lon="103.3298257"><ele>2687.4</ele><time>2026-01-22T16:32:36.000Z</time></trkpt>
        <trkpt lat="29.5312781" lon="103.3297469"><ele>2694.54</ele><time>2026-01-22T16:33:20.000Z</time></trkpt>
        <trkpt lat="29.5312222" lon="103.3296623"><ele>2700.63</ele><time>2026-01-22T16:34:00.000Z</time></trkpt>
        <trkpt lat="29.531185" lon="103.3295633"><ele>2705.82</ele><time>2026-01-22T16:35:18.000Z</time></trkpt>
        <trkpt lat="29.5311267" lon="103.3294817"><ele>2711.53</ele><time>2026-01-22T16:35:42.000Z</time></trkpt>
        <trkpt lat="29.5310979" lon="103.3293803"><ele>2715.82</ele><time>2026-01-22T16:35:58.000Z</time></trkpt>
        <trkpt lat="29.5310951" lon="103.3292741"><ele>2718.87</ele><time>2026-01-22T16:36:14.000Z</time></trkpt>
        <trkpt lat="29.5310816" lon="103.3291688"><ele>2721.46</ele><time>2026-01-22T16:36:28.000Z</time></trkpt>
        <trkpt lat="29.5310794" lon="103.3290555"><ele>2723.63</ele><time>2026-01-22T16:36:44.000Z</time></trkpt>
        <trkpt lat="29.5310746" lon="103.3289471"><ele>2726.03</ele><time>2026-01-22T16:37:00.000Z</time></trkpt>
        <trkpt lat="29.5310779" lon="103.3288286"><ele>2727.99</ele><time>2026-01-22T16:37:22.000Z</time></trkpt>
        <trkpt lat="29.5310913" lon="103.3287189"><ele>2730.1</ele><time>2026-01-22T16:37:38.000Z</time></trkpt>
        <trkpt lat="29.5311191" lon="103.3286132"><ele>2732.34</ele><time>2026-01-22T16:38:02.000Z</time></trkpt>
        <trkpt lat="29.5311487" lon="103.3285074"><ele>2734.6</ele><time>2026-01-22T16:38:24.000Z</time></trkpt>
        <trkpt lat="29.5311715" lon="103.3284013"><ele>2737.35</ele><time>2026-01-22T16:38:40.000Z</time></trkpt>
        <trkpt lat="29.5312048" lon="103.3282949"><ele>2739.05</ele><time>2026-01-22T16:38:50.000Z</time></trkpt>
        <trkpt lat="29.5312494" lon="103.3281821"><ele>2740.41</ele><time>2026-01-22T16:39:02.000Z</time></trkpt>
        <trkpt lat="29.5312537" lon="103.3280681"><ele>2741.87</ele><time>2026-01-22T16:39:16.000Z</time></trkpt>
        <trkpt lat="29.5312486" lon="103.3279591"><ele>2743.6</ele><time>2026-01-22T16:39:28.000Z</time></trkpt>
        <trkpt lat="29.5312456" lon="103.3278522"><ele>2745.11</ele><time>2026-01-22T16:39:54.000Z</time></trkpt>
        <trkpt lat="29.5312171" lon="103.3277509"><ele>2746.26</ele><time>2026-01-22T16:40:18.000Z</time></trkpt>
        <trkpt lat="29.5312064" lon="103.3276489"><ele>2747.79</ele><time>2026-01-22T16:40:38.000Z</time></trkpt>
        <trkpt lat="29.5312101" lon="103.3275425"><ele>2750.42</ele><time>2026-01-22T16:41:00.000Z</time></trkpt>
        <trkpt lat="29.531204" lon="103.3274344"><ele>2753.42</ele><time>2026-01-22T16:41:20.000Z</time></trkpt>
        <trkpt lat="29.531196" lon="103.327327"><ele>2756.21</ele><time>2026-01-22T16:41:50.000Z</time></trkpt>
        <trkpt lat="29.5311911" lon="103.3272213"><ele>2759.22</ele><time>2026-01-22T16:42:14.000Z</time></trkpt>
        <trkpt lat="29.5311626" lon="103.3271225"><ele>2762.78</ele><time>2026-01-22T16:42:40.000Z</time></trkpt>
        <trkpt lat="29.5310864" lon="103.3270775"><ele>2766.14</ele><time>2026-01-22T16:43:06.000Z</time></trkpt>
        <trkpt lat="29.5309954" lon="103.3270418"><ele>2770.86</ele><time>2026-01-22T16:43:24.000Z</time></trkpt>
        <trkpt lat="29.5309097" lon="103.32699"><ele>2774.96</ele><time>2026-01-22T16:43:48.000Z</time></trkpt>
        <trkpt lat="29.5308211" lon="103.3269351"><ele>2776.78</ele><time>2026-01-22T16:44:14.000Z</time></trkpt>
        <trkpt lat="29.5307874" lon="103.3268375"><ele>2778.94</ele><time>2026-01-22T16:44:52.000Z</time></trkpt>
        <trkpt lat="29.5307221" lon="103.3268383"><ele>2781.42</ele><time>2026-01-22T16:45:18.000Z</time></trkpt>
        <trkpt lat="29.5306362" lon="103.3268674"><ele>2783.82</ele><time>2026-01-22T16:45:43.000Z</time></trkpt>
        <trkpt lat="29.5306362" lon="103.3268674"><ele>2783.82</ele><time>2026-01-22T16:46:20.000Z</time></trkpt>
      </trkseg>
      <trkseg>
        <trkpt lat="29.5305317" lon="103.3269133"><ele>2787.34</ele><time>2026-01-22T16:52:22.000Z</time></trkpt>
        <trkpt lat="29.5305317" lon="103.3269133"><ele>2787.34</ele><time>2026-01-22T16:52:40.000Z</time></trkpt>
        <trkpt lat="29.5304517" lon="103.3269817"><ele>2792.66</ele><time>2026-01-22T16:52:58.000Z</time></trkpt>
        <trkpt lat="29.5303505" lon="103.3270303"><ele>2793.71</ele><time>2026-01-22T16:53:20.000Z</time></trkpt>
        <trkpt lat="29.5302623" lon="103.3270728"><ele>2796.11</ele><time>2026-01-22T16:53:38.000Z</time></trkpt>
        <trkpt lat="29.5301743" lon="103.3271108"><ele>2797.31</ele><time>2026-01-22T16:53:52.000Z</time></trkpt>
        <trkpt lat="29.5301001" lon="103.3271801"><ele>2798.73</ele><time>2026-01-22T16:54:04.000Z</time></trkpt>
        <trkpt lat="29.5300195" lon="103.3272566"><ele>2800.35</ele><time>2026-01-22T16:54:16.000Z</time></trkpt>
        <trkpt lat="29.529942" lon="103.3273331"><ele>2803.12</ele><time>2026-01-22T16:54:28.000Z</time></trkpt>
        <trkpt lat="29.5298756" lon="103.3274147"><ele>2805.95</ele><time>2026-01-22T16:54:38.000Z</time></trkpt>
        <trkpt lat="29.5298281" lon="103.3275177"><ele>2807.78</ele><time>2026-01-22T16:54:48.000Z</time></trkpt>
        <trkpt lat="29.5297918" lon="103.3276241"><ele>2809.77</ele><time>2026-01-22T16:54:58.000Z</time></trkpt>
        <trkpt lat="29.5297531" lon="103.3277328"><ele>2811.07</ele><time>2026-01-22T16:55:10.000Z</time></trkpt>
        <trkpt lat="29.5296896" lon="103.3278188"><ele>2812.12</ele><time>2026-01-22T16:55:22.000Z</time></trkpt>
        <trkpt lat="29.5295952" lon="103.3278407"><ele>2812.58</ele><time>2026-01-22T16:55:32.000Z</time></trkpt>
        <trkpt lat="29.5294856" lon="103.3278402"><ele>2812.42</ele><time>2026-01-22T16:55:42.000Z</time></trkpt>
        <trkpt lat="29.5293864" lon="103.3278217"><ele>2812.11</ele><time>2026-01-22T16:55:50.000Z</time></trkpt>
        <trkpt lat="29.5292893" lon="103.327815"><ele>2812.28</ele><time>2026-01-22T16:56:04.000Z</time></trkpt>
        <trkpt lat="29.5292573" lon="103.3279004"><ele>2814.31</ele><time>2026-01-22T16:56:26.000Z</time></trkpt>
        <trkpt lat="29.5292342" lon="103.3280067"><ele>2816.24</ele><time>2026-01-22T16:56:40.000Z</time></trkpt>
        <trkpt lat="29.5292009" lon="103.3281234"><ele>2817.34</ele><time>2026-01-22T16:56:54.000Z</time></trkpt>
        <trkpt lat="29.529184" lon="103.3282378"><ele>2818.14</ele><time>2026-01-22T16:57:14.000Z</time></trkpt>
        <trkpt lat="29.5291625" lon="103.3283464"><ele>2820.23</ele><time>2026-01-22T16:57:34.000Z</time></trkpt>
        <trkpt lat="29.529133" lon="103.3284505"><ele>2823.23</ele><time>2026-01-22T16:57:50.000Z</time></trkpt>
        <trkpt lat="29.5291026" lon="103.3285501"><ele>2826.57</ele><time>2026-01-22T16:58:12.000Z</time></trkpt>
        <trkpt lat="29.5290559" lon="103.3286456"><ele>2829.16</ele><time>2026-01-22T16:58:44.000Z</time></trkpt>
        <trkpt lat="29.5290172" lon="103.3287424"><ele>2831.07</ele><time>2026-01-22T16:59:02.000Z</time></trkpt>
        <trkpt lat="29.5289723" lon="103.3288389"><ele>2832.85</ele><time>2026-01-22T16:59:26.000Z</time></trkpt>
        <trkpt lat="29.5289328" lon="103.3289365"><ele>2835.28</ele><time>2026-01-22T16:59:40.000Z</time></trkpt>
        <trkpt lat="29.5288781" lon="103.3290348"><ele>2837.35</ele><time>2026-01-22T16:59:56.000Z</time></trkpt>
        <trkpt lat="29.5288878" lon="103.3289866"><ele>2839.01</ele><time>2026-01-22T17:00:30.000Z</time></trkpt>
        <trkpt lat="29.5289457" lon="103.3288938"><ele>2841.24</ele><time>2026-01-22T17:00:40.000Z</time></trkpt>
        <trkpt lat="29.5289918" lon="103.3287713"><ele>2841.78</ele><time>2026-01-22T17:00:48.000Z</time></trkpt>
        <trkpt lat="29.5290318" lon="103.3286396"><ele>2840.93</ele><time>2026-01-22T17:00:56.000Z</time></trkpt>
        <trkpt lat="29.5290203" lon="103.3286864"><ele>2838.98</ele><time>2026-01-22T17:01:10.000Z</time></trkpt>
        <trkpt lat="29.528982" lon="103.3287865"><ele>2836.75</ele><time>2026-01-22T17:01:24.000Z</time></trkpt>
        <trkpt lat="29.5289414" lon="103.3289069"><ele>2835.78</ele><time>2026-01-22T17:01:36.000Z</time></trkpt>
        <trkpt lat="29.5288903" lon="103.32903"><ele>2836.69</ele><time>2026-01-22T17:01:50.000Z</time></trkpt>
        <trkpt lat="29.5288345" lon="103.3291428"><ele>2838.72</ele><time>2026-01-22T17:02:02.000Z</time></trkpt>
        <trkpt lat="29.5287784" lon="103.3292392"><ele>2841.25</ele><time>2026-01-22T17:02:16.000Z</time></trkpt>
        <trkpt lat="29.5287194" lon="103.3293362"><ele>2843.77</ele><time>2026-01-22T17:02:30.000Z</time></trkpt>
        <trkpt lat="29.5286712" lon="103.32943"><ele>2846.19</ele><time>2026-01-22T17:02:40.000Z</time></trkpt>
        <trkpt lat="29.5286512" lon="103.3295304"><ele>2848.43</ele><time>2026-01-22T17:02:54.000Z</time></trkpt>
        <trkpt lat="29.5286311" lon="103.3296372"><ele>2850.53</ele><time>2026-01-22T17:03:10.000Z</time></trkpt>
        <trkpt lat="29.5286056" lon="103.3297549"><ele>2852.02</ele><time>2026-01-22T17:03:24.000Z</time></trkpt>
        <trkpt lat="29.5285921" lon="103.3298749"><ele>2853.86</ele><time>2026-01-22T17:03:38.000Z</time></trkpt>
        <trkpt lat="29.5285628" lon="103.3299811"><ele>2855.13</ele><time>2026-01-22T17:03:50.000Z</time></trkpt>
        <trkpt lat="29.5285132" lon="103.3300866"><ele>2856.32</ele><time>2026-01-22T17:04:00.000Z</time></trkpt>
        <trkpt lat="29.5284404" lon="103.3301574"><ele>2857.26</ele><time>2026-01-22T17:04:08.000Z</time></trkpt>
        <trkpt lat="29.5284005" lon="103.3302495"><ele>2857.79</ele><time>2026-01-22T17:04:26.000Z</time></trkpt>
        <trkpt lat="29.5283771" lon="103.330349"><ele>2857.02</ele><time>2026-01-22T17:04:34.000Z</time></trkpt>
        <trkpt lat="29.5283771" lon="103.330349"><ele>2857.02</ele><time>2026-01-22T17:05:15.000Z</time></trkpt>
        <trkpt lat="29.5283771" lon="103.330349"><ele>2857.02</ele><time>2026-01-22T17:05:31.000Z</time></trkpt>
        <trkpt lat="29.5283771" lon="103.330349"><ele>2857.02</ele><time>2026-01-22T17:05:34.000Z</time></trkpt>
      </trkseg>
      <trkseg>
        <trkpt lat="29.5281767" lon="103.3301867"><ele>2856.28</ele><time>2026-01-22T17:14:35.000Z</time></trkpt>
        <trkpt lat="29.5281767" lon="103.3301867"><ele>2856.28</ele><time>2026-01-22T17:14:41.000Z</time></trkpt>
        <trkpt lat="29.528305" lon="103.3304017"><ele>2858.83</ele><time>2026-01-22T17:14:50.000Z</time></trkpt>
        <trkpt lat="29.5283106" lon="103.3305278"><ele>2863.03</ele><time>2026-01-22T17:15:08.000Z</time></trkpt>
        <trkpt lat="29.5283434" lon="103.330637"><ele>2863.15</ele><time>2026-01-22T17:15:28.000Z</time></trkpt>
        <trkpt lat="29.5283001" lon="103.3307265"><ele>2862.44</ele><time>2026-01-22T17:15:48.000Z</time></trkpt>
        <trkpt lat="29.5282289" lon="103.3308082"><ele>2863.54</ele><time>2026-01-22T17:16:02.000Z</time></trkpt>
        <trkpt lat="29.5281446" lon="103.3308758"><ele>2864.86</ele><time>2026-01-22T17:16:24.000Z</time></trkpt>
        <trkpt lat="29.5280935" lon="103.3309702"><ele>2866.25</ele><time>2026-01-22T17:16:40.000Z</time></trkpt>
        <trkpt lat="29.5280563" lon="103.3310774"><ele>2867.99</ele><time>2026-01-22T17:16:54.000Z</time></trkpt>
        <trkpt lat="29.5280214" lon="103.3311876"><ele>2869.5</ele><time>2026-01-22T17:17:12.000Z</time></trkpt>
        <trkpt lat="29.5279727" lon="103.3312815"><ele>2871.05</ele><time>2026-01-22T17:17:28.000Z</time></trkpt>
        <trkpt lat="29.5279058" lon="103.3313551"><ele>2873.7</ele><time>2026-01-22T17:17:42.000Z</time></trkpt>
        <trkpt lat="29.5278276" lon="103.331428"><ele>2875.98</ele><time>2026-01-22T17:17:56.000Z</time></trkpt>
        <trkpt lat="29.527783" lon="103.3315284"><ele>2878.18</ele><time>2026-01-22T17:18:14.000Z</time></trkpt>
        <trkpt lat="29.5277293" lon="103.3316258"><ele>2880.21</ele><time>2026-01-22T17:18:32.000Z</time></trkpt>
        <trkpt lat="29.5277074" lon="103.3317286"><ele>2882.92</ele><time>2026-01-22T17:18:48.000Z</time></trkpt>
        <trkpt lat="29.5277096" lon="103.3318328"><ele>2885.58</ele><time>2026-01-22T17:18:56.000Z</time></trkpt>
        <trkpt lat="29.5277162" lon="103.3319409"><ele>2887.57</ele><time>2026-01-22T17:19:06.000Z</time></trkpt>
        <trkpt lat="29.5276947" lon="103.3320425"><ele>2889.47</ele><time>2026-01-22T17:19:20.000Z</time></trkpt>
        <trkpt lat="29.5276288" lon="103.3321213"><ele>2891.46</ele><time>2026-01-22T17:19:38.000Z</time></trkpt>
        <trkpt lat="29.5275475" lon="103.3321807"><ele>2893.2</ele><time>2026-01-22T17:20:00.000Z</time></trkpt>
        <trkpt lat="29.5275636" lon="103.3322618"><ele>2895.31</ele><time>2026-01-22T17:20:18.000Z</time></trkpt>
        <trkpt lat="29.5275889" lon="103.3323602"><ele>2897.8</ele><time>2026-01-22T17:20:36.000Z</time></trkpt>
        <trkpt lat="29.5275445" lon="103.3324345"><ele>2900.04</ele><time>2026-01-22T17:20:48.000Z</time></trkpt>
        <trkpt lat="29.5274707" lon="103.3325015"><ele>2901.23</ele><time>2026-01-22T17:21:02.000Z</time></trkpt>
        <trkpt lat="29.5273761" lon="103.3325377"><ele>2902.38</ele><time>2026-01-22T17:21:24.000Z</time></trkpt>
        <trkpt lat="29.527278" lon="103.3325097"><ele>2904.19</ele><time>2026-01-22T17:21:34.000Z</time></trkpt>
        <trkpt lat="29.5271989" lon="103.3324277"><ele>2906.13</ele><time>2026-01-22T17:21:44.000Z</time></trkpt>
        <trkpt lat="29.5271633" lon="103.3323144"><ele>2907.71</ele><time>2026-01-22T17:21:52.000Z</time></trkpt>
        <trkpt lat="29.5271047" lon="103.3323316"><ele>2908.39</ele><time>2026-01-22T17:22:06.000Z</time></trkpt>
        <trkpt lat="29.5270476" lon="103.332411"><ele>2908.57</ele><time>2026-01-22T17:22:26.000Z</time></trkpt>
        <trkpt lat="29.5270349" lon="103.3325209"><ele>2910.13</ele><time>2026-01-22T17:22:44.000Z</time></trkpt>
        <trkpt lat="29.5270559" lon="103.3326512"><ele>2911.58</ele><time>2026-01-22T17:22:56.000Z</time></trkpt>
        <trkpt lat="29.5270741" lon="103.3327803"><ele>2913.22</ele><time>2026-01-22T17:23:08.000Z</time></trkpt>
        <trkpt lat="29.5270593" lon="103.3329053"><ele>2914.8</ele><time>2026-01-22T17:23:22.000Z</time></trkpt>
        <trkpt lat="29.5270498" lon="103.3330245"><ele>2917</ele><time>2026-01-22T17:23:38.000Z</time></trkpt>
        <trkpt lat="29.527087" lon="103.3331282"><ele>2918.89</ele><time>2026-01-22T17:23:50.000Z</time></trkpt>
        <trkpt lat="29.5271127" lon="103.3332324"><ele>2920.31</ele><time>2026-01-22T17:24:02.000Z</time></trkpt>
        <trkpt lat="29.5270904" lon="103.3333326"><ele>2921.47</ele><time>2026-01-22T17:24:14.000Z</time></trkpt>
        <trkpt lat="29.5270287" lon="103.3334242"><ele>2922.82</ele><time>2026-01-22T17:24:26.000Z</time></trkpt>
        <trkpt lat="29.5269423" lon="103.3334893"><ele>2923.63</ele><time>2026-01-22T17:24:40.000Z</time></trkpt>
        <trkpt lat="29.5268428" lon="103.3335204"><ele>2924.52</ele><time>2026-01-22T17:25:04.000Z</time></trkpt>
        <trkpt lat="29.5267465" lon="103.3335422"><ele>2926.92</ele><time>2026-01-22T17:25:24.000Z</time></trkpt>
        <trkpt lat="29.5266514" lon="103.3335596"><ele>2929.88</ele><time>2026-01-22T17:25:48.000Z</time></trkpt>
        <trkpt lat="29.5265628" lon="103.3335987"><ele>2933.46</ele><time>2026-01-22T17:26:08.000Z</time></trkpt>
        <trkpt lat="29.5264709" lon="103.333632"><ele>2937.26</ele><time>2026-01-22T17:26:24.000Z</time></trkpt>
        <trkpt lat="29.5263813" lon="103.3336752"><ele>2940.72</ele><time>2026-01-22T17:26:40.000Z</time></trkpt>
        <trkpt lat="29.5262941" lon="103.3337171"><ele>2942.56</ele><time>2026-01-22T17:26:50.000Z</time></trkpt>
        <trkpt lat="29.5262088" lon="103.3337793"><ele>2944.13</ele><time>2026-01-22T17:27:04.000Z</time></trkpt>
        <trkpt lat="29.5261317" lon="103.3338462"><ele>2945.53</ele><time>2026-01-22T17:27:22.000Z</time></trkpt>
        <trkpt lat="29.5260473" lon="103.3338986"><ele>2946.6</ele><time>2026-01-22T17:27:48.000Z</time></trkpt>
        <trkpt lat="29.5259597" lon="103.333946"><ele>2948.75</ele><time>2026-01-22T17:28:04.000Z</time></trkpt>
        <trkpt lat="29.5258836" lon="103.3340057"><ele>2950.49</ele><time>2026-01-22T17:28:16.000Z</time></trkpt>
        <trkpt lat="29.5257956" lon="103.3340578"><ele>2952.77</ele><time>2026-01-22T17:28:36.000Z</time></trkpt>
        <trkpt lat="29.5257141" lon="103.3341154"><ele>2955.5</ele><time>2026-01-22T17:28:52.000Z</time></trkpt>
        <trkpt lat="29.5256328" lon="103.3341765"><ele>2955.54</ele><time>2026-01-22T17:29:16.000Z</time></trkpt>
        <trkpt lat="29.5255577" lon="103.3342462"><ele>2956.21</ele><time>2026-01-22T17:29:36.000Z</time></trkpt>
        <trkpt lat="29.525496" lon="103.3343337"><ele>2957.37</ele><time>2026-01-22T17:29:50.000Z</time></trkpt>
        <trkpt lat="29.5254413" lon="103.3344209"><ele>2958.41</ele><time>2026-01-22T17:30:06.000Z</time></trkpt>
        <trkpt lat="29.5253858" lon="103.3345204"><ele>2959.74</ele><time>2026-01-22T17:30:30.000Z</time></trkpt>
        <trkpt lat="29.5253203" lon="103.3346"><ele>2962.13</ele><time>2026-01-22T17:30:48.000Z</time></trkpt>
        <trkpt lat="29.525252" lon="103.3346712"><ele>2964.31</ele><time>2026-01-22T17:31:08.000Z</time></trkpt>
        <trkpt lat="29.5251729" lon="103.3347299"><ele>2966.93</ele><time>2026-01-22T17:31:28.000Z</time></trkpt>
        <trkpt lat="29.5250978" lon="103.3347922"><ele>2970.06</ele><time>2026-01-22T17:31:46.000Z</time></trkpt>
        <trkpt lat="29.5250124" lon="103.3348408"><ele>2973.26</ele><time>2026-01-22T17:32:16.000Z</time></trkpt>
        <trkpt lat="29.5249146" lon="103.3348358"><ele>2976.98</ele><time>2026-01-22T17:32:30.000Z</time></trkpt>
        <trkpt lat="29.5248167" lon="103.3348072"><ele>2979.01</ele><time>2026-01-22T17:32:44.000Z</time></trkpt>
        <trkpt lat="29.5247235" lon="103.3347821"><ele>2980.04</ele><time>2026-01-22T17:33:02.000Z</time></trkpt>
        <trkpt lat="29.5246314" lon="103.3347979"><ele>2980.88</ele><time>2026-01-22T17:33:28.000Z</time></trkpt>
        <trkpt lat="29.524541" lon="103.3348212"><ele>2982.31</ele><time>2026-01-22T17:33:46.000Z</time></trkpt>
        <trkpt lat="29.5244486" lon="103.3348608"><ele>2983.38</ele><time>2026-01-22T17:34:00.000Z</time></trkpt>
        <trkpt lat="29.5243542" lon="103.3349127"><ele>2984.03</ele><time>2026-01-22T17:34:14.000Z</time></trkpt>
        <trkpt lat="29.5242628" lon="103.3349338"><ele>2984.92</ele><time>2026-01-22T17:34:26.000Z</time></trkpt>
        <trkpt lat="29.5241751" lon="103.3349647"><ele>2985.26</ele><time>2026-01-22T17:34:36.000Z</time></trkpt>
        <trkpt lat="29.524085" lon="103.33498"><ele>2986.31</ele><time>2026-01-22T17:34:46.000Z</time></trkpt>
        <trkpt lat="29.5239912" lon="103.3349745"><ele>2987.04</ele><time>2026-01-22T17:34:58.000Z</time></trkpt>
        <trkpt lat="29.5238961" lon="103.3349623"><ele>2987.19</ele><time>2026-01-22T17:35:18.000Z</time></trkpt>
        <trkpt lat="29.5238057" lon="103.3349416"><ele>2987.02</ele><time>2026-01-22T17:35:36.000Z</time></trkpt>
        <trkpt lat="29.5238057" lon="103.3349416"><ele>2987.02</ele><time>2026-01-22T17:36:14.000Z</time></trkpt>
        <trkpt lat="29.5237" lon="103.3349067"><ele>2987.14</ele><time>2026-01-22T17:36:22.000Z</time></trkpt>
        <trkpt lat="29.5237" lon="103.3349067"><ele>2987.14</ele><time>2026-01-22T17:37:00.000Z</time></trkpt>
        <trkpt lat="29.5235983" lon="103.3349233"><ele>2987.21</ele><time>2026-01-22T17:37:10.000Z</time></trkpt>
        <trkpt lat="29.5234953" lon="103.3349076"><ele>2986.52</ele><time>2026-01-22T17:37:22.000Z</time></trkpt>
        <trkpt lat="29.5233984" lon="103.3348912"><ele>2988.02</ele><time>2026-01-22T17:37:36.000Z</time></trkpt>
        <trkpt lat="29.5233084" lon="103.334867"><ele>2989.39</ele><time>2026-01-22T17:37:46.000Z</time></trkpt>
        <trkpt lat="29.5232208" lon="103.3348216"><ele>2991.11</ele><time>2026-01-22T17:37:58.000Z</time></trkpt>
        <trkpt lat="29.5231348" lon="103.3347655"><ele>2992.87</ele><time>2026-01-22T17:38:10.000Z</time></trkpt>
        <trkpt lat="29.5230464" lon="103.3347559"><ele>2994.47</ele><time>2026-01-22T17:38:40.000Z</time></trkpt>
        <trkpt lat="29.5229569" lon="103.3347711"><ele>2995.35</ele><time>2026-01-22T17:38:52.000Z</time></trkpt>
        <trkpt lat="29.5228657" lon="103.3347873"><ele>2995.71</ele><time>2026-01-22T17:39:06.000Z</time></trkpt>
        <trkpt lat="29.5227752" lon="103.3348066"><ele>2997.21</ele><time>2026-01-22T17:39:22.000Z</time></trkpt>
        <trkpt lat="29.522685" lon="103.3348507"><ele>2999.36</ele><time>2026-01-22T17:39:34.000Z</time></trkpt>
        <trkpt lat="29.5226976" lon="103.3349344"><ele>3000.37</ele><time>2026-01-22T17:40:08.000Z</time></trkpt>
        <trkpt lat="29.5227328" lon="103.3350396"><ele>3001.54</ele><time>2026-01-22T17:40:36.000Z</time></trkpt>
        <trkpt lat="29.5227706" lon="103.3351594"><ele>3001.52</ele><time>2026-01-22T17:40:54.000Z</time></trkpt>
        <trkpt lat="29.5227963" lon="103.335273"><ele>3003.23</ele><time>2026-01-22T17:41:10.000Z</time></trkpt>
        <trkpt lat="29.5228115" lon="103.3353858"><ele>3005.37</ele><time>2026-01-22T17:41:24.000Z</time></trkpt>
        <trkpt lat="29.5228198" lon="103.3354961"><ele>3006.72</ele><time>2026-01-22T17:41:44.000Z</time></trkpt>
        <trkpt lat="29.5228408" lon="103.3355989"><ele>3008.52</ele><time>2026-01-22T17:42:00.000Z</time></trkpt>
        <trkpt lat="29.5228519" lon="103.3357038"><ele>3010.53</ele><time>2026-01-22T17:42:14.000Z</time></trkpt>
        <trkpt lat="29.5228665" lon="103.3358111"><ele>3012.71</ele><time>2026-01-22T17:42:30.000Z</time></trkpt>
        <trkpt lat="29.5229291" lon="103.3358806"><ele>3015.67</ele><time>2026-01-22T17:42:50.000Z</time></trkpt>
        <trkpt lat="29.5230204" lon="103.3359098"><ele>3017.54</ele><time>2026-01-22T17:43:08.000Z</time></trkpt>
        <trkpt lat="29.5230832" lon="103.3359777"><ele>3019.54</ele><time>2026-01-22T17:43:22.000Z</time></trkpt>
        <trkpt lat="29.5231339" lon="103.3360756"><ele>3020.99</ele><time>2026-01-22T17:43:34.000Z</time></trkpt>
        <trkpt lat="29.5231539" lon="103.3361827"><ele>3021.77</ele><time>2026-01-22T17:43:46.000Z</time></trkpt>
        <trkpt lat="29.5231571" lon="103.3362964"><ele>3022.21</ele><time>2026-01-22T17:43:58.000Z</time></trkpt>
        <trkpt lat="29.5231661" lon="103.3364098"><ele>3022.25</ele><time>2026-01-22T17:44:10.000Z</time></trkpt>
        <trkpt lat="29.5231706" lon="103.3365219"><ele>3022.19</ele><time>2026-01-22T17:44:24.000Z</time></trkpt>
        <trkpt lat="29.5231715" lon="103.3366316"><ele>3022.19</ele><time>2026-01-22T17:44:56.000Z</time></trkpt>
        <trkpt lat="29.5231381" lon="103.3367328"><ele>3022.84</ele><time>2026-01-22T17:45:12.000Z</time></trkpt>
        <trkpt lat="29.5230914" lon="103.3368296"><ele>3023.08</ele><time>2026-01-22T17:45:30.000Z</time></trkpt>
        <trkpt lat="29.5231058" lon="103.3369315"><ele>3022.31</ele><time>2026-01-22T17:45:48.000Z</time></trkpt>
        <trkpt lat="29.5231019" lon="103.3370458"><ele>3023.21</ele><time>2026-01-22T17:46:08.000Z</time></trkpt>
        <trkpt lat="29.5230576" lon="103.3371358"><ele>3024.15</ele><time>2026-01-22T17:46:30.000Z</time></trkpt>
        <trkpt lat="29.5229758" lon="103.3371774"><ele>3027.31</ele><time>2026-01-22T17:46:44.000Z</time></trkpt>
        <trkpt lat="29.5229758" lon="103.3371774"><ele>3027.31</ele><time>2026-01-22T17:47:02.000Z</time></trkpt>
      </trkseg>
  </trk>
</gpx>